[[{"header":{"parameterUnit":"m.s-1","parameterCategory":1,"la1":31.0,"la2":29.5877,"lo1":-88.7671,"lo2":-86.6584,"dy":0.0162,"dx":0.0185,"nx":115,"ny":88,"refTime":"2026-05-14T00:00:00:Z","depth":0,"parameterNumber":2,"parameterNumberName":"U-component_of_WINDS"},"data":[0.0,0.0,0.0,0.0,0.0,0.0,0.0,0.0,0.0,0.0,0.0,0.0,0.0,0.0,0.0,0.0,0.0,0.0,0.0,0.0,0.0,0.0,0.0,0.0,0.0,0.0,0.0,0.0,0.0,0.0,0.0,0.0,0.0,0.0,0.0,0.0,0.0,0.0,0.0,0.0,0.0,0.0,0.0,0.0,0.0,0.0,0.0,0.0,0.0,0.0,0.0,0.0,0.0,0.0,0.0,0.0,0.0,0.0,0.0,0.0,0.0,0.0,0.0,0.0,0.0,0.0,0.0,0.0,0.0,0.0,0.0,0.0,0.0,0.0,0.0,0.0,0.0,0.0,0.0,0.0,0.0,0.0,0.0,0.0,0.0,0.0,0.0,0.0,0.0,0.0,0.0,0.0,0.0,0.0,0.0,0.0,0.0,0.0,0.0,0.0,0.0,0.0,0.0,0.0,0.0,0.0,0.0,0.0,0.0,0.0,0.0,0.0,0.0,0.0,0.0,0.0,0.0,0.0,0.0,0.0,0.0,0.0,0.0,0.0,0.0,0.0,0.0,0.0,0.0,0.0,0.0,0.0,0.0,0.0,0.0,0.0,0.0,0.0,0.0,0.0,0.0,0.0,0.0,0.0,0.0,0.0,0.0,0.0,0.0,0.0,0.0,0.0,0.0,0.0,0.0,0.0,0.0,0.0,0.0,0.0,0.0,0.0,0.0,0.0,0.0,0.0,0.0,0.0,0.0,0.0,0.0,0.0,0.0,0.0,0.0,0.0,0.0,0.0,0.0,0.0,0.0,0.0,0.0,0.0,0.0,0.0,0.0,0.0,0.0,0.0,0.0,0.0,0.0,0.0,0.0,0.0,0.0,0.0,0.0,0.0,0.0,0.0,0.0,0.0,0.0,0.0,0.0,0.0,0.0,0.0,0.0,0.0,0.0,0.0,0.0,0.0,0.0,0.0,0.0,0.0,0.0,0.0,0.0,0.0,0.0,0.0,0.0,0.0,0.0,0.0,0.0,0.0,0.0,0.0,0.0,0.0,0.0,0.0,0.0,0.0,0.0,0.0,0.0,0.0,0.0,0.0,0.0,0.0,0.0,0.0,0.0,0.0,0.0,0.0,0.0,0.0,0.0,0.0,0.0,0.0,0.0,0.0,0.0,0.0,0.0,0.0,0.0,0.0,0.0,0.0,0.0,0.0,0.0,0.0,0.0,0.0,0.0,0.0,0.0,0.0,0.0,0.0,0.0,0.0,0.0,0.0,0.0,0.0,0.0,0.0,0.0,0.0,0.0,0.0,0.0,0.0,0.0,0.0,0.0,0.0,0.0,0.0,0.0,0.0,0.0,0.0,0.0,0.0,0.0,0.0,0.0,0.0,0.0,0.0,0.0,0.0,0.0,0.0,0.0,0.0,0.0,0.0,0.0,0.0,0.0,0.0,0.0,0.0,0.0,0.0,0.0,0.0,0.0,0.0,0.0,0.0,0.0,0.0,0.0,0.0,0.0,0.0,0.0,0.0,0.0,0.0,0.0,0.0,0.0,0.0,0.0,0.0,0.0,0.0,0.0,0.0,0.0,0.0,0.0,0.0,0.0,0.0,0.0,0.0,0.0,0.0,0.0,0.0,0.0,0.0,0.0,0.0,0.0,0.0,0.0,0.0,0.0,0.0,0.0,0.0,0.0,0.0,0.0,0.0,0.0,0.0,0.0,0.0,0.0,0.0,0.0,0.0,0.0,0.0,0.0,0.0,0.0,0.0,0.0,0.0,0.0,0.0,0.0,0.0,0.0,0.0,0.0,0.0,0.0,0.0,0.0,0.0,0.0,0.0,0.0,0.0,0.0,0.0,0.0,0.0,0.0,0.0,0.0,0.0,0.0,0.0,0.0,0.0,0.0,0.0,0.0,0.0,0.0,0.0,0.0,0.0,0.0,0.0,0.0,0.0,0.0,0.0,0.0,0.0,0.0,0.0,0.0,0.0,0.0,0.0,0.0,0.0,0.0,0.0,0.0,0.0,0.0,0.0,0.0,0.0,0.0,0.0,0.0,0.0,0.0,0.0,0.0,0.0,0.0,0.0,0.0,0.0,0.0,0.0,0.0,0.0,0.0,0.0,0.0,0.0,0.0,0.0,0.0,0.0,0.0,0.0,0.0,0.0,0.0,0.0,0.0,0.0,0.0,0.0,0.0,0.0,0.0,0.0,0.0,0.0,0.0,0.0,0.0,0.0,0.0,0.0,0.0,0.0,0.0,0.0,0.0,0.0,0.0,0.0,0.0,0.0,0.0,0.0,0.0,0.0,0.0,0.0,0.0,0.0,0.0,0.0,0.0,0.0,0.0,0.0,0.0,0.0,0.0,0.0,0.0,0.0,0.0,0.0,0.0,0.0,0.0,0.0,0.0,0.0,0.0,0.0,0.0,0.0,0.0,0.0,0.0,0.0,0.0,0.0,0.0,0.0,0.0,0.0,0.0,0.0,0.0,0.0,0.0,0.0,0.0,0.0,0.0,0.0,0.0,0.0,0.0,0.0,0.0,0.0,0.0,0.0,0.0,0.0,0.0,0.0,0.0,0.0,0.0,0.0,0.0,0.0,0.0,0.0,0.0,0.0,0.0,0.0,0.0,0.0,0.0,0.0,0.0,0.0,0.0,0.0,0.0,0.0,0.0,0.0,0.0,0.0,0.0,0.0,0.0,0.0,0.0,0.0,0.0,0.0,0.0,0.0,0.0,0.0,0.0,0.0,0.0,0.0,0.0,0.0,0.0,0.0,0.0,0.0,0.0,0.0,0.0,0.0,0.0,0.0,0.0,0.0,0.0,0.0,0.0,0.0,0.0,0.0,0.0,0.0,0.0,0.0,0.0,0.0,0.0,0.0,0.0,0.0,0.0,0.0,0.0,0.0,0.0,0.0,0.0,0.0,0.0,0.0,0.0,0.0,0.0,0.0,0.0,0.0,0.0,0.0,0.0,0.0,0.0,0.0,0.0,0.0,0.0,0.0,0.0,0.0,0.0,0.0,0.0,0.0,0.0,0.0,0.0,0.0,0.0,0.0,0.0,0.0,0.0,0.0,0.0,0.0,0.0,0.0,0.0,0.0,0.0,0.0,0.0,0.0,0.0,0.0,0.0,0.0,0.0,0.0,0.0,0.0,0.0,0.0,0.0,0.0,0.0,0.0,0.0,0.0,0.0,0.0,0.0,0.0,0.0,0.0,0.0,0.0,0.0,0.0,0.0,0.0,0.0,0.0,0.0,0.0,0.0,0.0,0.0,0.0,0.0,0.0,0.0,0.0,0.0,0.0,0.0,0.0,0.0,0.0,0.0,0.0,0.0,0.0,0.0,0.0,0.0,0.0,0.0,0.0,0.0,0.0,0.0,0.0,0.0,0.0,0.0,0.0,0.0,0.0,0.0,0.0,0.0,0.0,0.0,0.0,0.0,0.0,0.0,0.0,0.0,0.0,0.0,0.0,0.0,0.0,0.0,0.0,0.0,0.0,0.0,0.0,0.0,0.0,0.0,0.0,0.0,0.0,0.0,0.0,0.0,0.0,0.0,0.0,0.0,0.0,0.0,0.0,0.0,0.0,0.0,0.0,0.0,0.0,0.0,0.0,0.0,0.0,0.0,0.0,0.0,0.0,0.0,0.0,0.0,0.0,0.0,0.0,0.0,0.0,0.0,0.0,0.0,0.0,0.0,0.0,0.0,0.0,0.0,0.0,0.0,0.0,0.0,0.0,0.0,0.0,0.0,0.0,0.0,0.0,0.0,0.0,0.0,0.0,0.0,0.0,0.0,0.0,0.0,0.0,0.0,0.0,0.0,0.0,0.0,0.0,0.0,0.0,0.0,0.0,0.0,0.0,0.0,0.0,0.0,0.0,0.0,0.0,0.0,0.0,0.0,0.0,0.0,0.0,0.0,0.0,0.0,0.0,0.0,0.0,0.0,0.0,0.0,0.0,0.0,0.0,0.0,0.0,0.0,0.0,0.0,0.0,0.0,0.0,0.0,0.0,0.0,0.0,0.0,0.0,0.0,0.0,0.0,0.0,0.0,0.0,0.0,0.0,0.0,0.0,0.0,0.0,0.0,0.0,0.0,0.0,0.0,0.0,0.0,0.0,0.0,0.0,0.0,0.0,0.0,0.0,0.0,0.0,0.0,0.0,0.0,0.0,0.0,0.0,0.0,0.0,0.0,0.0,0.0,0.0,0.0,0.0,0.0,0.0,0.0,0.0,0.0,0.0,0.0,0.0,0.0,0.0,0.0,0.0,0.0,0.0,-0.5269,0.0,0.0,0.0,0.0,0.0,0.0,0.0,0.0,0.0,0.0,0.0,0.0,0.0,0.0,0.0,0.0,0.0,0.0,0.0,0.0,0.0,0.0,0.0,0.0,0.0,0.0,0.0,0.0,0.0,0.0,0.0,0.0,0.0,0.0,0.0,0.0,0.0,0.0,0.0,0.0,0.0,0.0,0.0,0.0,0.0,0.0,0.0,0.0,0.0,0.0,0.0,0.0,0.0,0.0,0.0,0.0,0.0,0.0,0.0,0.0,0.0,0.0,0.0,0.0,0.0,0.0,0.0,0.0,0.0,0.0,0.0,0.0,0.0,0.0,0.0,0.0,0.0,0.0,0.0,0.0,0.0,0.0,0.0,0.0,0.0,0.0,0.0,0.0,0.0,0.0,0.0,0.0,0.0,0.0,0.0,0.0,0.0,0.0,0.0,0.0,0.0,0.0,0.0,0.0,0.0,0.0,0.0,0.0,0.0,0.0,-0.747,-0.7491,-0.7072,-0.65,-0.5771,0.0,0.0,0.0,0.0,0.0,0.0,0.0,0.0,0.0,0.0,0.0,0.0,0.0,0.0,0.0,0.0,0.0,0.0,0.0,0.0,0.0,0.0,0.0,0.0,0.0,0.0,0.0,0.0,0.0,0.0,0.0,0.0,0.0,0.0,0.0,0.0,0.0,0.0,0.0,0.0,0.0,0.0,0.0,0.0,0.0,0.0,0.0,0.0,0.0,0.0,0.0,0.0,0.0,0.0,0.0,0.0,0.0,0.0,0.0,0.0,0.0,0.0,0.0,0.0,0.0,0.0,0.0,0.0,0.0,0.0,0.0,0.0,0.0,0.0,0.0,0.0,0.0,0.0,0.0,0.0,0.0,0.0,0.0,0.0,0.0,0.0,0.0,0.0,0.0,0.0,0.0,0.0,0.0,0.0,0.0,0.0,0.0,0.0,0.0,0.0,0.0,0.0,0.0,0.0,0.0,0.0,0.0,0.0,0.0,0.0,0.0,0.0,-0.719,-0.6769,-0.6615,0.0,0.0,0.0,0.0,0.0,0.0,0.0,0.0,0.0,0.0,0.0,0.0,0.0,0.0,0.0,0.0,0.0,0.0,0.0,0.0,0.0,0.0,0.0,0.0,0.0,0.0,0.0,0.0,0.0,0.0,0.0,0.0,0.0,0.0,0.0,0.0,0.0,0.0,0.0,0.0,0.0,0.0,0.0,0.0,0.0,0.0,0.0,0.0,0.0,0.0,0.0,0.0,0.0,0.0,0.0,0.0,0.0,0.0,0.0,0.0,0.0,0.0,0.0,0.0,0.0,0.0,0.0,0.0,0.0,0.0,0.0,0.0,0.0,0.0,0.0,0.0,0.0,0.0,0.0,0.0,0.0,0.0,0.0,0.0,0.0,0.0,0.0,0.0,0.0,0.0,0.0,0.0,0.0,0.0,0.0,0.0,0.0,0.0,0.0,0.0,0.0,0.0,0.0,0.0,0.0,0.0,0.0,0.0,0.0,0.0,-0.7065,-0.8626,-0.8586,0.0,-0.7604,0.0,0.0,0.0,0.0,0.0,0.0,0.0,0.0,0.0,0.0,0.0,0.0,0.0,0.0,0.0,0.0,0.0,0.0,0.0,0.0,0.0,0.0,0.0,0.0,0.0,0.0,0.0,0.0,0.0,0.0,0.0,0.0,0.0,0.0,0.0,0.0,0.0,0.0,0.0,0.0,0.0,0.0,0.0,0.0,0.0,0.0,0.0,0.0,0.0,0.0,0.0,0.0,0.0,0.0,0.0,0.0,0.0,0.0,0.0,0.0,0.0,0.0,0.0,0.0,0.0,0.0,0.0,0.0,0.0,0.0,0.0,0.0,0.0,0.0,0.0,0.0,0.0,0.0,0.0,0.0,0.0,0.0,0.0,0.0,0.0,0.0,0.0,0.0,0.0,0.0,0.0,0.0,0.0,0.0,0.0,0.0,0.0,0.0,0.0,0.0,0.0,0.0,0.0,0.0,0.0,0.0,0.0,0.0,0.0,0.0,0.0,-0.8078,-0.8068,-0.8116,0.0,0.0,0.0,0.0,0.0,0.0,0.0,0.0,0.0,0.0,0.0,0.0,0.0,0.0,0.0,0.0,0.0,0.0,0.0,0.0,0.0,0.0,0.0,0.0,0.0,0.0,0.0,0.0,0.0,0.0,0.0,0.0,0.0,0.0,0.0,0.0,0.0,0.0,0.0,0.0,0.0,0.0,0.0,0.0,0.0,0.0,0.0,0.0,0.0,0.0,0.0,0.0,0.0,0.0,0.0,0.0,0.0,0.0,0.0,0.0,0.0,0.0,0.0,0.0,0.0,0.0,0.0,0.0,0.0,0.0,0.0,0.0,0.0,0.0,0.0,0.0,0.0,0.0,0.0,0.0,0.0,0.0,0.0,0.0,0.0,0.0,0.0,0.0,0.0,0.0,0.0,0.0,0.0,0.0,0.0,0.0,0.0,0.0,0.0,0.0,0.0,0.0,0.0,0.0,0.0,0.0,0.0,0.0,0.0,0.0,-0.719,0.0,-0.8257,-0.8234,-0.8404,-0.8782,0.0,0.0,0.0,0.0,0.0,0.0,0.0,0.0,0.0,0.0,0.0,0.0,0.0,0.0,0.0,0.0,0.0,0.0,0.0,0.0,0.0,0.0,0.0,0.0,0.0,0.0,0.0,0.0,0.0,0.0,0.0,0.0,0.0,0.0,0.0,0.0,0.0,0.0,0.0,0.0,0.0,0.0,0.0,0.0,0.0,0.0,0.0,0.0,0.0,0.0,0.0,0.0,0.0,0.0,0.0,0.0,0.0,0.0,0.0,0.0,0.0,0.0,0.0,0.0,0.0,0.0,0.0,0.0,0.0,0.0,0.0,0.0,0.0,0.0,0.0,0.0,0.0,0.0,0.0,0.0,0.0,0.0,0.0,0.0,0.0,0.0,0.0,0.0,0.0,0.0,0.0,0.0,0.0,0.0,0.0,0.0,0.0,0.0,0.0,0.0,0.0,0.0,0.0,0.0,0.0,0.0,0.0,0.0,0.0,-0.8343,-0.8374,-0.9941,-0.9982,-0.9614,0.0,0.0,0.0,0.0,0.0,0.0,0.0,0.0,0.0,0.0,0.0,0.0,0.0,0.0,0.0,0.0,0.0,0.0,0.0,0.0,0.0,0.0,0.0,0.0,0.0,0.0,0.0,0.0,0.0,0.0,0.0,0.0,0.0,0.0,0.0,0.0,0.0,0.0,0.0,0.0,0.0,0.0,0.0,0.0,0.0,0.0,0.0,0.0,0.0,0.0,0.0,0.0,0.0,0.0,0.0,0.0,0.0,0.0,0.0,0.0,0.0,0.0,0.0,0.0,0.0,0.0,0.0,0.0,0.0,0.0,0.0,0.0,0.0,0.0,0.0,0.0,0.0,0.0,0.0,0.0,0.0,0.0,0.0,0.0,0.0,0.0,0.0,0.0,0.0,0.0,0.0,0.0,0.0,0.0,0.0,0.0,0.0,0.0,0.0,0.0,0.0,0.0,0.0,0.0,0.0,0.0,0.0,0.0,0.0,-0.678,-0.7327,-0.8926,-1.1501,-1.0125,-0.9631,0.0,0.0,0.0,0.0,0.0,0.0,0.0,0.0,0.0,0.0,0.0,0.0,0.0,0.0,0.0,0.0,0.0,0.0,0.0,0.0,0.0,0.0,0.0,0.0,0.0,0.0,0.0,0.0,0.0,0.0,0.0,0.0,0.0,0.0,0.0,0.0,0.0,0.0,0.0,0.0,0.0,0.0,0.0,0.0,0.0,0.0,0.0,0.0,0.0,0.0,0.0,0.0,0.0,0.0,0.0,0.0,0.0,0.0,0.0,0.0,0.0,0.0,0.0,0.0,0.0,0.0,0.0,0.0,0.0,0.0,0.0,0.0,0.0,0.0,0.0,0.0,0.0,0.0,0.0,0.0,0.0,0.0,0.0,0.0,0.0,0.0,0.0,0.0,0.0,0.0,0.0,0.0,0.0,0.0,0.0,0.0,0.0,0.0,0.0,0.0,0.0,0.0,0.0,0.0,0.0,0.0,0.0,0.0,0.0,-0.7081,0.0,-1.0354,0.0,-1.0648,-1.0056,0.0,0.0,0.0,0.0,0.0,0.0,0.0,0.0,0.0,0.0,0.0,0.0,0.0,0.0,0.0,0.0,0.0,0.0,0.0,0.0,0.0,0.0,0.0,0.0,0.0,0.0,0.0,0.0,0.0,0.0,0.0,0.0,0.0,0.0,0.0,0.0,0.0,0.0,0.0,0.0,0.0,0.0,0.0,0.0,0.0,0.0,0.0,0.0,0.0,0.0,0.0,0.0,0.0,0.0,0.0,0.0,0.0,0.0,0.0,0.0,0.0,0.0,0.0,0.0,0.0,0.0,0.0,0.0,0.0,0.0,0.0,0.0,0.0,0.0,0.0,0.0,0.0,0.0,0.0,0.0,0.0,0.0,0.0,0.0,0.0,0.0,0.0,0.0,0.0,0.0,0.0,0.0,0.0,0.0,0.0,0.0,0.0,0.0,0.0,0.0,0.0,0.0,0.0,0.0,0.0,0.0,0.0,0.0,0.0,-1.1141,-1.2787,-1.2453,-1.0289,-1.1608,-1.0914,0.0,0.0,0.0,0.0,0.0,0.0,0.0,0.0,0.0,0.0,0.0,0.0,0.0,0.0,0.0,0.0,0.0,0.0,0.0,0.0,0.0,0.0,0.0,0.0,0.0,0.0,0.0,0.0,0.0,0.0,0.0,0.0,0.0,0.0,0.0,0.0,0.0,0.0,0.0,0.0,0.0,0.0,0.0,0.0,0.0,0.0,0.0,0.0,0.0,0.0,0.0,0.0,0.0,0.0,0.0,0.0,0.0,0.0,0.0,0.0,0.0,0.0,0.0,0.0,0.0,0.0,0.0,0.0,0.0,0.0,0.0,0.0,0.0,0.0,0.0,0.0,0.0,0.0,0.0,0.0,0.0,0.0,0.0,0.0,0.0,0.0,0.0,0.0,0.0,0.0,0.0,0.0,0.0,0.0,0.0,0.0,0.0,0.0,0.0,0.0,0.0,0.0,0.0,0.0,0.0,0.0,0.0,0.0,0.0,-0.8836,-1.0407,-1.147,-1.1783,-1.0615,-1.0036,0.0,0.0,0.0,0.0,0.0,0.0,0.0,0.0,0.0,0.0,0.0,0.0,0.0,0.0,0.0,0.0,0.0,0.0,0.0,0.0,0.0,0.0,0.0,0.0,0.0,0.0,0.0,0.0,0.0,0.0,0.0,0.0,0.0,0.0,0.0,0.0,0.0,0.0,0.0,0.0,0.0,0.0,0.0,0.0,0.0,0.0,0.0,0.0,0.0,0.0,0.0,0.0,0.0,0.0,0.0,0.0,0.0,0.0,0.0,0.0,0.0,0.0,0.0,0.0,0.0,0.0,0.0,0.0,0.0,0.0,0.0,0.0,0.0,0.0,0.0,0.0,0.0,0.0,0.0,0.0,0.0,0.0,0.0,0.0,0.0,0.0,0.0,0.0,0.0,0.0,0.0,0.0,0.0,0.0,0.0,0.0,0.0,0.0,0.0,0.0,0.0,0.0,0.0,0.0,0.0,0.0,0.0,0.0,0.0,-1.0109,-1.1606,-1.2516,-1.2594,-1.1662,-1.0907,-1.0371,0.0,0.0,0.0,0.0,0.0,0.0,0.0,0.0,0.0,0.0,0.0,0.0,0.0,0.0,0.0,0.0,0.0,0.0,0.0,0.0,0.0,0.0,0.0,0.0,0.0,0.0,0.0,0.0,0.0,0.0,0.0,0.0,0.0,0.0,0.0,0.0,0.0,0.0,0.0,0.0,0.0,0.0,0.0,0.0,0.0,0.0,0.0,0.0,0.0,0.0,0.0,0.0,0.0,0.0,0.0,0.0,0.0,0.0,0.0,0.0,0.0,0.0,0.0,0.0,0.0,0.0,0.0,0.0,0.0,0.0,0.0,0.0,0.0,0.0,0.0,0.0,0.0,0.0,0.0,0.0,0.0,0.0,0.0,0.0,0.0,0.0,0.0,0.0,0.0,0.0,0.0,0.0,0.0,0.0,0.0,0.0,0.0,0.0,0.0,0.0,0.0,0.0,0.0,0.0,0.0,0.0,0.0,0.0,-1.3876,-1.5731,-1.5491,-1.3048,-1.4307,-1.3202,0.0,0.0,0.0,0.0,0.0,0.0,0.0,0.0,0.0,0.0,0.0,0.0,0.0,0.0,0.0,0.0,0.0,0.0,0.0,0.0,0.0,0.0,0.0,0.0,0.0,0.0,0.0,0.0,0.0,0.0,0.0,0.0,0.0,0.0,0.0,0.0,0.0,0.0,0.0,0.0,0.0,0.0,0.0,0.0,0.0,0.0,0.0,0.0,0.0,0.0,0.0,0.0,0.0,0.0,0.0,0.0,0.0,0.0,0.0,0.0,0.0,0.0,0.0,0.0,0.0,0.0,0.0,0.0,0.0,0.0,0.0,0.0,0.0,0.0,0.0,0.0,0.0,0.0,0.0,0.0,0.0,0.0,0.0,0.0,0.0,0.0,0.0,0.0,0.0,0.0,0.0,0.0,0.0,0.0,0.0,0.0,0.0,0.0,0.0,0.0,0.0,0.0,0.0,0.0,0.0,0.0,0.0,0.0,0.0,-1.4012,-1.7406,-1.8377,-1.6416,-1.5004,-1.3421,0.0,0.0,0.0,0.0,0.0,0.0,0.0,0.0,0.0,0.0,0.0,0.0,0.0,0.0,0.0,0.0,0.0,0.0,0.0,0.0,0.0,0.0,0.0,0.0,0.0,0.0,0.0,0.0,0.0,0.0,0.0,0.0,0.0,0.0,0.0,0.0,0.0,0.0,0.0,0.0,0.0,0.0,0.0,0.0,0.0,0.0,0.0,0.0,0.0,0.0,0.0,0.0,0.0,0.0,0.0,0.0,0.0,0.0,0.0,0.0,0.0,0.0,0.0,0.0,0.0,0.0,0.0,0.0,0.0,0.0,0.0,0.0,0.0,0.0,0.0,0.0,0.0,0.0,0.0,0.0,0.0,0.0,0.0,0.0,0.0,0.0,0.0,0.0,0.0,0.0,0.0,0.0,0.0,0.0,0.0,0.0,0.0,0.0,0.0,0.0,0.0,0.0,0.0,0.0,0.0,0.0,0.0,0.0,-1.6036,-1.5442,-1.8873,-1.9952,-1.8278,-1.6458,-1.4579,0.0,0.0,0.0,0.0,0.0,0.0,0.0,0.0,0.0,0.0,0.0,0.0,0.0,0.0,0.0,0.0,0.0,0.0,0.0,0.0,0.0,0.0,0.0,0.0,0.0,0.0,0.0,0.0,0.0,0.0,0.0,0.0,0.0,0.0,0.0,0.0,0.0,0.0,0.0,0.0,0.0,0.0,0.0,0.0,0.0,0.0,0.0,0.0,0.0,0.0,0.0,0.0,0.0,0.0,0.0,0.0,0.0,0.0,0.0,0.0,0.0,0.0,0.0,0.0,0.0,0.0,0.0,0.0,0.0,0.0,0.0,0.0,0.0,0.0,0.0,0.0,0.0,0.0,0.0,0.0,0.0,0.0,0.0,0.0,0.0,0.0,0.0,0.0,0.0,0.0,0.0,0.0,0.0,0.0,0.0,0.0,0.0,0.0,0.0,0.0,0.0,0.0,0.0,0.0,0.0,0.0,0.0,0.0,-1.686,-1.7592,-2.0289,-2.0838,-1.9073,-1.833,-1.6317,0.0,0.0,0.0,0.0,0.0,0.0,0.0,0.0,0.0,0.0,0.0,0.0,0.0,0.0,0.0,0.0,0.0,0.0,0.0,0.0,0.0,0.0,0.0,0.0,0.0,0.0,0.0,0.0,0.0,0.0,0.0,0.0,0.0,0.0,0.0,0.0,0.0,0.0,0.0,0.0,0.0,0.0,0.0,0.0,0.0,0.0,0.0,0.0,0.0,0.0,0.0,0.0,0.0,0.0,0.0,0.0,0.0,0.0,0.0,0.0,0.0,0.0,0.0,0.0,0.0,0.0,0.0,0.0,0.0,0.0,0.0,0.0,0.0,0.0,0.0,0.0,0.0,0.0,0.0,0.0,0.0,0.0,0.0,0.0,0.0,0.0,0.0,0.0,0.0,0.0,0.0,0.0,0.0,0.0,0.0,0.0,0.0,0.0,0.0,0.0,0.0,0.0,0.0,0.0,0.0,0.0,0.0,0.0,-1.8681,-1.7634,-2.2063,-2.2681,-1.9022,-1.9454,-1.7813,0.0,0.0,0.0,0.0,0.0,0.0,0.0,0.0,0.0,0.0,0.0,0.0,0.0,0.0,0.0,0.0,0.0,0.0,0.0,0.0,0.0,0.0,0.0,0.0,0.0,0.0,0.0,0.0,0.0,0.0,0.0,0.0,0.0,0.0,0.0,0.0,0.0,0.0,0.0,0.0,0.0,0.0,0.0,0.0,0.0,0.0,0.0,0.0,-0.5089,0.0,0.0,0.0,0.0,0.0,0.0,0.0,0.0,0.0,0.0,0.0,0.0,0.0,0.0,0.0,0.0,0.0,0.0,0.0,0.0,0.0,0.0,0.0,0.0,0.0,0.0,0.0,0.0,0.0,0.0,0.0,0.0,0.0,0.0,0.0,0.0,0.0,0.0,0.0,0.0,0.0,0.0,0.0,0.0,0.0,0.0,0.0,0.0,0.0,0.0,0.0,0.0,0.0,0.0,0.0,0.0,0.0,0.0,0.0,-1.98,-1.8682,-2.2783,-2.302,-1.9083,-2.0389,-1.9068,0.0,0.0,0.0,0.0,0.0,0.0,0.0,0.0,0.0,0.0,0.0,0.0,0.0,0.0,0.0,0.0,0.0,0.0,0.0,0.0,0.0,0.0,0.0,0.0,0.0,0.0,0.0,0.0,0.0,0.0,0.0,0.0,0.0,0.0,0.0,0.0,0.0,0.0,0.0,0.0,0.0,0.0,0.0,0.0,0.0,0.0,0.0,0.0,0.0,0.0,0.0,0.0,0.0,0.0,0.0,0.0,0.0,0.0,0.0,0.0,0.0,0.0,0.0,0.0,0.0,0.0,0.0,0.0,0.0,0.0,0.0,0.0,0.0,0.0,0.0,0.0,0.0,0.0,0.0,0.0,0.0,0.0,0.0,0.0,0.0,0.0,0.0,0.0,0.0,0.0,0.0,0.0,0.0,0.0,0.0,0.0,0.0,0.0,0.0,0.0,0.0,0.0,0.0,0.0,0.0,0.0,0.0,-1.8353,-2.0413,-2.0039,-2.3058,-2.2919,-1.9241,-2.1141,-2.0011,-1.5254,0.0,0.0,0.0,0.0,0.0,0.0,0.0,0.0,0.0,0.0,0.0,0.0,0.0,0.0,0.0,0.0,0.0,0.0,0.0,0.0,0.0,0.0,0.0,0.0,0.0,0.0,0.0,0.0,0.0,0.0,0.0,0.0,0.0,0.0,0.0,0.0,0.0,0.0,-0.506,-0.5249,0.0,0.0,0.0,0.0,0.0,0.0,0.0,0.0,-0.5269,0.0,0.0,0.0,0.0,0.0,0.0,0.0,0.0,0.0,0.0,0.0,0.0,0.0,0.0,0.0,0.0,0.0,0.0,0.0,0.0,0.0,0.0,0.0,0.0,0.0,0.0,0.0,0.0,0.0,0.0,0.0,0.0,0.0,0.0,0.0,0.0,0.0,0.0,0.0,0.0,0.0,0.0,0.0,0.0,0.0,0.0,0.0,0.0,0.0,0.0,0.0,0.0,0.0,0.0,0.0,0.0,-1.5481,-1.8434,-2.0233,-2.0809,-2.3458,-2.351,-2.0785,-2.1642,-2.0144,-1.5932,0.0,0.0,0.0,0.0,0.0,0.0,0.0,0.0,0.0,0.0,0.0,0.0,0.0,0.0,0.0,0.0,0.0,0.0,0.0,0.0,0.0,0.0,0.0,0.0,0.0,0.0,0.0,0.0,0.0,0.0,0.0,0.0,0.0,0.0,0.0,0.0,0.0,0.0,0.0,-0.5924,-0.6173,0.0,0.0,0.0,0.0,0.0,0.0,0.0,0.0,-0.5343,0.0,0.0,0.0,0.0,0.0,0.0,0.0,0.0,0.0,0.0,0.0,0.0,0.0,0.0,0.0,0.0,0.0,0.0,0.0,0.0,0.0,0.0,0.0,0.0,0.0,0.0,0.0,0.0,0.0,0.0,0.0,0.0,0.0,0.0,0.0,0.0,0.0,0.0,0.0,0.0,0.0,0.0,0.0,0.0,0.0,0.0,0.0,0.0,0.0,0.0,0.0,0.0,0.0,0.0,0.0,-1.5969,-1.9224,-2.1132,-2.1561,-2.3143,-2.3038,-2.0989,-2.0835,-1.9252,0.0,0.0,0.0,0.0,0.0,0.0,0.0,0.0,0.0,0.0,0.0,0.0,0.0,0.0,0.0,0.0,0.0,0.0,0.0,0.0,0.0,0.0,0.0,0.0,0.0,0.0,0.0,0.0,0.0,0.0,0.0,0.0,0.0,0.0,0.0,0.0,0.0,0.0,0.0,0.0,-0.6464,-0.6386,-0.5269,0.0,0.0,0.0,0.0,0.0,0.0,-0.6987,-0.6575,0.0,0.0,0.0,0.0,0.0,0.0,0.0,0.0,0.0,0.0,0.0,0.0,0.0,0.0,0.0,0.0,0.0,0.0,0.0,0.0,0.0,0.0,0.0,0.0,0.0,0.0,0.0,0.0,0.0,0.0,0.0,0.0,0.0,0.0,0.0,0.0,0.0,0.0,0.0,0.0,0.0,0.0,0.0,0.0,0.0,0.0,0.0,0.0,0.0,0.0,0.0,0.0,0.0,0.0,0.0,-1.6223,-1.9861,-2.1848,-2.2015,-2.2776,-2.2516,-2.1068,-2.0044,-1.8355,0.0,0.0,0.0,0.0,0.0,0.0,0.0,0.0,0.0,0.0,0.0,0.0,0.0,0.0,0.0,0.0,0.0,0.0,0.0,0.0,0.0,0.0,0.0,0.0,0.0,0.0,0.0,0.0,0.0,0.0,0.0,0.0,0.0,0.0,0.0,0.0,0.0,0.0,0.0,0.0,0.0,-0.6827,-0.577,-0.6905,0.0,0.0,0.0,0.0,-0.8854,-0.8388,0.0,0.0,0.0,0.0,0.0,0.0,0.0,0.0,0.0,0.0,0.0,0.0,0.0,0.0,0.0,0.0,0.0,0.0,0.0,0.0,0.0,0.0,0.0,0.0,0.0,0.0,0.0,0.0,0.0,0.0,0.0,0.0,0.0,0.0,0.0,0.0,0.0,0.0,0.0,0.0,0.0,0.0,0.0,0.0,0.0,0.0,0.0,0.0,0.0,0.0,0.0,0.0,0.0,0.0,0.0,0.0,-1.6966,-1.9564,-2.1298,-2.1996,-2.2776,-2.2776,-2.1866,-2.0341,-1.8348,0.0,0.0,0.0,0.0,0.0,0.0,0.0,0.0,0.0,0.0,0.0,0.0,0.0,0.0,0.0,0.0,0.0,0.0,0.0,0.0,0.0,0.0,0.0,0.0,0.0,0.0,0.0,0.0,0.0,0.0,0.0,0.0,0.0,0.0,0.0,0.0,0.0,0.0,0.0,0.0,0.0,-0.8345,-0.7449,-0.7933,-0.9719,0.0,0.0,0.0,-1.2463,-1.0631,0.0,0.0,0.0,0.0,0.0,0.0,0.0,0.0,0.0,0.0,0.0,0.0,0.0,0.0,0.0,0.0,0.0,0.0,0.0,0.0,0.0,0.0,0.0,0.0,0.0,0.0,0.0,0.0,0.0,0.0,0.0,0.0,0.0,0.0,0.0,0.0,0.0,0.0,0.0,0.0,0.0,0.0,0.0,0.0,0.0,0.0,0.0,0.0,0.0,0.0,0.0,0.0,0.0,0.0,0.0,-1.5152,-1.7108,-1.9998,-2.1643,-2.1977,-2.233,-2.2349,-2.1996,-1.9495,-1.7398,0.0,0.0,0.0,0.0,0.0,0.0,0.0,0.0,0.0,0.0,0.0,0.0,0.0,0.0,0.0,0.0,0.0,0.0,0.0,0.0,0.0,0.0,0.0,0.0,0.0,0.0,0.0,0.0,0.0,0.0,0.0,0.0,0.0,0.0,0.0,0.0,0.0,0.0,0.0,0.0,0.0,0.0,-0.9154,-1.0077,0.0,0.0,0.0,-1.1964,-1.3428,0.0,0.0,0.0,0.0,0.0,0.0,0.0,0.0,0.0,0.0,0.0,0.0,0.0,0.0,0.0,0.0,0.0,0.0,0.0,0.0,0.0,0.0,0.0,0.0,0.0,0.0,0.0,0.0,0.0,0.0,0.0,0.0,0.0,0.0,0.0,0.0,0.0,0.0,0.0,0.0,0.0,0.0,0.0,0.0,0.0,0.0,0.0,0.0,0.0,0.0,0.0,0.0,0.0,0.0,0.0,0.0,0.0,-1.7114,-2.0325,-2.1903,-2.1718,-2.1885,-2.1885,-2.1636,-1.8697,0.0,0.0,0.0,0.0,0.0,0.0,0.0,0.0,0.0,0.0,0.0,0.0,0.0,0.0,0.0,0.0,0.0,0.0,0.0,0.0,0.0,0.0,0.0,0.0,0.0,0.0,0.0,-0.0789,0.0,0.0,0.0,0.0,0.0,0.0,0.0,0.0,0.0,0.0,0.0,0.0,0.0,0.0,-1.1483,-1.0848,-1.1754,-1.3194,0.0,0.0,-1.3735,-1.4038,-1.3048,-1.2172,0.0,0.0,0.0,0.0,0.0,0.0,0.0,0.0,0.0,0.0,0.0,0.0,0.0,0.0,0.0,0.0,0.0,0.0,0.0,0.0,0.0,0.0,0.0,0.0,0.0,0.0,0.0,0.0,0.0,0.0,0.0,0.0,0.0,0.0,0.0,0.0,0.0,0.0,0.0,0.0,0.0,0.0,0.0,0.0,0.0,0.0,0.0,0.0,0.0,0.0,0.0,0.0,0.0,0.0,0.0,-1.7151,-2.0344,-2.1625,-2.0919,-2.1625,-2.1609,-2.0752,-1.8342,-1.6282,0.0,0.0,0.0,0.0,0.0,0.0,0.0,0.0,0.0,0.0,0.0,0.0,0.0,0.0,0.0,0.0,0.0,0.0,0.0,0.0,0.0,0.0,0.0,0.0,0.0,0.0,0.0,0.0,0.0,0.0,0.0,0.0,0.0,0.0,0.0,0.0,0.0,0.0,0.0,0.0,0.0,-1.1678,-1.2433,-1.2185,-1.2754,0.0,0.0,-1.404,-1.5023,-1.4455,-1.3639,-1.2837,0.0,0.0,0.0,0.0,0.0,0.0,0.0,0.0,0.0,0.0,0.0,0.0,0.0,0.0,0.0,0.0,0.0,0.0,0.0,0.0,0.0,0.0,0.0,0.0,0.0,0.0,0.0,0.0,0.0,0.0,0.0,0.0,0.0,0.0,0.0,0.0,0.0,0.0,0.0,0.0,0.0,0.0,0.0,0.0,0.0,0.0,0.0,0.0,0.0,0.0,0.0,0.0,0.0,-1.5486,-1.7096,-1.9843,-2.1105,-2.0827,-2.1087,-2.1105,-2.0756,-1.8362,-1.6522,0.0,0.0,0.0,0.0,0.0,0.0,0.0,0.0,0.0,0.0,0.0,0.0,0.0,0.0,0.0,0.0,0.0,0.0,0.0,0.0,0.0,0.0,0.0,0.0,0.0,0.0,0.0,0.0,-0.6023,-0.6233,-0.5214,0.0,0.0,0.0,0.0,0.0,0.0,0.0,0.0,0.0,0.0,-1.2706,-1.4097,-1.349,0.0,0.0,-1.3065,-1.3058,-1.4348,-1.3431,-1.2605,-1.2762,-1.1686,0.0,0.0,0.0,0.0,0.0,0.0,0.0,0.0,0.0,0.0,0.0,0.0,0.0,0.0,0.0,0.0,0.0,0.0,0.0,0.0,0.0,0.0,0.0,0.0,0.0,0.0,0.0,0.0,0.0,0.0,0.0,0.0,0.0,0.0,0.0,0.0,0.0,0.0,0.0,0.0,0.0,0.0,0.0,0.0,0.0,0.0,0.0,0.0,0.0,0.0,0.0,0.0,-1.5486,-1.7096,-1.9546,-2.0686,-2.0437,-2.0667,-2.0678,-2.0374,-1.8466,-1.6923,0.0,0.0,0.0,0.0,0.0,0.0,0.0,0.0,0.0,0.0,0.0,0.0,0.0,0.0,0.0,0.0,0.0,0.0,0.0,0.0,0.0,0.0,0.0,0.0,0.0,0.0,0.0,0.0,-0.6345,-0.6389,-0.5233,0.0,0.0,0.0,0.0,0.0,0.0,0.0,0.0,0.0,0.0,-1.2845,-1.4299,-1.3951,-1.3349,-1.2781,-1.2819,-1.328,-1.4294,-1.3495,-1.2842,-1.3135,0.0,0.0,0.0,0.0,0.0,0.0,0.0,0.0,0.0,0.0,0.0,0.0,0.0,0.0,0.0,0.0,0.0,0.0,0.0,0.0,0.0,0.0,0.0,0.0,0.0,0.0,0.0,0.0,0.0,0.0,-0.919,0.0,0.0,0.0,0.0,0.0,0.0,0.0,0.0,0.0,0.0,0.0,0.0,0.0,0.0,0.0,0.0,0.0,0.0,0.0,0.0,0.0,0.0,0.0,-1.7096,-1.9509,-2.0418,-1.9694,-2.0381,-2.0385,-1.9566,-1.8636,-1.7438,-1.5827,0.0,0.0,0.0,0.0,0.0,0.0,0.0,0.0,0.0,0.0,0.0,0.0,0.0,0.0,0.0,0.0,0.0,0.0,0.0,0.0,0.0,0.0,0.0,0.0,0.0,0.0,-0.6613,-0.5766,-0.5175,0.0,0.0,0.0,0.0,0.0,0.0,0.0,0.0,0.0,0.0,-1.1968,-1.1755,-1.2668,-1.3242,-1.3406,-1.2849,-1.412,-1.5173,-1.5197,-1.5223,-1.505,0.0,0.0,0.0,0.0,0.0,0.0,0.0,0.0,0.0,0.0,0.0,0.0,0.0,0.0,0.0,0.0,0.0,0.0,0.0,0.0,0.0,0.0,0.0,0.0,0.0,0.0,0.0,-1.5799,-1.4568,0.0,0.0,0.0,0.0,0.0,0.0,0.0,0.0,0.0,0.0,0.0,-1.7073,-1.7555,0.0,0.0,0.0,0.0,0.0,0.0,0.0,0.0,0.0,0.0,0.0,0.0,-1.544,-1.7096,-1.8978,-1.9822,-1.9538,-1.9797,-1.9797,-1.9512,-1.8663,-1.7172,-1.5,0.0,0.0,0.0,0.0,0.0,0.0,0.0,0.0,0.0,0.0,0.0,0.0,0.0,0.0,0.0,0.0,0.0,0.0,0.0,0.0,0.0,0.0,0.0,0.0,0.0,-0.6321,0.0,0.0,0.0,0.0,0.0,0.0,0.0,0.0,0.0,0.0,0.0,-1.2344,-1.2642,-1.2755,-1.2791,-1.2702,-1.3174,-1.374,0.0,0.0,0.0,0.0,0.0,0.0,0.0,0.0,0.0,0.0,0.0,0.0,0.0,0.0,-1.368,-1.3712,-1.1616,-0.9863,-0.9861,0.0,0.0,0.0,0.0,0.0,0.0,0.0,0.0,0.0,0.0,0.0,0.0,0.0,0.0,0.0,0.0,-1.802,0.0,0.0,0.0,0.0,0.0,0.0,0.0,0.0,-1.8517,-1.9269,-1.9751,-1.9993,-1.9895,0.0,-1.8457,-1.6939,0.0,0.0,0.0,0.0,0.0,0.0,0.0,0.0,-1.5757,-1.7297,-1.8758,-1.9505,-1.9505,-1.953,-1.949,-1.9368,-1.8294,-1.6751,-1.4816,-1.3183,-1.1833,0.0,0.0,0.0,0.0,0.0,0.0,0.0,0.0,0.0,0.0,0.0,0.0,0.0,0.0,0.0,0.0,0.0,0.0,0.0,0.0,0.0,0.0,0.0,-0.6519,0.0,0.0,0.0,0.0,0.0,0.0,0.0,0.0,0.0,-0.9808,-1.1652,-1.3154,-1.3524,-1.3176,-1.2923,-1.2967,0.0,0.0,0.0,0.0,0.0,0.0,0.0,-1.4845,-1.5368,-1.5018,-1.4438,-1.3875,-1.284,-1.2334,-1.3038,0.0,0.0,-1.5416,-1.3353,-1.1621,-1.1619,-1.1345,-1.1355,-1.2225,-1.3134,-1.3849,0.0,0.0,0.0,0.0,0.0,0.0,0.0,0.0,-2.1709,-2.1787,0.0,-2.0437,0.0,0.0,0.0,0.0,0.0,0.0,0.0,0.0,-2.1975,-2.2746,-2.2699,-2.2056,-2.1711,-2.1699,-2.1608,-2.0803,-1.9228,-1.5836,0.0,0.0,0.0,0.0,0.0,0.0,-1.646,-1.7719,-1.8911,-1.9512,-1.9527,-1.9533,-1.9439,-1.9165,-1.7577,-1.6233,-1.5269,-1.3873,-1.2315,-1.0568,-0.9723,0.0,0.0,0.0,0.0,0.0,0.0,0.0,0.0,0.0,0.0,0.0,0.0,0.0,0.0,0.0,0.0,0.0,0.0,0.0,0.0,-0.6485,0.0,0.0,0.0,0.0,0.0,0.0,0.0,0.0,0.0,0.0,-1.1658,-1.1637,-1.2466,-1.4865,0.0,0.0,0.0,0.0,-1.4423,-1.6599,-1.676,-1.6899,-1.773,-1.7839,-1.7852,-1.7933,0.0,0.0,-1.5698,-1.5397,-1.4951,-1.3972,-1.4677,-1.5421,-1.5421,-1.4702,-1.4061,-1.4061,-1.3406,-1.3209,-1.3898,-1.41,-1.4372,-2.8631,0.0,0.0,0.0,0.0,-2.3556,-2.4262,-2.5095,-2.5087,-2.446,-2.3437,-2.3081,0.0,0.0,0.0,0.0,0.0,0.0,-2.1613,-2.2806,-2.3285,-2.3784,-2.4319,-2.4143,-2.4022,-2.3988,-2.2905,-2.2164,-2.1647,-1.9578,-1.7078,-1.4315,0.0,0.0,0.0,0.0,-1.7467,-1.8419,-1.9336,-1.9777,-1.9795,-1.9298,-1.8982,-1.8895,-1.7253,-1.626,-1.6043,-1.4481,-1.3165,-1.2216,-1.0889,0.0,0.0,0.0,0.0,0.0,0.0,0.0,0.0,0.0,0.0,0.0,0.0,0.0,0.0,0.0,0.0,0.0,0.0,0.0,-0.6882,-0.8072,-0.8266,0.0,0.0,0.0,0.0,0.0,0.0,0.0,0.0,0.0,-1.4003,-1.4676,-1.5077,0.0,0.0,-1.5692,-1.4846,-1.5734,-1.6734,-1.7372,0.0,0.0,0.0,-1.7827,-1.7847,-1.7855,-1.7365,-1.6808,-1.6325,-1.5794,-1.5295,-1.496,-1.5157,-1.5412,-1.5392,-1.5203,-1.5037,-1.4997,-1.4815,-1.4705,-1.4895,-1.4957,-1.5013,-3.2855,-2.9914,-2.7589,-2.6483,-2.635,-2.6763,-2.7214,-2.7702,-2.7839,-2.7289,-2.6245,-2.5878,-2.4626,-2.2742,-2.1751,0.0,0.0,0.0,-2.3267,-2.4715,-2.4715,-2.5129,-2.5868,-2.5592,-2.5436,-2.5402,-2.4181,-2.3457,-2.3112,-2.2216,-2.0142,-1.7095,0.0,0.0,-1.628,-1.7693,-1.8898,-1.9732,-2.0162,-2.0273,-2.0002,-1.9141,-1.8679,-1.8643,-1.7038,-1.6167,-1.6175,-1.4658,-1.3615,-1.3194,-1.1961,-1.0808,0.0,0.0,0.0,0.0,0.0,0.0,0.0,0.0,0.0,0.0,0.0,-0.5492,0.0,0.0,0.0,0.0,-0.6898,-0.7759,-0.8242,-0.9175,0.0,0.0,0.0,0.0,0.0,0.0,0.0,-1.5887,-1.5057,-1.4799,-1.5996,-1.6929,-1.7295,-1.6769,-1.7273,-1.7426,-1.6657,0.0,-1.8504,-1.7792,-1.8043,-1.8418,-1.8738,-1.8819,-1.8819,-1.8838,-1.8049,-1.754,-1.7582,-1.6435,-1.5569,-1.5782,-1.5647,-1.5414,-1.5413,-1.5418,-1.5407,-1.5407,-1.5403,-1.5373,-1.5302,-1.5289,-1.5289,-3.6406,-3.5856,-3.1902,-3.0123,-3.0057,-3.0632,-2.9981,-2.8702,-2.9933,-2.9887,-2.8921,-2.8586,-2.7816,-2.664,-2.4318,0.0,0.0,-2.4198,-2.4939,-2.6281,-2.623,-2.6592,-2.7247,-2.654,-2.618,-2.6163,-2.5436,-2.4698,-2.3994,-2.3871,-2.275,-2.0716,-2.0122,-1.9773,-1.9615,-1.9873,-2.0495,-2.1388,-2.1233,-2.0809,-2.0131,-1.9039,-1.8473,-1.8455,-1.6904,-1.6045,-1.5856,-1.454,-1.3718,-1.3595,-1.2853,-1.1795,-1.0453,0.0,0.0,0.0,0.0,0.0,0.0,0.0,0.0,0.0,0.0,0.0,0.0,0.0,0.0,0.0,-0.8959,0.0,-0.9986,-0.9986,0.0,0.0,0.0,-1.3582,-1.0766,-1.2981,-1.5399,-1.7168,0.0,0.0,0.0,0.0,-1.9019,-1.9092,-1.8407,-1.81,-1.8654,-1.9561,-1.9712,-1.8219,-1.8644,-1.9433,-2.0004,-2.0189,-2.0218,-2.0177,-1.9517,-1.8873,-1.8901,-1.7297,-1.6121,-1.6509,-1.6005,-1.5421,-1.5421,-1.542,-1.5406,-1.5408,-1.5404,-1.5375,-1.5314,-1.5297,-1.5315,-3.7081,-3.6217,-3.4634,-3.3372,-3.2333,-3.1661,-3.1292,-3.1087,-3.0516,-3.0186,-3.0046,-2.9108,-2.8605,-2.8403,-2.8047,-2.799,-2.8127,-2.7542,-2.7506,-2.7816,-2.7282,-2.7109,-2.7282,-2.7108,-2.7006,-2.6971,-2.623,-2.5732,-2.5491,-2.437,-2.3543,-2.2974,-2.2302,-2.1094,-1.9485,-2.0587,-2.1316,-2.1554,-2.1501,-2.0831,-1.9547,-1.8697,-1.827,-1.8243,-1.6768,-1.5936,-1.5873,-1.4433,-1.3619,-1.3562,-1.2362,-1.1512,-1.1144,-0.9158,0.0,0.0,0.0,0.0,0.0,0.0,0.0,0.0,0.0,-0.7029,-0.9515,0.0,-0.8107,0.0,-1.0046,-1.0908,-1.1558,-1.1636,0.0,0.0,-1.3476,-1.4435,-1.3704,-1.4245,-1.5335,-1.6981,-1.7549,-1.7999,-1.8457,-1.8705,-1.9145,-1.9854,-1.9808,-1.9731,-1.9904,-2.0096,-2.0173,-1.9754,-1.9827,-2.0081,-2.0242,-2.0319,-2.0329,-2.0237,-1.9577,-1.9072,-1.9124,-1.8178,-1.7255,-1.6764,-1.5985,-1.5478,-1.5414,-1.5415,-1.5422,-1.541,-1.5409,-1.5403,-1.5387,-1.5392,-1.5381,-3.7829,-3.7221,-3.6357,-3.5501,-3.4668,-3.3205,-3.2383,-3.2046,-3.1369,-3.0783,-3.0265,-2.9417,-2.9214,-2.9526,-2.9506,-2.9506,-2.9472,-2.9075,-2.8885,-2.8851,-2.8127,-2.7782,-2.7764,-2.7454,-2.7315,-2.7282,-2.6851,-2.6454,-2.6059,-2.5249,-2.4474,-2.3819,-2.3388,-2.2406,-2.0923,-2.1664,-2.2078,-2.2078,-2.1406,-2.0636,-1.9792,-1.8769,-1.8028,-1.7666,-1.6519,-1.5736,-1.5426,-1.4227,-1.3449,-1.3112,-1.2334,-1.1747,-1.1391,-0.9887,-0.8655,0.0,0.0,0.0,0.0,0.0,0.0,0.0,0.0,0.0,0.0,0.0,-0.9222,0.0,-1.136,0.0,-1.2738,-1.3091,-1.3318,-1.3309,-1.4131,-1.4706,-1.4706,-1.6001,-1.7232,-1.8098,-1.8528,-1.8881,-1.9168,-1.9316,-1.9576,-2.015,-2.0245,-2.0288,-2.0288,-2.0288,-2.0288,-2.0288,-2.0288,-2.0285,-2.0295,-2.0292,-2.03,-2.0207,-1.9889,-1.959,-1.9596,-1.8662,-1.7741,-1.7285,-1.6657,-1.5982,-1.5529,-1.5743,-1.5864,-1.5501,-1.5409,-1.5409,-1.5411,-1.5418,-1.5388,-3.8327,-3.8169,-3.7203,-3.6786,-3.6614,-3.4727,-3.3361,-3.2451,-3.2355,-3.1591,-3.0378,-2.9856,-2.9948,-3.0464,-3.0003,-2.9799,-2.9799,-2.9713,-2.9661,-2.961,-2.8782,-2.842,-2.8368,-2.7644,-2.7315,-2.7315,-2.7315,-2.6937,-2.6249,-2.6161,-2.5387,-2.4008,-2.3822,-2.344,-2.2733,-2.2712,-2.2664,-2.2543,-2.1135,-2.0343,-2.0239,-1.8907,-1.7855,-1.7146,-1.6347,-1.5598,-1.496,-1.4071,-1.3294,-1.2697,-1.2542,-1.2213,-1.1557,-1.0773,-1.0054,0.0,-0.9345,0.0,0.0,0.0,0.0,0.0,0.0,0.0,0.0,-0.9965,-1.0601,-1.1228,-1.2724,-1.3643,-1.3643,-1.4274,-1.4706,-1.4706,-1.4706,-1.4855,-1.5369,-1.7882,-1.9583,-1.9583,-1.9583,-1.962,-1.9676,-1.9912,-2.005,-2.0074,-2.0167,-2.0252,-2.0269,-2.0277,-2.0288,-2.0288,-2.0288,-2.0292,-2.0297,-2.0292,-2.0289,-2.0287,-2.0223,-2.023,-2.0236,-1.9125,-1.8104,-1.7905,-1.7496,-1.6814,-1.5627,-1.6093,-1.6344,-1.5566,-1.5419,-1.5409,-1.5419,-1.5405,-1.5391,-3.7578,-3.756,-3.7073,-3.6729,-3.6365,-3.5145,-3.4335,-3.3862,-3.3217,-3.2586,-3.2017,-3.1601,-3.1634,-3.1944,-3.155,-3.1351,-3.1317,-3.0748,-3.049,-3.0403,-2.9041,-2.842,-2.8368,-2.766,-2.7315,-2.7315,-2.7315,-2.7213,-2.7075,-2.6402,-2.5646,-2.4781,-2.4129,-2.344,-2.2733,0.0,0.0,0.0,-2.0872,-2.0113,-1.9516,-1.8666,-1.8131,-1.7942,-1.6632,0.0,-1.5649,-1.4348,-1.3553,-1.3398,-1.2811,0.0,0.0,0.0,0.0,0.0,0.0,0.0,0.0,0.0,0.0,0.0,-1.1471,-1.0417,-0.8119,-1.1394,-1.3457,-1.2961,-1.379,-1.4389,-1.4407,-1.4574,-1.4706,-1.4706,-1.4725,-1.5722,-1.8272,-1.9256,-1.9583,-1.9583,-1.9583,-1.962,-1.9701,-1.9751,-1.9816,-1.9912,-2.002,-2.0074,-2.0145,-2.022,-2.0285,-2.0288,-2.0288,-2.0292,-2.0289,-2.0296,-2.0269,-2.0239,-2.0248,-2.0285,-2.0257,-2.0082,-1.926,-1.8222,-1.7877,-1.7251,-1.5759,-1.611,-1.644,-1.5564,-1.5411,-1.5417,-1.5408,-1.5409,-1.5403,-3.7401,0.0,-3.721,-3.6983,0.0,-3.5534,-3.4837,-3.4344,-3.3546,-3.3039,-3.2763,-3.2231,-3.2052,-3.2161,-3.2105,-3.1901,-3.1543,-3.1348,-3.1266,-3.1162,-2.9661,-2.8954,-2.8903,-2.7816,-2.7315,-2.7315,-2.7315,-2.7315,-2.7263,-2.6488,-2.5715,-2.5005,-2.4181,-2.344,-2.2716,-2.2712,-2.2509,-2.216,-2.1009,-2.0222,-1.9809,-1.8758,-1.8011,-1.7587,0.0,0.0,0.0,0.0,0.0,0.0,0.0,0.0,0.0,0.0,0.0,-1.1421,-1.1733,-1.161,-1.0965,-1.1171,-1.1612,-1.2246,-1.2853,-1.2347,-1.0398,-1.2906,-1.4384,-1.3985,-1.4338,-1.4594,-1.46,-1.4656,-1.5133,-1.6142,-1.6786,-1.7845,-1.9256,-1.9583,-1.9583,-1.9583,-1.9583,-1.9611,-1.9653,-1.9688,-1.9726,-1.9799,-1.9877,-1.9986,-2.0074,-2.0171,-2.026,-2.0241,-2.0253,-2.0238,-2.0261,-2.0257,-2.0238,-2.02,-2.0212,-2.023,-2.0238,-2.0257,-1.9812,-1.8467,-1.7458,-1.6503,-1.6432,-1.653,-1.6434,-1.5639,-1.5407,-1.5408,-1.5413,-1.5407,-1.541,-3.7238,-3.7238,-3.7238,-3.7041,-3.6674,-3.5716,-3.4927,-3.4231,0.0,0.0,0.0,-3.2646,-3.2329,-3.229,-3.2313,-3.1978,-3.1441,-3.161,-3.1691,-3.1657,-3.0334,-2.9644,-2.9437,-2.8127,-2.742,-2.7315,-2.7315,-2.7315,-2.728,-2.6626,-2.5868,-2.5023,-2.4336,-2.3578,-2.2763,-2.2712,-2.2712,-2.263,-2.1187,-2.0325,-2.017,-1.8907,-1.788,-1.7215,-1.707,-1.6425,-1.5245,-1.4943,-1.4217,-1.2991,-1.2766,-1.269,-1.2697,-1.269,-1.2697,-1.2714,-1.326,-1.3077,-1.1885,-1.2241,-1.2616,-1.2826,-1.3845,-1.4148,-1.3503,-1.4114,-1.4535,-1.4591,-1.4578,-1.456,-1.4584,-1.4645,-1.5549,-1.764,-1.8915,-1.9564,-1.9536,-1.9529,-1.9548,-1.9587,-1.9569,-1.9587,-1.9569,-1.9635,-1.9657,-1.9682,-1.9763,-1.9901,-2.004,-2.0153,-2.0229,-2.0205,-2.021,-2.0199,-2.0207,-2.0203,-2.0207,-2.0203,-2.0207,-2.0199,-2.0201,-2.0197,-1.9784,-1.876,-1.6822,-1.5977,-1.6527,-1.6667,-1.6361,-1.557,-1.5379,-1.5421,-1.5403,-1.5414,-1.5408,-3.6631,-3.6631,-3.6631,-3.6276,-3.5674,-3.5194,-3.4422,-3.3459,-3.3361,-3.3748,-3.4421,-3.3658,-3.3489,-3.3707,-3.2517,-3.1918,-3.1808,-3.1523,-3.137,0.0,-3.0795,-3.0162,-2.9472,-2.8627,-2.7902,-2.7349,-2.7315,-2.7315,-2.7297,-2.7178,-2.6419,-2.5143,-2.4885,-2.4077,-2.2819,-2.2712,-2.2712,-2.2677,-2.1199,-2.0102,-1.9476,-1.8648,-1.8148,-1.7993,-1.7363,-1.6932,-1.6691,-1.5478,-1.4701,-1.4459,-1.382,-1.3449,-1.3449,-1.3432,-1.3449,-1.3449,-1.3553,-1.3501,-1.3294,-1.3361,-1.3421,-1.3496,-1.3888,-1.4149,-1.4162,-1.4356,-1.4499,-1.4511,-1.4509,-1.4515,-1.4502,-1.4596,-1.5518,-1.7531,-1.8885,-1.9541,-1.9394,-1.9361,-1.9402,-1.9497,-1.9519,-1.9505,-1.9457,-1.9504,-1.9553,-1.955,-1.9635,-1.972,-1.9898,-2.0141,-2.0237,-2.021,-2.0212,-2.0208,-2.0201,-2.0197,-2.0197,-2.0201,-2.0201,-2.0201,-2.0197,-2.0237,-1.9823,-1.875,-1.6654,-1.5499,-1.5627,-1.6165,-1.6096,-1.5498,-1.5357,-1.5391,-1.5412,-1.5417,-1.5409,-3.6492,-3.6492,-3.6492,-3.6307,-3.5984,-3.5069,-3.406,-3.3117,-3.3069,-3.3414,-3.3892,-3.3719,-3.351,-3.3246,-3.2551,-3.2011,-3.1622,-3.1221,-3.1024,-3.0977,-3.0453,-2.9836,-2.9211,-2.8476,-2.7841,-2.7333,-2.7315,-2.7315,-2.728,-2.6868,-2.6074,-2.5005,-2.4195,-2.3402,-2.275,-2.2712,-2.2712,-2.2664,-2.117,-2.0239,-1.9906,-1.8786,-1.82,-1.82,-1.7838,-1.7432,-1.6991,-1.596,-1.5219,-1.4805,-1.4019,-1.3605,-1.3605,-1.3605,-1.3605,-1.3605,-1.3605,-1.3605,-1.3605,-1.3605,-1.3605,-1.3605,-1.3728,-1.3894,-1.4005,-1.4319,-1.4488,-1.4488,-1.4505,-1.4487,-1.4529,-1.5037,-1.5944,-1.7221,-1.8594,-1.9405,-1.9409,-1.9379,-1.9387,-1.9394,-1.945,-1.949,-1.9453,-1.9472,-1.9512,-1.9497,-1.956,-1.9649,-1.9719,-1.9945,-2.0102,-2.0176,-2.0199,-2.0199,-2.0208,-2.0199,-2.0199,-2.0208,-2.0212,-2.0212,-2.0212,-2.0248,-1.9511,-1.7947,-1.6194,-1.5309,-1.5222,-1.5549,-1.5592,-1.5483,-1.5316,-1.5353,-1.5386,-1.541,-1.5415,-3.6492,-3.6492,-3.6492,-3.6307,-3.5938,-3.4767,-3.3679,-3.2819,-3.2773,-3.2908,-3.3134,-3.3435,-3.3208,-3.2556,-3.2311,-3.1805,-3.1144,-3.0787,-3.0605,-3.0575,-3.0159,-2.9578,-2.8907,-2.8369,-2.7828,-2.7272,-2.725,-2.7315,-2.723,-2.6661,-2.5902,-2.4939,-2.3612,-2.2871,-2.2712,-2.2712,-2.2712,-2.2612,-2.1187,-2.0377,-2.0343,-1.8959,-1.82,-1.82,-1.8183,-1.7907,-1.7277,-1.6553,-1.5805,-1.5072,-1.4115,-1.3605,-1.3605,-1.3605,-1.3605,-1.3605,-1.3605,-1.37,-1.3917,-1.4184,-1.4304,-1.4287,-1.3864,-1.3729,-1.4056,-1.4534,-1.4713,-1.4502,-1.4441,-1.4532,-1.4799,-1.5264,-1.6139,-1.7127,-1.8467,-1.9309,-1.9435,-1.9409,-1.9361,-1.9312,-1.9394,-1.9461,-1.9461,-1.9475,-1.9501,-1.949,-1.9534,-1.9576,-1.9571,-1.9707,-1.9892,-1.9971,-2.0108,-2.019,-2.0195,-2.0182,-2.0173,-2.0156,-2.0176,-2.0171,-2.0171,-2.0176,-1.9294,-1.739,-1.592,-1.5219,-1.5167,-1.5218,-1.5255,-1.5246,-1.529,-1.532,-1.5385,-1.541,-1.5413,-3.6492,-3.6492,-3.6492,-3.5799,-3.469,-3.3875,-3.3134,-3.2514,-3.2453,-3.2453,-3.2563,-3.3107,-3.2966,-3.2295,-3.1663,-3.0982,-3.037,-3.0156,-3.0075,-3.0118,-3.0514,-2.9951,-2.8697,-2.8752,-2.8167,-2.701,-2.7137,-2.7283,-2.7266,-2.7145,-2.6419,-2.5074,-2.4112,-2.334,-2.2785,-2.2699,-2.2699,-2.2664,-2.117,-2.0377,-2.0308,-1.8947,-1.82,-1.82,-1.82,-1.8166,-1.8011,-1.7328,-1.6544,-1.577,-1.4391,-1.3622,-1.3622,-1.3605,-1.3605,-1.3639,-1.3639,-1.3986,-1.4917,-1.5873,-1.6304,-1.6279,-1.465,-1.4015,-1.4805,-1.5419,-1.5343,-1.4664,-1.4367,-1.4762,-1.5417,-1.5166,-1.5808,-1.7681,-1.8746,-1.9305,-1.9312,-1.9305,-1.9323,-1.9286,-1.9312,-1.9323,-1.9346,-1.9402,-1.9487,-1.9431,-1.9446,-1.9456,-1.9398,-1.9504,-1.958,-1.9545,-1.9807,-2.0112,-2.0112,-2.0117,-2.0122,-2.0107,-2.0122,-2.0126,-2.0131,-2.0012,-1.9395,-1.7439,-1.5864,-1.5164,-1.5123,-1.5159,-1.5204,-1.5204,-1.5257,-1.5316,-1.5382,-1.5408,-1.5392,-3.6492,-3.6492,-3.6492,-3.5737,-3.4536,-3.4166,-3.3413,-3.2428,-3.2398,-3.2398,-3.2425,-3.2687,-3.2502,-3.1971,-3.1448,-3.0828,-3.018,-2.9676,-2.947,-2.9445,-2.9302,-2.8753,-2.8003,-2.7748,-2.721,-2.6469,-2.6808,-2.7006,-2.692,-2.6562,-2.581,-2.4772,-2.385,-2.3159,-2.271,-2.2579,-2.2596,-2.2651,-2.1199,-2.0377,-2.0222,-1.8976,-1.82,-1.82,-1.82,-1.82,-1.8114,-1.7432,-1.6863,-1.644,-1.4667,-1.3837,-1.4286,-1.3864,-1.3812,-1.4278,-1.4727,-1.5132,-1.5537,-1.6002,-1.6226,-1.6209,-1.546,-1.515,-1.5471,-1.578,-1.5723,-1.5457,-1.5429,-1.5699,-1.6159,-1.6355,-1.6932,-1.8012,-1.8812,-1.9279,-1.9279,-1.9279,-1.9279,-1.9279,-1.9279,-1.9279,-1.9305,-1.9338,-1.9372,-1.9338,-1.9361,-1.9361,-1.9312,-1.9387,-1.9394,-1.9368,-1.9526,-1.9796,-2.006,-2.0126,-2.0112,-2.0112,-2.0112,-2.0112,-2.0108,-2.0112,-1.9463,-1.7576,-1.609,-1.5172,-1.5115,-1.5113,-1.5143,-1.517,-1.5211,-1.5265,-1.5339,-1.5345,-1.5338,-3.6492,-3.6492,-3.6492,-3.5752,-3.4536,-3.4489,-3.3719,-3.2475,-3.2398,-3.2398,-3.2398,-3.2398,-3.2029,-3.1425,-3.1101,-3.0528,-2.9721,-2.9218,-2.8982,-2.8958,-2.8555,-2.8037,-2.7395,-2.7126,-2.6637,-2.613,-2.6402,-2.6624,-2.6623,-2.6184,-2.5406,-2.4512,-2.375,-2.3116,-2.2552,-2.236,-2.236,-2.2357,-2.1002,-2.0262,-2.0122,-1.8892,-1.814,-1.82,-1.82,-1.82,-1.82,-1.7649,-1.7208,-1.6967,-1.5607,-1.4934,-1.5055,-1.4529,-1.4494,-1.509,-1.5796,-1.6191,-1.6132,-1.6364,-1.6546,-1.6536,-1.6546,-1.6415,-1.6295,-1.6398,-1.6455,-1.6341,-1.6633,-1.6861,-1.6894,-1.7398,-1.7897,-1.8316,-1.8947,-1.9297,-1.9279,-1.9279,-1.9279,-1.9279,-1.9279,-1.9279,-1.9279,-1.9305,-1.9305,-1.9305,-1.9297,-1.9279,-1.9279,-1.9297,-1.9305,-1.9279,-1.9305,-1.9559,-2.0035,-2.0079,-2.006,-2.0041,-2.006,-2.0098,-2.0074,-2.0065,-1.9539,-1.7752,-1.6204,-1.5398,-1.5532,-1.5478,-1.5228,-1.5235,-1.5367,-1.5432,-1.5303,-1.5295,-1.5321,-3.6492,-3.6492,-3.6492,-3.5691,-3.4505,-3.4459,-3.3688,-3.2398,-3.2398,-3.2398,-3.2398,-3.2398,-3.1674,-3.0546,-3.0495,-2.9714,-2.8638,-2.8676,-2.8724,-2.8732,-2.8865,-2.8293,-2.7094,-2.7294,-2.6832,-2.5828,-2.5995,-2.6228,-2.6384,-2.6351,-2.5631,-2.4259,-2.4094,-2.3391,-2.2257,-2.2041,-2.2027,-2.1933,-2.0689,-1.9951,-1.9915,-1.8677,-1.805,-1.8168,-1.82,-1.82,-1.8183,-1.8148,-1.7793,-1.7036,-1.7511,-1.7259,-1.6046,-1.5778,-1.5795,-1.5916,-1.6544,-1.688,-1.6821,-1.7476,-1.7976,-1.8011,-1.7897,-1.7735,-1.7087,-1.7518,-1.7597,-1.7055,-1.7569,-1.7815,-1.7533,-1.7666,-1.8105,-1.8802,-1.9131,-1.9271,-1.9279,-1.9279,-1.9279,-1.9279,-1.9279,-1.9279,-1.9279,-1.9279,-1.9279,-1.9279,-1.9279,-1.9279,-1.9279,-1.9279,-1.9279,-1.9279,-1.9324,-1.949,-1.9941,-2.0006,-1.9925,-1.992,-1.9986,-2.0079,-2.003,-1.9825,-1.8977,-1.7886,-1.622,-1.5532,-1.5929,-1.5921,-1.5583,-1.56,-1.5946,-1.5975,-1.5601,-1.5377,-1.537,-3.6492,-3.6445,-3.603,-3.5337,-3.4489,-3.4027,-3.326,-3.2428,-3.2398,-3.2398,-3.2398,-3.2398,-3.1659,-3.0402,-3.0402,-2.9648,-2.8473,-2.8493,-2.8501,-2.8479,-2.8171,-2.7728,-2.7254,-2.6675,-2.6177,-2.5767,-2.5669,-2.576,-2.5941,-2.61,-2.5408,-2.4166,-2.3802,-2.3143,-2.2193,-2.1869,-2.1869,-2.1898,-2.0994,-2.0317,-1.9875,-1.9053,-1.8416,-1.8033,-1.813,-1.82,-1.82,-1.82,-1.8062,-1.7787,-1.8062,-1.7718,-1.676,-1.6595,-1.6605,-1.6681,-1.7328,-1.7735,-1.77,-1.7993,-1.82,-1.82,-1.82,-1.8097,-1.789,-1.8011,-1.8062,-1.788,-1.7983,-1.8094,-1.8061,-1.8136,-1.8456,-1.8897,-1.917,-1.9279,-1.9279,-1.9279,-1.9279,-1.9279,-1.9279,-1.9279,-1.9279,-1.9279,-1.9279,-1.9279,-1.9279,-1.9279,-1.9279,-1.9279,-1.9279,-1.9279,-1.9305,-1.9372,-1.9506,-1.9809,-1.9888,-1.9885,-1.9907,-1.9984,-1.9965,-2.0035,-1.9416,-1.7937,-1.6281,-1.5799,-1.6315,-1.7098,-1.6628,-1.6521,-1.6849,-1.6608,-1.6043,-1.603,-1.5801,-3.6492,-3.6384,-3.5799,-3.5136,-3.4443,-3.3706,-3.3013,-3.2428,-3.2398,-3.2398,-3.2398,-3.2398,-3.1659,-3.054,-3.0402,-2.9664,-2.8488,-2.8411,-2.8411,-2.8365,-2.7934,-2.7611,-2.725,-2.6366,-2.5823,-2.567,-2.5401,-2.5326,-2.5476,-2.568,-2.5118,-2.4008,-2.3644,-2.3047,-2.2218,-2.1779,-2.1648,-2.1617,-2.0851,-2.0086,-1.9651,-1.8892,-1.826,-1.7918,-1.7988,-1.813,-1.8172,-1.82,-1.82,-1.82,-1.82,-1.7959,-1.7449,-1.7397,-1.7397,-1.7449,-1.788,-1.82,-1.82,-1.82,-1.82,-1.82,-1.82,-1.82,-1.82,-1.82,-1.82,-1.82,-1.82,-1.82,-1.8232,-1.8363,-1.8565,-1.886,-1.9113,-1.9279,-1.9263,-1.9082,-1.9064,-1.9232,-1.9279,-1.9279,-1.9279,-1.9279,-1.9279,-1.9279,-1.9279,-1.9279,-1.9279,-1.9279,-1.9279,-1.9279,-1.9279,-1.9305,-1.939,-1.9605,-1.9726,-1.9719,-1.9792,-1.9873,-1.9912,-1.9986,-1.9483,-1.7968,-1.7051,-1.6632,-1.6926,-1.7882,-1.8001,-1.7756,-1.7688,-1.7543,-1.7135,-1.6833,-1.6505,-3.6492,-3.6384,-3.5753,-3.509,-3.4428,-3.3629,-3.2982,-3.2459,-3.2398,-3.2398,-3.2398,-3.2398,-3.1674,-3.0586,-3.0402,-2.9648,-2.8581,-2.8411,-2.8411,-2.8396,-2.835,-2.8011,-2.7442,-2.6641,-2.5951,-2.5555,-2.5197,-2.5005,-2.5029,-2.5188,-2.4916,-2.4243,-2.3682,-2.3075,-2.2378,-2.1713,-2.1341,-2.1112,-2.0168,-1.9523,-1.9318,-1.831,-1.7693,-1.7701,-1.7805,-1.7983,-1.814,-1.8172,-1.819,-1.819,-1.819,-1.82,-1.8114,-1.8097,-1.8148,-1.8097,-1.82,-1.82,-1.82,-1.82,-1.82,-1.82,-1.82,-1.82,-1.82,-1.82,-1.82,-1.82,-1.82,-1.8217,-1.8269,-1.8335,-1.8419,-1.8592,-1.8956,-1.9146,-1.9154,-1.866,-1.8505,-1.9123,-1.9355,-1.9308,-1.9334,-1.9572,-1.9664,-1.9646,-1.9609,-1.9481,-1.9407,-1.9426,-1.9389,-1.9572,-1.9536,-1.9352,-1.9368,-1.9423,-1.9469,-1.9538,-1.9657,-1.9744,-1.9732,-1.9748,-1.9382,-1.8146,-1.7238,-1.69,-1.8398,-1.9162,-1.8856,-1.8646,-1.8593,-1.8383,-1.7991,-1.7562,-1.7118,-3.6492,-3.6353,-3.5275,-3.472,-3.4351,-3.3213,-3.2567,-3.2398,-3.2398,-3.2398,-3.2398,-3.2398,-3.1674,-3.0617,-3.0386,-2.9664,-2.8458,-2.8411,-2.8411,-2.8411,-2.8411,-2.8304,-2.7904,-2.6919,-2.5808,-2.4905,-2.4734,-2.4746,-2.4771,-2.4985,-2.4773,-2.4185,-2.3553,-2.2953,-2.241,-2.1697,-2.1309,-2.1245,-2.0872,-2.0481,-2.0051,-1.923,-1.861,-1.8166,-1.779,-1.7618,-1.78,-1.8037,-1.813,-1.8027,-1.813,-1.82,-1.82,-1.82,-1.82,-1.82,-1.82,-1.82,-1.82,-1.82,-1.82,-1.82,-1.82,-1.82,-1.82,-1.82,-1.8217,-1.8217,-1.8217,-1.8373,-1.881,-1.8947,-1.8898,-1.8616,-1.8573,-1.8825,-1.9117,-1.8703,-1.8604,-1.9204,-1.9697,-1.9991,-2.0203,-2.0493,-2.0849,-2.0859,-2.0886,-2.0637,-1.9719,-1.9968,-2.118,-2.2216,-2.1051,-1.9738,-1.9916,-1.981,-1.9535,-1.9508,-1.9538,-1.9592,-1.9585,-1.9538,-1.9142,-1.8732,-1.7803,-1.7965,-1.9497,-1.994,-1.9558,-1.9334,-1.9143,-1.8899,-1.8593,-1.8274,-1.7945,-3.6338,-3.5999,-3.4951,-3.432,-3.4012,-3.2859,-3.2398,-3.2398,-3.2398,-3.2398,-3.2398,-3.2398,-3.1674,-3.0602,-3.0402,-2.9648,-2.8504,-2.8411,-2.8411,-2.8411,-2.8411,-2.8411,-2.8211,-2.7026,-2.5656,-2.4533,-2.4426,-2.4487,-2.4508,-2.4731,-2.467,-2.4293,-2.3703,-2.3161,-2.2614,-2.1972,-2.1537,-2.1326,-2.1018,-2.0742,-2.0255,-1.9705,-1.917,-1.8726,-1.8358,-1.8203,-1.8236,-1.8552,-1.8484,-1.8063,-1.8098,-1.819,-1.82,-1.82,-1.82,-1.82,-1.82,-1.82,-1.82,-1.82,-1.82,-1.82,-1.82,-1.82,-1.82,-1.82,-1.8286,-1.8683,-1.8683,-1.8924,-1.9533,-1.9705,-1.9565,-1.9328,-1.9013,-1.8815,-1.8967,-1.9022,-1.9202,-1.9778,-2.0291,-2.0635,-2.0862,-2.1275,-2.1724,-2.1697,-2.1732,-2.1619,-2.0582,-2.0619,-2.2143,-2.3052,-2.2198,-2.1262,-2.0794,-2.0307,-1.9701,-1.9523,-1.9438,-1.9459,-1.9434,-1.9532,-1.932,-1.9438,-1.8853,-1.8843,-2.0069,-2.0112,-1.9883,-1.9768,-1.9639,-1.9525,-1.9334,-1.9334,-1.9016,-3.6122,-3.5444,-3.4782,-3.4075,-3.3413,-3.2675,-3.2398,-3.2398,-3.2398,-3.2398,-3.2398,-3.2398,-3.1659,-3.0617,-3.0402,-2.9664,-2.8596,-2.8411,-2.8411,-2.8411,-2.8396,-2.8334,-2.7904,-2.6872,-2.5656,-2.4471,-2.4302,-2.4302,-2.4343,-2.4508,-2.4589,-2.453,-2.4044,-2.3599,-2.2966,-2.2412,-2.176,-2.1262,-2.0728,-2.0453,-2.0371,-1.9719,-1.9297,-1.9279,-1.9288,-1.9217,-1.9113,-1.932,-1.9047,-1.8132,-1.8155,-1.8289,-1.8207,-1.82,-1.82,-1.82,-1.82,-1.82,-1.82,-1.82,-1.8286,-1.8407,-1.8286,-1.82,-1.82,-1.8459,-1.889,-1.9545,-1.9476,-1.9665,-2.0286,-2.0475,-2.0487,-2.0481,-2.028,-1.9687,-1.8676,-1.9677,-2.05,-2.0668,-2.1068,-2.1352,-2.1161,-2.1659,-2.1862,-2.1862,-2.199,-2.1981,-2.1996,-2.2051,-2.2336,-2.2593,-2.2822,-2.2391,-2.1804,-2.1096,-2.0464,-1.9911,-1.9733,-1.9578,-1.9413,-1.9434,-1.9479,-1.9623,-1.9816,-1.9945,-2.0055,-2.0065,-2.0098,-1.9998,-1.9979,-2.0093,-2.0036,-1.9902,-1.973,-3.6091,-3.5444,-3.4782,-3.406,-3.3352,-3.2675,-3.2398,-3.2398,-3.2398,-3.2398,-3.2398,-3.2398,-3.1659,-3.0479,-3.0386,-2.9664,-2.8673,-2.8411,-2.8411,-2.8411,-2.8411,-2.778,-2.7072,-2.6549,-2.5635,-2.4481,-2.4312,-2.4281,-2.4281,-2.438,-2.4446,-2.4578,-2.401,-2.3459,-2.2932,-2.2285,-2.1674,-2.1215,-2.099,-2.0925,-2.0889,-2.0338,-2.0013,-1.9963,-1.9583,-1.9353,-1.923,-1.9422,-1.9127,-1.8271,-1.8569,-1.8591,-1.833,-1.8248,-1.8241,-1.822,-1.8207,-1.82,-1.82,-1.82,-1.8538,-1.9131,-1.8683,-1.82,-1.8235,-1.9217,-1.9838,-2.0188,-2.0148,-2.0441,-2.1096,-2.1298,-2.1492,-2.1975,-2.1802,-2.1234,-2.0412,-2.1147,-2.2095,-2.2095,-2.189,-2.1832,-2.1971,-2.2414,-2.2878,-2.2984,-2.3045,-2.3155,-2.3106,-2.3133,-2.327,-2.3584,-2.3712,-2.3254,-2.2685,-2.1959,-2.1243,-2.0493,-2.0142,-1.99,-1.9625,-1.9331,-1.9369,-1.9421,-1.9702,-1.9877,-1.9971,-2.0019,-2.0054,-2.0089,-2.0093,-2.0084,-2.0103,-2.0036,-1.9993,-3.5938,-3.5059,-3.4674,-3.3891,-3.2982,-3.2552,-3.2398,-3.2398,-3.2398,-3.2398,-3.2398,-3.2398,-3.1659,-3.0479,-3.0386,-2.9648,-2.8519,-2.8411,-2.8411,-2.8411,-2.8411,-2.7827,-2.698,-2.6549,-2.578,-2.4773,-2.4404,-2.4297,-2.4281,-2.4281,-2.4364,-2.44,-2.4079,-2.3639,-2.3205,-2.2499,-2.1895,-2.1433,-2.1149,-2.1039,-2.1166,-2.086,-2.0713,-2.0631,-2.0273,-2.0093,-2.0124,-2.0212,-1.9847,-1.9219,-1.9258,-1.9338,-1.9087,-1.8796,-1.8589,-1.8432,-1.8293,-1.82,-1.82,-1.82,-1.8769,-1.9613,-1.9361,-1.9189,-1.9441,-2.0475,-2.1359,-2.1406,-2.1113,-2.132,-2.1854,-2.2074,-2.2268,-2.2526,-2.2712,-2.2337,-2.1423,-2.2113,-2.2612,-2.2643,-2.2549,-2.2376,-2.2429,-2.2993,-2.3327,-2.3459,-2.348,-2.3728,-2.3975,-2.4006,-2.3976,-2.4064,-2.4019,-2.3506,-2.318,-2.2575,-2.1996,-2.1281,-2.0584,-2.0327,-1.9895,-1.9462,-1.9294,-1.9383,-1.9625,-1.9778,-1.9839,-1.9909,-1.9979,-2.0005,-2.0025,-2.0045,-2.006,-2.003,-2.0016,-3.5691,-3.4412,-3.4474,-3.3704,-3.2564,-3.2398,-3.2398,-3.2398,-3.2398,-3.2398,-3.2398,-3.2398,-3.1628,-3.0417,-3.0371,-2.9648,-2.8427,-2.8411,-2.8411,-2.8411,-2.8365,-2.8003,-2.7503,-2.6688,-2.598,-2.5189,-2.4589,-2.4343,-2.4281,-2.4281,-2.4281,-2.4307,-2.4292,-2.4019,-2.3414,-2.2826,-2.2295,-2.1672,-2.1061,-2.0909,-2.1087,-2.1039,-2.1054,-2.1085,-2.1084,-2.1051,-2.1115,-2.1147,-2.082,-2.0061,-2.0097,-2.0083,-2.009,-1.9576,-1.9221,-1.8851,-1.8586,-1.8388,-1.8409,-1.853,-1.901,-2.017,-2.0429,-2.0532,-2.0785,-2.1785,-2.2423,-2.2406,-2.2044,-2.2061,-2.2436,-2.2647,-2.263,-2.2712,-2.2712,-2.2712,-2.2712,-2.2712,-2.2712,-2.2712,-2.2897,-2.2889,-2.2884,-2.3,-2.3259,-2.3259,-2.3406,-2.3631,-2.375,-2.3657,-2.3732,-2.3945,-2.3816,-2.3601,-2.3386,-2.3171,-2.2648,-2.2061,-2.1253,-2.0739,-2.0244,-1.9829,-1.9444,-1.9376,-1.9499,-1.958,-1.9638,-1.9719,-1.9838,-1.989,-1.989,-1.9944,-1.9986,-1.9923,-1.9877,-3.5383,-3.3675,-3.4258,-3.3704,-3.2521,-3.2398,-3.2398,-3.2398,-3.2398,-3.2398,-3.2398,-3.2398,-3.1613,-3.0402,-3.0309,-2.9664,-2.8519,-2.8411,-2.8411,-2.8411,-2.8411,-2.835,-2.7904,-2.6995,-2.6026,-2.5327,-2.4656,-2.4312,-2.4281,-2.4281,-2.4281,-2.4281,-2.4251,-2.3999,-2.3392,-2.2767,-2.2112,-2.1557,-2.092,-2.076,-2.099,-2.1071,-2.1087,-2.1119,-2.1135,-2.1199,-2.1277,-2.1309,-2.1196,-2.0949,-2.0635,-2.0337,-2.001,-1.9775,-1.9596,-1.9416,-1.9094,-1.9057,-1.9438,-1.9333,-1.9734,-2.1044,-2.0808,-2.0928,-2.213,-2.2388,-2.2712,-2.2694,-2.2543,-2.2492,-2.266,-2.2712,-2.2712,-2.2712,-2.2712,-2.2712,-2.2712,-2.2712,-2.2712,-2.2725,-2.2751,-2.2764,-2.2712,-2.276,-2.2935,-2.3028,-2.317,-2.3353,-2.3353,-2.3277,-2.3393,-2.3591,-2.3706,-2.3559,-2.3692,-2.3564,-2.3253,-2.2749,-2.2016,-2.1492,-2.0978,-2.0288,-1.994,-1.9591,-1.9309,-1.939,-1.949,-1.9612,-1.9744,-1.9744,-1.9763,-1.9792,-1.9815,-1.9749,-1.978,-3.4999,-3.349,-3.3814,-3.3352,-3.249,-3.2398,-3.2398,-3.2398,-3.2398,-3.2398,-3.2321,-3.2117,-3.1351,-3.0386,-3.0033,-2.935,-2.8611,-2.8411,-2.8411,-2.8411,-2.8411,-2.8411,-2.8242,-2.7372,-2.645,-2.5749,-2.4764,-2.4364,-2.4281,-2.4281,-2.4281,-2.4281,-2.4281,-2.4143,-2.3625,-2.2809,-2.2219,-2.1768,-2.0903,-2.0544,-2.0778,-2.0811,-2.0893,-2.0974,-2.1039,-2.1151,-2.1183,-2.1277,-2.1309,-2.1227,-2.1028,-2.0775,-2.0477,-2.0332,-2.0193,-1.9954,-1.9586,-1.9403,-1.9585,-1.9809,-2.0367,-2.1927,-2.1083,-2.1462,-2.2233,-2.2712,-2.2712,-2.2712,-2.2694,-2.2712,-2.2712,-2.2712,-2.2712,-2.2712,-2.2712,-2.2712,-2.2712,-2.2712,-2.2712,-2.2712,-2.2712,-2.2725,-2.2712,-2.2712,-2.2725,-2.2863,-2.2863,-2.3035,-2.301,-2.296,-2.2943,-2.3128,-2.3416,-2.361,-2.3878,-2.3908,-2.3828,-2.3362,-2.2776,-2.2447,-2.2152,-2.1308,-2.0472,-2.0142,-1.9811,-1.9331,-1.9398,-1.9532,-1.9668,-1.9637,-1.9643,-1.965,-1.9657,-1.9669,-1.9688,-3.4614,-3.326,-3.3352,-3.3013,-3.2459,-3.2398,-3.2398,-3.2398,-3.2398,-3.2398,-3.2275,-3.1717,-3.1089,-3.0371,-2.971,-2.9033,-2.8565,-2.8411,-2.8411,-2.8411,-2.8411,-2.8411,-2.8196,-2.7503,-2.6795,-2.6257,-2.5149,-2.4527,-2.4327,-2.4281,-2.4281,-2.4281,-2.4281,-2.4235,-2.3994,-2.3148,-2.2413,-2.2108,-2.1155,-2.0514,-2.0543,-2.0544,-2.0645,-2.0827,-2.0942,-2.1071,-2.1119,-2.1214,-2.1309,-2.1309,-2.1309,-2.1309,-2.1241,-2.1093,-2.0858,-2.0463,-2.0091,-1.996,-2.0055,-2.0217,-2.0905,-2.2403,-2.1588,-2.144,-2.2371,-2.2712,-2.2712,-2.2712,-2.2712,-2.2712,-2.2712,-2.2712,-2.2712,-2.2712,-2.2712,-2.2712,-2.275,-2.2836,-2.3143,-2.2712,-2.2712,-2.2712,-2.2712,-2.2712,-2.2712,-2.2712,-2.2712,-2.2712,-2.2712,-2.2712,-2.2747,-2.2838,-2.3152,-2.3529,-2.3824,-2.3806,-2.3785,-2.3751,-2.3286,-2.3206,-2.307,-2.2666,-2.1849,-2.0868,-2.0399,-2.001,-1.9732,-1.9841,-1.9844,-1.9636,-1.9557,-1.959,-1.9604,-1.9587,-1.9679,-3.4382,-3.2613,-3.3167,-3.3013,-3.2444,-3.2398,-3.2398,-3.2398,-3.2398,-3.2398,-3.229,-3.1674,-3.0982,-3.0356,-2.9694,-2.9018,-2.8504,-2.8411,-2.8411,-2.8411,-2.8411,-2.8411,-2.8211,-2.7442,-2.6688,-2.6226,-2.5518,-2.4881,-2.441,-2.4281,-2.4281,-2.4281,-2.4281,-2.4281,-2.4081,-2.3502,-2.2767,-2.2274,-2.1442,-2.0914,-2.0551,-2.0494,-2.0544,-2.0728,-2.0811,-2.0909,-2.1087,-2.1198,-2.1309,-2.1309,-2.1309,-2.1309,-2.1293,-2.124,-2.1159,-2.0997,-2.0643,-2.0534,-2.0946,-2.0905,-2.127,-2.1897,-2.2047,-2.219,-2.2612,-2.2685,-2.2632,-2.2676,-2.2706,-2.275,-2.2712,-2.2733,-2.2712,-2.2712,-2.2712,-2.2712,-2.2905,-2.3698,-2.4126,-2.3557,-2.3177,-2.2781,-2.2854,-2.2819,-2.2712,-2.2712,-2.2712,-2.2712,-2.2712,-2.2712,-2.2725,-2.2812,-2.2965,-2.3365,-2.3732,-2.3628,-2.3581,-2.3847,-2.3672,-2.3694,-2.369,-2.3895,-2.3327,-2.2208,-2.1437,-2.1041,-2.0772,-2.0439,-2.0362,-2.0402,-2.0036,-1.9652,-2.0003,-2.03,-1.9904,-3.3967,-3.2459,-3.2752,-3.2705,-3.2428,-3.2398,-3.2398,-3.2398,-3.2398,-3.2398,-3.209,-3.1366,-3.0694,-3.0186,-2.9304,-2.8704,-2.8488,-2.8411,-2.8411,-2.8411,-2.8411,-2.8411,-2.8396,-2.7626,-2.7011,-2.6503,-2.5964,-2.5204,-2.441,-2.4297,-2.4281,-2.4281,-2.4281,-2.4281,-2.4143,-2.3625,-2.2978,-2.232,-2.1658,-2.1016,-2.0454,-2.0407,-2.046,-2.0527,-2.0611,-2.0695,-2.0811,-2.1087,-2.1199,-2.1215,-2.1278,-2.1294,-2.1309,-2.1309,-2.1309,-2.1228,-2.1046,-2.1101,-2.1565,-2.1433,-2.1568,-2.1927,-2.2243,-2.245,-2.2548,-2.2508,-2.2371,-2.248,-2.3079,-2.323,-2.3137,-2.2924,-2.2733,-2.2712,-2.2798,-2.285,-2.3264,-2.4919,-2.5143,-2.4712,-2.4095,-2.3664,-2.325,-2.3112,-2.2802,-2.2712,-2.2712,-2.2712,-2.2712,-2.2712,-2.2712,-2.2777,-2.2906,-2.3151,-2.3468,-2.3427,-2.3398,-2.3646,-2.381,-2.3834,-2.3907,-2.3939,-2.3874,-2.3336,-2.2721,-2.2061,-2.1574,-2.1186,-2.117,-2.1143,-2.0929,-2.079,-2.0939,-2.0929,-2.0573,-3.3765,-3.2582,-3.2444,-3.2398,-3.2398,-3.2398,-3.2398,-3.2398,-3.2398,-3.2398,-3.2213,-3.1063,-3.0432,-3.0048,-2.9166,-2.8411,-2.8411,-2.8411,-2.8411,-2.8411,-2.8411,-2.8411,-2.8365,-2.7941,-2.7303,-2.6464,-2.5764,-2.5358,-2.4497,-2.4281,-2.4281,-2.4281,-2.4281,-2.4281,-2.4143,-2.384,-2.3117,-2.2521,-2.1824,-2.115,-2.0487,-2.0287,-2.0287,-2.0304,-2.041,-2.051,-2.0578,-2.0925,-2.1087,-2.1135,-2.1214,-2.1309,-2.1309,-2.1309,-2.1309,-2.1309,-2.1309,-2.1434,-2.1526,-2.1586,-2.1579,-2.1781,-2.1838,-2.2056,-2.2186,-2.2061,-2.1978,-2.231,-2.2928,-2.3673,-2.3653,-2.3436,-2.3288,-2.3388,-2.3608,-2.3833,-2.4505,-2.5592,-2.6678,-2.6161,-2.5232,-2.4439,-2.3905,-2.344,-2.3147,-2.2729,-2.2712,-2.2712,-2.2712,-2.2712,-2.2712,-2.2751,-2.2842,-2.2982,-2.3163,-2.32,-2.3242,-2.3416,-2.3513,-2.3576,-2.3646,-2.3732,-2.3684,-2.364,-2.3556,-2.2905,-2.2409,-2.2024,-2.2024,-2.1987,-2.1886,-2.1867,-2.1896,-2.1675,-2.1305,-3.4014,-3.3229,-3.2644,-3.2398,-3.2398,-3.2398,-3.2398,-3.2398,-3.2398,-3.2398,-3.2305,-3.1048,-3.0386,-2.9956,-2.8972,-2.8442,-2.8411,-2.8411,-2.8411,-2.8411,-2.8411,-2.8411,-2.8211,-2.7034,-2.6888,-2.6325,-2.5302,-2.4543,-2.4297,-2.4281,-2.4281,-2.4281,-2.4281,-2.4281,-2.4266,-2.4133,-2.382,-2.3183,-2.249,-2.155,-2.0549,-2.0349,-2.0349,-2.0339,-2.0409,-2.0539,-2.062,-2.0953,-2.1166,-2.1263,-2.1327,-2.1326,-2.1309,-2.1309,-2.1309,-2.1309,-2.1293,-2.1309,-2.1371,-2.1387,-2.15,-2.1561,-2.1481,-2.1433,-2.1785,-2.1897,-2.2093,-2.2939,-2.3263,-2.3675,-2.4301,-2.4638,-2.4669,-2.5074,-2.5523,-2.6074,-2.6644,-2.604,-2.7159,-2.7263,-2.623,-2.5163,-2.437,-2.3922,-2.3491,-2.3043,-2.2729,-2.2798,-2.2854,-2.2974,-2.294,-2.3018,-2.2803,-2.2881,-2.2944,-2.296,-2.3065,-2.3218,-2.3301,-2.3336,-2.3411,-2.3513,-2.3562,-2.353,-2.3533,-2.3498,-2.2957,-2.2693,-2.2804,-2.2767,-2.2657,-2.2685,-2.2749,-2.2446,-2.2134,-3.346,-3.2813,-3.2521,-3.2398,-3.2398,-3.2398,-3.2398,-3.2398,-3.2398,-3.2398,-3.2136,-3.0986,-3.0017,-2.935,-2.8581,-2.8427,-2.8411,-2.8411,-2.8411,-2.8411,-2.8411,-2.8411,-2.8304,-2.778,-2.7288,-2.6334,-2.5749,-2.5087,-2.4656,-2.4312,-2.4281,-2.4281,-2.4281,-2.4281,-2.4281,-2.4281,-2.3882,-2.3286,-2.2628,-2.1827,-2.1103,-2.0826,-2.0672,-2.0335,-2.0388,-2.0576,-2.0924,-2.1156,-2.1633,-2.1958,-2.2255,-2.2407,-2.2393,-2.2216,-2.1924,-2.1908,-2.1503,-2.1325,-2.1309,-2.1309,-2.1503,-2.1714,-2.1681,-2.1681,-2.2232,-2.2588,-2.2687,-2.3244,-2.3982,-2.4477,-2.4942,-2.573,-2.6153,-2.6557,-2.6802,-2.7039,-2.7315,-2.7315,-2.7315,-2.7315,-2.7211,-2.6143,-2.5215,-2.4836,-2.4456,-2.4026,-2.3715,-2.3664,-2.3681,-2.3698,-2.3595,-2.3422,-2.3074,-2.2781,-2.279,-2.2816,-2.2911,-2.3035,-2.3161,-2.321,-2.3218,-2.3283,-2.3312,-2.3259,-2.3176,-2.3151,-2.3159,-2.3383,-2.3472,-2.3455,-2.3428,-2.34,-2.3409,-2.3529,-2.3244,-3.3013,-3.2413,-3.2398,-3.2398,-3.2398,-3.2398,-3.2398,-3.2398,-3.2398,-3.2398,-3.2044,-3.1012,-2.9725,-2.8802,-2.855,-2.8411,-2.8411,-2.8411,-2.8411,-2.8411,-2.8411,-2.8411,-2.8288,-2.8119,-2.7534,-2.6626,-2.6356,-2.5656,-2.4918,-2.4543,-2.4527,-2.4312,-2.4281,-2.4281,-2.4281,-2.4235,-2.3979,-2.3317,-2.2855,-2.224,-2.1642,-2.1334,-2.1029,-2.069,-2.0472,-2.0595,-2.1198,-2.1419,-2.1911,-2.2553,-2.2794,-2.2908,-2.3049,-2.2761,-2.2535,-2.239,-2.1956,-2.1585,-2.152,-2.1504,-2.1779,-2.2054,-2.2345,-2.2491,-2.3365,-2.3787,-2.3886,-2.3857,-2.4359,-2.4892,-2.5393,-2.6253,-2.6437,-2.6719,-2.7117,-2.7233,-2.7283,-2.7219,-2.7235,-2.7315,-2.7246,-2.7075,-2.6299,-2.5902,-2.5488,-2.504,-2.4784,-2.4612,-2.456,-2.4543,-2.4353,-2.4181,-2.3919,-2.357,-2.3519,-2.3384,-2.3229,-2.3049,-2.3185,-2.3087,-2.3102,-2.307,-2.3042,-2.2968,-2.2897,-2.2996,-2.3098,-2.3623,-2.4094,-2.3836,-2.3708,-2.392,-2.404,-2.4132,-2.4115,-3.3013,-3.2398,-3.2398,-3.2398,-3.2398,-3.2398,-3.2398,-3.2398,-3.2398,-3.2336,-3.2028,-3.1028,-2.9971,-2.9233,-2.8627,-2.8411,-2.8411,-2.8411,-2.8411,-2.8411,-2.8411,-2.8411,-2.8273,-2.7934,-2.7519,-2.718,-2.6811,-2.6087,-2.5373,-2.5081,-2.481,-2.441,-2.4343,-2.4297,-2.4281,-2.4251,-2.4025,-2.3548,-2.3271,-2.2886,-2.2274,-2.1797,-2.1414,-2.1165,-2.0734,-2.061,-2.1273,-2.16,-2.2098,-2.2873,-2.3067,-2.3219,-2.3449,-2.3213,-2.3085,-2.2925,-2.2431,-2.2078,-2.1967,-2.173,-2.1892,-2.2491,-2.3122,-2.3577,-2.4191,-2.5017,-2.5049,-2.4549,-2.4823,-2.5106,-2.5502,-2.5903,-2.6188,-2.6417,-2.6742,-2.7056,-2.7056,-2.6991,-2.7057,-2.7251,-2.7165,-2.6916,-2.6994,-2.6513,-2.6232,-2.5801,-2.5799,-2.5611,-2.5525,-2.5473,-2.5215,-2.5025,-2.4867,-2.4712,-2.4747,-2.4525,-2.4129,-2.3853,-2.3846,-2.3413,-2.3002,-2.2942,-2.2876,-2.2825,-2.2799,-2.2927,-2.3077,-2.344,-2.3728,-2.3855,-2.3927,-2.3986,-2.3976,-2.3955,-2.4054,-3.2644,-3.2398,-3.2398,-3.2398,-3.2398,-3.2398,-3.2398,-3.2398,-3.2398,-3.189,-3.1228,-3.0586,-2.9812,-2.8981,-2.8611,-2.8411,-2.8411,-2.8411,-2.8411,-2.8411,-2.8411,-2.8411,-2.8258,-2.8104,-2.7827,-2.7457,-2.7072,-2.6619,-2.5973,-2.5588,-2.5235,-2.4881,-2.4502,-2.4312,-2.4281,-2.4281,-2.4117,-2.4025,-2.382,-2.3563,-2.3009,-2.2686,-2.2336,-2.1889,-2.1781,-2.1889,-2.2443,-2.2574,-2.3107,-2.3577,-2.378,-2.3919,-2.3961,-2.3742,-2.3618,-2.3507,-2.2939,-2.2605,-2.2482,-2.2158,-2.2262,-2.3187,-2.4112,-2.4806,-2.4952,-2.5419,-2.5486,-2.526,-2.5146,-2.5401,-2.5564,-2.5659,-2.5768,-2.5917,-2.6207,-2.664,-2.6859,-2.6809,-2.6742,-2.6859,-2.6809,-2.6657,-2.684,-2.7002,-2.6791,-2.6578,-2.6628,-2.6611,-2.6439,-2.6266,-2.5988,-2.5747,-2.5592,-2.535,-2.5333,-2.5143,-2.4922,-2.4715,-2.4508,-2.4043,-2.3526,-2.2819,-2.2764,-2.2712,-2.2729,-2.2803,-2.2952,-2.317,-2.3365,-2.3558,-2.3732,-2.3886,-2.3855,-2.3774,-2.3935,-3.2398,-3.2398,-3.2398,-3.2398,-3.2398,-3.2398,-3.2398,-3.2398,-3.2398,-3.1921,-3.094,-3.0602,-2.9925,-2.9095,-2.8519,-2.8411,-2.8411,-2.8411,-2.8411,-2.8411,-2.8411,-2.8411,-2.8411,-2.8334,-2.8119,-2.775,-2.7642,-2.7311,-2.6619,-2.5949,-2.5512,-2.5127,-2.4671,-2.4358,-2.4281,-2.4281,-2.4281,-2.4281,-2.4235,-2.4133,-2.3609,-2.3317,-2.3102,-2.2548,-2.2351,-2.2536,-2.2932,-2.3137,-2.3546,-2.4059,-2.4404,-2.4588,-2.4563,-2.4418,-2.417,-2.3906,-2.3563,-2.3088,-2.2977,-2.2994,-2.295,-2.3526,-2.4725,-2.5322,-2.5597,-2.5597,-2.5532,-2.5549,-2.5565,-2.5613,-2.5629,-2.5597,-2.5616,-2.5768,-2.5749,-2.6099,-2.6538,-2.664,-2.652,-2.6468,-2.64,-2.6419,-2.6641,-2.6875,-2.6967,-2.6875,-2.6973,-2.6988,-2.6954,-2.6782,-2.6609,-2.6402,-2.623,-2.5988,-2.5747,-2.5885,-2.5937,-2.5456,-2.5215,-2.4867,-2.4315,-2.356,-2.3112,-2.3302,-2.3216,-2.2854,-2.2799,-2.2965,-2.3121,-2.3283,-2.3434,-2.3558,-2.3617,-2.3573,-2.3813,-3.2398,-3.2398,-3.2398,-3.2398,-3.2398,-3.2398,-3.2398,-3.2398,-3.2398,-3.2275,-3.1905,-3.0997,-3.0356,-2.9879,-2.8935,-2.855,-2.8411,-2.8411,-2.8411,-2.8411,-2.8411,-2.8411,-2.8411,-2.8365,-2.8334,-2.8381,-2.8227,-2.7873,-2.7349,-2.6657,-2.6034,-2.5435,-2.4964,-2.4374,-2.4312,-2.4281,-2.4281,-2.4281,-2.4281,-2.4241,-2.4087,-2.3671,-2.3409,-2.3225,-2.2906,-2.304,-2.3348,-2.3486,-2.383,-2.422,-2.4343,-2.4446,-2.4527,-2.4405,-2.4413,-2.4646,-2.3991,-2.3641,-2.3666,-2.3936,-2.3939,-2.3929,-2.5098,-2.5532,-2.5597,-2.5597,-2.5597,-2.5597,-2.571,-2.5713,-2.5662,-2.5613,-2.5613,-2.5597,-2.5597,-2.571,-2.6152,-2.6312,-2.6169,-2.6097,-2.6119,-2.6192,-2.6401,-2.6657,-2.694,-2.7085,-2.7233,-2.7282,-2.7264,-2.7178,-2.6971,-2.6885,-2.673,-2.6678,-2.6557,-2.6935,-2.6902,-2.6385,-2.5939,-2.5643,-2.516,-2.4471,-2.4163,-2.4043,-2.3422,-2.2798,-2.2699,-2.2725,-2.2889,-2.3022,-2.3035,-2.3145,-2.323,-2.3359,-2.3524,-3.2398,-3.2398,-3.2398,-3.2398,-3.2398,-3.2398,-3.2398,-3.2398,-3.2367,-3.2151,-3.172,-3.1166,-3.0474,-2.9812,-2.9325,-2.8827,-2.8473,-2.8411,-2.8411,-2.8411,-2.8411,-2.8411,-2.8411,-2.8411,-2.8411,-2.8411,-2.8381,-2.8334,-2.8042,-2.7288,-2.6995,-2.6518,-2.5456,-2.4764,-2.442,-2.4281,-2.4281,-2.4281,-2.4281,-2.4281,-2.4266,-2.4071,-2.3933,-2.3917,-2.3625,-2.3656,-2.3856,-2.3871,-2.404,-2.4251,-2.4281,-2.4343,-2.4405,-2.4317,-2.44,-2.4549,-2.4101,-2.4106,-2.4138,-2.4323,-2.4623,-2.4874,-2.5193,-2.5597,-2.5597,-2.5597,-2.5597,-2.5775,-2.6134,-2.6231,-2.6345,-2.584,-2.5694,-2.5613,-2.5616,-2.5635,-2.5842,-2.5805,-2.5728,-2.5747,-2.577,-2.5939,-2.6137,-2.6435,-2.6725,-2.6973,-2.7121,-2.725,-2.7282,-2.7282,-2.7194,-2.7211,-2.7159,-2.7228,-2.7315,-2.7315,-2.7315,-2.6885,-2.6661,-2.6523,-2.5971,-2.5367,-2.4594,-2.4149,-2.3405,-2.2712,-2.2685,-2.2689,-2.2689,-2.2738,-2.2777,-2.285,-2.301,-2.3072,-2.3084,-3.2398,-3.2398,-3.2398,-3.2398,-3.2398,-3.2398,-3.2398,-3.2398,-3.2382,-3.2136,-3.1767,-3.1505,-3.1023,-3.0181,-2.9556,-2.9248,-2.8735,-2.8488,-2.8411,-2.8411,-2.8411,-2.8411,-2.8411,-2.8411,-2.8411,-2.8411,-2.8411,-2.8381,-2.8288,-2.7688,-2.7196,-2.6703,-2.6164,-2.561,-2.5087,-2.4743,-2.4471,-2.4497,-2.4543,-2.4281,-2.4281,-2.4235,-2.4251,-2.4251,-2.4204,-2.4251,-2.4281,-2.4281,-2.4281,-2.4281,-2.4281,-2.4281,-2.4281,-2.4281,-2.4343,-2.4385,-2.4431,-2.439,-2.4359,-2.4364,-2.4605,-2.4894,-2.5371,-2.5578,-2.5775,-2.6147,-2.6183,-2.6361,-2.6701,-2.6927,-2.6944,-2.6377,-2.6374,-2.6341,-2.5988,-2.6024,-2.5764,-2.5745,-2.5824,-2.5807,-2.5713,-2.5833,-2.5936,-2.6208,-2.6521,-2.6741,-2.6974,-2.7121,-2.7266,-2.7299,-2.7315,-2.7315,-2.7315,-2.7315,-2.7315,-2.7315,-2.7315,-2.7315,-2.7161,-2.7006,-2.6919,-2.6333,-2.5301,-2.4201,-2.3426,-2.2823,-2.2706,-2.2676,-2.2623,-2.2555,-2.2528,-2.2649,-2.2803,-2.2829,-2.2786,-3.2398,-3.2398,-3.2398,-3.2398,-3.2398,-3.2398,-3.2398,-3.2398,-3.2398,-3.2367,-3.2336,-3.169,-3.1285,-3.1012,-3.0043,-2.9427,-2.9181,-2.8688,-2.8535,-2.8427,-2.8411,-2.8411,-2.8411,-2.8411,-2.8411,-2.8411,-2.8411,-2.8396,-2.8334,-2.7919,-2.7288,-2.6734,-2.6534,-2.6303,-2.5933,-2.5364,-2.4979,-2.4927,-2.4743,-2.4466,-2.4343,-2.4281,-2.4281,-2.4281,-2.4281,-2.4281,-2.4281,-2.4281,-2.4281,-2.4281,-2.4281,-2.4281,-2.4281,-2.4281,-2.4426,-2.4513,-2.4578,-2.4472,-2.4426,-2.4405,-2.4467,-2.4771,-2.5103,-2.541,-2.5902,-2.6512,-2.6847,-2.6944,-2.7203,-2.7527,-2.7672,-2.7705,-2.7737,-2.73,-2.6733,-2.6426,-2.6037,-2.5985,-2.6115,-2.6082,-2.5921,-2.5921,-2.5893,-2.61,-2.6345,-2.659,-2.6825,-2.7039,-2.7186,-2.7299,-2.7315,-2.7315,-2.7315,-2.7315,-2.7315,-2.7315,-2.7315,-2.7315,-2.7282,-2.7178,-2.7213,-2.7042,-2.5995,-2.4827,-2.3571,-2.2948,-2.2758,-2.2623,-2.2515,-2.2477,-2.2436,-2.2463,-2.2623,-2.2609,-2.2579,-3.2398,-3.2398,-3.2398,-3.2398,-3.2398,-3.2398,-3.2398,-3.2398,-3.2398,-3.2398,-3.2367,-3.2198,-3.1628,-3.0705,-3.0751,-2.9935,-2.9319,-2.8864,-2.8725,-2.8627,-2.8519,-2.8442,-2.8411,-2.8411,-2.8411,-2.8411,-2.8411,-2.8411,-2.8381,-2.8088,-2.7734,-2.7242,-2.7103,-2.7103,-2.6795,-2.6195,-2.5795,-2.5426,-2.5195,-2.4872,-2.4548,-2.4466,-2.4435,-2.4389,-2.442,-2.4389,-2.4297,-2.4297,-2.4281,-2.4281,-2.4281,-2.4281,-2.4281,-2.4281,-2.4343,-2.4364,-2.439,-2.4426,-2.4513,-2.4405,-2.4472,-2.4708,-2.4858,-2.4926,-2.5564,-2.6579,-2.7357,-2.7494,-2.792,-2.8336,-2.8579,-2.8676,-2.8623,-2.8214,-2.78,-2.7605,-2.7255,-2.7154,-2.7284,-2.7543,-2.7332,-2.6128,-2.6056,-2.5956,-2.6228,-2.645,-2.6657,-2.6858,-2.7105,-2.7218,-2.7315,-2.7315,-2.7315,-2.7315,-2.7315,-2.7315,-2.7315,-2.7315,-2.7282,-2.7266,-2.7182,-2.691,-2.6344,-2.5163,-2.349,-2.2876,-2.2737,-2.2609,-2.246,-2.2446,-2.2405,-2.2408,-2.2408,-2.2419,-2.2446,-3.2398,-3.2398,-3.2398,-3.2398,-3.2398,-3.2398,-3.2398,-3.2398,-3.2398,-3.2398,-3.2398,-3.2382,-3.1951,-3.1397,-3.1274,-3.0751,-2.9827,-2.9735,-2.9479,-2.8956,-2.8741,-2.8611,-2.8535,-2.8411,-2.8411,-2.8411,-2.8411,-2.8411,-2.8411,-2.8381,-2.8104,-2.7842,-2.778,-2.778,-2.7642,-2.7334,-2.6842,-2.6334,-2.5887,-2.5518,-2.5256,-2.5041,-2.4979,-2.4727,-2.4764,-2.465,-2.4343,-2.4312,-2.4281,-2.4281,-2.4281,-2.4281,-2.4281,-2.4281,-2.4281,-2.4302,-2.4323,-2.4385,-2.4451,-2.4487,-2.4812,-2.5014,-2.4797,-2.5035,-2.5866,-2.6947,-2.7485,-2.785,-2.8649,-2.9281,-2.9426,-2.954,-2.9329,-2.9119,-2.9052,-2.9,-2.8801,-2.8607,-2.8854,-2.9243,-2.8408,-2.6937,-2.6315,-2.6153,-2.5959,-2.6005,-2.621,-2.6505,-2.6808,-2.7105,-2.7251,-2.7315,-2.7315,-2.7315,-2.7283,-2.7218,-2.725,-2.7283,-2.7315,-2.7266,-2.7168,-2.6693,-2.6046,-2.4701,-2.309,-2.2767,-2.2644,-2.2515,-2.2405,-2.2405,-2.2391,-2.2366,-2.2352,-2.2352,-2.2377,-3.2398,-3.2398,-3.2398,-3.2398,-3.2398,-3.2398,-3.2398,-3.2398,-3.2398,-3.2398,-3.2398,-3.2398,-3.2275,-3.1859,-3.169,-3.1366,-3.0735,-3.0505,-2.9997,-2.9402,-2.9248,-2.8972,-2.8535,-2.8411,-2.8411,-2.8411,-2.8411,-2.8411,-2.8411,-2.8396,-2.8381,-2.8396,-2.8334,-2.8273,-2.8196,-2.815,-2.7734,-2.7319,-2.6872,-2.6503,-2.6272,-2.6195,-2.6087,-2.5512,-2.5389,-2.5302,-2.4641,-2.4379,-2.4281,-2.4281,-2.4281,-2.4281,-2.4281,-2.4281,-2.4281,-2.4281,-2.4281,-2.4385,-2.4508,-2.4622,-2.503,-2.5165,-2.4991,-2.5493,-2.6406,-2.7508,-2.8089,-2.8228,-2.8871,-2.9355,-2.957,-2.9691,-2.961,-2.9297,-2.906,-2.9091,-2.909,-2.9086,-2.9426,-2.9567,-2.8828,-2.7453,-2.6655,-2.6482,-2.6118,-2.5848,-2.5612,-2.5943,-2.6401,-2.6792,-2.6908,-2.704,-2.699,-2.6925,-2.6957,-2.694,-2.7153,-2.7218,-2.7234,-2.725,-2.7135,-2.6508,-2.5732,-2.4239,-2.2785,-2.2643,-2.2531,-2.2428,-2.238,-2.2391,-2.2363,-2.2324,-2.2296,-2.231,-2.2324,-3.2398,-3.2398,-3.2398,-3.2398,-3.2398,-3.2398,-3.2398,-3.2398,-3.2398,-3.2398,-3.2398,-3.2367,-3.2136,-3.1797,-3.2044,-3.172,-3.0936,-3.1105,-3.0412,-2.9802,-2.951,-2.9171,-2.8535,-2.8442,-2.8411,-2.8411,-2.8411,-2.8411,-2.8411,-2.8411,-2.8411,-2.8396,-2.8411,-2.8411,-2.8411,-2.8411,-2.8242,-2.8011,-2.7827,-2.725,-2.6695,-2.6426,-2.6173,-2.5988,-2.5949,-2.5687,-2.5102,-2.4604,-2.442,-2.4281,-2.4281,-2.4281,-2.4281,-2.4281,-2.4297,-2.4297,-2.4358,-2.4446,-2.4622,-2.4942,-2.5477,-2.5748,-2.5858,-2.6311,-2.7038,-2.8115,-2.8694,-2.8698,-2.8882,-2.9323,-2.9665,-2.9792,-2.9792,-2.9396,-2.9006,-2.9144,-2.9282,-2.957,-2.9852,-2.947,-2.8925,-2.8189,-2.732,-2.6746,-2.6359,-2.5831,-2.5207,-2.523,-2.5781,-2.6192,-2.6191,-2.6279,-2.635,-2.635,-2.6454,-2.6641,-2.6825,-2.699,-2.7039,-2.7071,-2.7086,-2.6274,-2.5398,-2.3875,-2.2677,-2.2714,-2.2663,-2.2389,-2.2341,-2.2324,-2.2335,-2.231,-2.2313,-2.2296,-2.2313,-3.2398,-3.2398,-3.2398,-3.2398,-3.2398,-3.2398,-3.2398,-3.2398,-3.2398,-3.2398,-3.2398,-3.2367,-3.2167,-3.1844,-3.2244,-3.2151,-3.1351,-3.1659,-3.1228,-3.0551,-2.9848,-2.9448,-2.9042,-2.8565,-2.8427,-2.8411,-2.8411,-2.8411,-2.8411,-2.8411,-2.8411,-2.8411,-2.8411,-2.8411,-2.8411,-2.8411,-2.8411,-2.8396,-2.8411,-2.7934,-2.7219,-2.7196,-2.7026,-2.6872,-2.678,-2.6441,-2.5841,-2.5373,-2.5296,-2.5087,-2.501,-2.4527,-2.442,-2.4281,-2.4466,-2.4666,-2.4764,-2.4688,-2.487,-2.5373,-2.6053,-2.6391,-2.6743,-2.7198,-2.7558,-2.8522,-2.8731,-2.8775,-2.8912,-2.9328,-2.9576,-2.971,-2.9704,-2.9434,-2.9098,-2.9029,-2.919,-2.9434,-2.972,-2.9767,-2.9275,-2.8801,-2.8014,-2.7415,-2.6983,-2.6335,-2.5623,-2.4786,-2.5233,-2.5577,-2.5556,-2.5631,-2.5762,-2.589,-2.6034,-2.6245,-2.6453,-2.6624,-2.6808,-2.694,-2.6904,-2.6025,-2.498,-2.3965,-2.3268,-2.311,-2.2975,-2.2635,-2.2255,-2.2128,-2.2228,-2.2313,-2.2313,-2.2313,-2.2313,-3.2398,-3.2398,-3.2398,-3.2398,-3.2398,-3.2398,-3.2398,-3.2398,-3.2398,-3.2398,-3.2398,-3.2398,-3.2398,-3.2398,-3.2398,-3.2398,-3.2336,-3.2182,-3.1813,-3.1274,-3.0751,-2.9971,-2.935,-2.8873,-2.8642,-2.8458,-2.8411,-2.8411,-2.8411,-2.8411,-2.8411,-2.8411,-2.8411,-2.8411,-2.8411,-2.8411,-2.8411,-2.8411,-2.8411,-2.8411,-2.8365,-2.8396,-2.7965,-2.7888,-2.7934,-2.7688,-2.6903,-2.6595,-2.658,-2.6118,-2.5718,-2.5333,-2.501,-2.4902,-2.5087,-2.5333,-2.5456,-2.5232,-2.5176,-2.601,-2.6746,-2.73,-2.7593,-2.7878,-2.8162,-2.8408,-2.8622,-2.8803,-2.8959,-2.9129,-2.938,-2.9576,-2.9509,-2.9525,-2.9252,-2.8912,-2.9091,-2.9206,-2.9434,-2.972,-2.946,-2.9048,-2.8618,-2.8025,-2.7458,-2.6829,-2.6088,-2.5251,-2.4756,-2.4934,-2.5017,-2.5157,-2.5332,-2.5484,-2.5503,-2.5744,-2.5961,-2.6279,-2.6436,-2.6708,-2.6773,-2.6215,-2.5563,-2.473,-2.415,-2.4045,-2.3407,-2.2921,-2.2527,-2.2071,-2.2157,-2.2296,-2.2313,-2.2313,-2.2313,-3.2398,-3.2398,-3.2398,-3.2398,-3.2398,-3.2398,-3.2398,-3.2398,-3.2398,-3.2398,-3.2398,-3.2398,-3.2398,-3.2398,-3.2398,-3.2398,-3.2398,-3.2398,-3.2009,-3.1409,-3.1182,-3.0412,-2.9766,-2.9412,-2.8919,-2.8673,-2.8519,-2.8427,-2.8411,-2.8411,-2.8411,-2.8411,-2.8411,-2.8411,-2.8411,-2.8411,-2.8411,-2.8411,-2.8411,-2.8411,-2.8411,-2.8396,-2.8365,-2.8304,-2.8304,-2.7873,-2.7519,-2.7765,-2.7272,-2.6703,-2.6325,-2.6118,-2.5995,-2.5841,-2.5903,-2.6041,-2.6164,-2.6164,-2.6332,-2.6833,-2.745,-2.6116,-2.6491,-2.7507,-2.7819,-2.8144,-2.8341,-2.8534,-2.8692,-2.8795,-2.9013,-2.9305,-2.9366,-2.9525,-2.9412,-2.8998,-2.8834,-2.8826,-2.8873,-2.9114,-2.9212,-2.8963,-2.8762,-2.8248,-2.7782,-2.7115,-2.6421,-2.5617,-2.517,-2.489,-2.4621,-2.4751,-2.4974,-2.4739,-2.4639,-2.5098,-2.5389,-2.576,-2.6033,-2.6192,-2.6402,-2.6691,-2.6051,-2.503,-2.5055,-2.518,-2.4429,-2.3144,-2.2658,-2.2231,-2.2243,-2.2296,-2.2282,-2.2313,-2.2313]},{"header":{"parameterUnit":"m.s-1","parameterCategory":1,"la1":31.0,"la2":29.5877,"lo1":-88.7671,"lo2":-86.6584,"dy":0.0162,"dx":0.0185,"nx":115,"ny":88,"refTime":"2026-05-14T00:00:00:Z","depth":0,"parameterNumber":3,"parameterNumberName":"V-component_of_WINDS"},"data":[0.0,0.0,0.0,0.0,0.0,0.0,0.0,0.0,0.0,0.0,0.0,0.0,0.0,0.0,0.0,0.0,0.0,0.0,0.0,0.0,0.0,0.0,0.0,0.0,0.0,0.0,0.0,0.0,0.0,0.0,0.0,0.0,0.0,0.0,0.0,0.0,0.0,0.0,0.0,0.0,0.0,0.0,0.0,0.0,0.0,0.0,0.0,0.0,0.0,0.0,0.0,0.0,0.0,0.0,0.0,0.0,0.0,0.0,0.0,0.0,0.0,0.0,0.0,0.0,0.0,0.0,0.0,0.0,0.0,0.0,0.0,0.0,0.0,0.0,0.0,0.0,0.0,0.0,0.0,0.0,0.0,0.0,0.0,0.0,0.0,0.0,0.0,0.0,0.0,0.0,0.0,0.0,0.0,0.0,0.0,0.0,0.0,0.0,0.0,0.0,0.0,0.0,0.0,0.0,0.0,0.0,0.0,0.0,0.0,0.0,0.0,0.0,0.0,0.0,0.0,0.0,0.0,0.0,0.0,0.0,0.0,0.0,0.0,0.0,0.0,0.0,0.0,0.0,0.0,0.0,0.0,0.0,0.0,0.0,0.0,0.0,0.0,0.0,0.0,0.0,0.0,0.0,0.0,0.0,0.0,0.0,0.0,0.0,0.0,0.0,0.0,0.0,0.0,0.0,0.0,0.0,0.0,0.0,0.0,0.0,0.0,0.0,0.0,0.0,0.0,0.0,0.0,0.0,0.0,0.0,0.0,0.0,0.0,0.0,0.0,0.0,0.0,0.0,0.0,0.0,0.0,0.0,0.0,0.0,0.0,0.0,0.0,0.0,0.0,0.0,0.0,0.0,0.0,0.0,0.0,0.0,0.0,0.0,0.0,0.0,0.0,0.0,0.0,0.0,0.0,0.0,0.0,0.0,0.0,0.0,0.0,0.0,0.0,0.0,0.0,0.0,0.0,0.0,0.0,0.0,0.0,0.0,0.0,0.0,0.0,0.0,0.0,0.0,0.0,0.0,0.0,0.0,0.0,0.0,0.0,0.0,0.0,0.0,0.0,0.0,0.0,0.0,0.0,0.0,0.0,0.0,0.0,0.0,0.0,0.0,0.0,0.0,0.0,0.0,0.0,0.0,0.0,0.0,0.0,0.0,0.0,0.0,0.0,0.0,0.0,0.0,0.0,0.0,0.0,0.0,0.0,0.0,0.0,0.0,0.0,0.0,0.0,0.0,0.0,0.0,0.0,0.0,0.0,0.0,0.0,0.0,0.0,0.0,0.0,0.0,0.0,0.0,0.0,0.0,0.0,0.0,0.0,0.0,0.0,0.0,0.0,0.0,0.0,0.0,0.0,0.0,0.0,0.0,0.0,0.0,0.0,0.0,0.0,0.0,0.0,0.0,0.0,0.0,0.0,0.0,0.0,0.0,0.0,0.0,0.0,0.0,0.0,0.0,0.0,0.0,0.0,0.0,0.0,0.0,0.0,0.0,0.0,0.0,0.0,0.0,0.0,0.0,0.0,0.0,0.0,0.0,0.0,0.0,0.0,0.0,0.0,0.0,0.0,0.0,0.0,0.0,0.0,0.0,0.0,0.0,0.0,0.0,0.0,0.0,0.0,0.0,0.0,0.0,0.0,0.0,0.0,0.0,0.0,0.0,0.0,0.0,0.0,0.0,0.0,0.0,0.0,0.0,0.0,0.0,0.0,0.0,0.0,0.0,0.0,0.0,0.0,0.0,0.0,0.0,0.0,0.0,0.0,0.0,0.0,0.0,0.0,0.0,0.0,0.0,0.0,0.0,0.0,0.0,0.0,0.0,0.0,0.0,0.0,0.0,0.0,0.0,0.0,0.0,0.0,0.0,0.0,0.0,0.0,0.0,0.0,0.0,0.0,0.0,0.0,0.0,0.0,0.0,0.0,0.0,0.0,0.0,0.0,0.0,0.0,0.0,0.0,0.0,0.0,0.0,0.0,0.0,0.0,0.0,0.0,0.0,0.0,0.0,0.0,0.0,0.0,0.0,0.0,0.0,0.0,0.0,0.0,0.0,0.0,0.0,0.0,0.0,0.0,0.0,0.0,0.0,0.0,0.0,0.0,0.0,0.0,0.0,0.0,0.0,0.0,0.0,0.0,0.0,0.0,0.0,0.0,0.0,0.0,0.0,0.0,0.0,0.0,0.0,0.0,0.0,0.0,0.0,0.0,0.0,0.0,0.0,0.0,0.0,0.0,0.0,0.0,0.0,0.0,0.0,0.0,0.0,0.0,0.0,0.0,0.0,0.0,0.0,0.0,0.0,0.0,0.0,0.0,0.0,0.0,0.0,0.0,0.0,0.0,0.0,0.0,0.0,0.0,0.0,0.0,0.0,0.0,0.0,0.0,0.0,0.0,0.0,0.0,0.0,0.0,0.0,0.0,0.0,0.0,0.0,0.0,0.0,0.0,0.0,0.0,0.0,0.0,0.0,0.0,0.0,0.0,0.0,0.0,0.0,0.0,0.0,0.0,0.0,0.0,0.0,0.0,0.0,0.0,0.0,0.0,0.0,0.0,0.0,0.0,0.0,0.0,0.0,0.0,0.0,0.0,0.0,0.0,0.0,0.0,0.0,0.0,0.0,0.0,0.0,0.0,0.0,0.0,0.0,0.0,0.0,0.0,0.0,0.0,0.0,0.0,0.0,0.0,0.0,0.0,0.0,0.0,0.0,0.0,0.0,0.0,0.0,0.0,0.0,0.0,0.0,0.0,0.0,0.0,0.0,0.0,0.0,0.0,0.0,0.0,0.0,0.0,0.0,0.0,0.0,0.0,0.0,0.0,0.0,0.0,0.0,0.0,0.0,0.0,0.0,0.0,0.0,0.0,0.0,0.0,0.0,0.0,0.0,0.0,0.0,0.0,0.0,0.0,0.0,0.0,0.0,0.0,0.0,0.0,0.0,0.0,0.0,0.0,0.0,0.0,0.0,0.0,0.0,0.0,0.0,0.0,0.0,0.0,0.0,0.0,0.0,0.0,0.0,0.0,0.0,0.0,0.0,0.0,0.0,0.0,0.0,0.0,0.0,0.0,0.0,0.0,0.0,0.0,0.0,0.0,0.0,0.0,0.0,0.0,0.0,0.0,0.0,0.0,0.0,0.0,0.0,0.0,0.0,0.0,0.0,0.0,0.0,0.0,0.0,0.0,0.0,0.0,0.0,0.0,0.0,0.0,0.0,0.0,0.0,0.0,0.0,0.0,0.0,0.0,0.0,0.0,0.0,0.0,0.0,0.0,0.0,0.0,0.0,0.0,0.0,0.0,0.0,0.0,0.0,0.0,0.0,0.0,0.0,0.0,0.0,0.0,0.0,0.0,0.0,0.0,0.0,0.0,0.0,0.0,0.0,0.0,0.0,0.0,0.0,0.0,0.0,0.0,0.0,0.0,0.0,0.0,0.0,0.0,0.0,0.0,0.0,0.0,0.0,0.0,0.0,0.0,0.0,0.0,0.0,0.0,0.0,0.0,0.0,0.0,0.0,0.0,0.0,0.0,0.0,0.0,0.0,0.0,0.0,0.0,0.0,0.0,0.0,0.0,0.0,0.0,0.0,0.0,0.0,0.0,0.0,0.0,0.0,0.0,0.0,0.0,0.0,0.0,0.0,0.0,0.0,0.0,0.0,0.0,0.0,0.0,0.0,0.0,0.0,0.0,0.0,0.0,0.0,0.0,0.0,0.0,0.0,0.0,0.0,0.0,0.0,0.0,0.0,0.0,0.0,0.0,0.0,0.0,0.0,0.0,0.0,0.0,0.0,0.0,0.0,0.0,0.0,0.0,0.0,0.0,0.0,0.0,0.0,0.0,0.0,0.0,0.0,0.0,0.0,0.0,0.0,0.0,0.0,0.0,0.0,0.0,0.0,0.0,0.0,0.0,0.0,0.0,0.0,0.0,0.0,0.0,0.0,0.0,0.0,0.0,0.0,0.0,0.0,0.0,0.0,0.0,0.0,0.0,0.0,0.0,0.0,0.0,0.0,0.0,0.0,0.0,0.0,0.0,0.0,0.0,0.0,0.0,0.0,0.0,0.0,0.0,0.0,0.0,0.0,0.0,0.0,0.0,0.0,0.0,0.0,0.0,0.0,0.0,0.0,0.0,0.0,0.0,0.0,0.0,0.0,0.0,0.0,0.0,0.0,0.0,0.0,0.0,0.0,0.0,0.0,0.0,0.0,0.0,0.0,0.0,0.0,0.0,0.0,0.0,0.0,0.0,0.0,0.0,0.0,0.0,0.0,0.0,0.0,0.0,0.0,0.1138,0.0,0.0,0.0,0.0,0.0,0.0,0.0,0.0,0.0,0.0,0.0,0.0,0.0,0.0,0.0,0.0,0.0,0.0,0.0,0.0,0.0,0.0,0.0,0.0,0.0,0.0,0.0,0.0,0.0,0.0,0.0,0.0,0.0,0.0,0.0,0.0,0.0,0.0,0.0,0.0,0.0,0.0,0.0,0.0,0.0,0.0,0.0,0.0,0.0,0.0,0.0,0.0,0.0,0.0,0.0,0.0,0.0,0.0,0.0,0.0,0.0,0.0,0.0,0.0,0.0,0.0,0.0,0.0,0.0,0.0,0.0,0.0,0.0,0.0,0.0,0.0,0.0,0.0,0.0,0.0,0.0,0.0,0.0,0.0,0.0,0.0,0.0,0.0,0.0,0.0,0.0,0.0,0.0,0.0,0.0,0.0,0.0,0.0,0.0,0.0,0.0,0.0,0.0,0.0,0.0,0.0,0.0,0.0,0.0,0.0,0.1588,0.1584,0.1487,0.1359,0.122,0.0,0.0,0.0,0.0,0.0,0.0,0.0,0.0,0.0,0.0,0.0,0.0,0.0,0.0,0.0,0.0,0.0,0.0,0.0,0.0,0.0,0.0,0.0,0.0,0.0,0.0,0.0,0.0,0.0,0.0,0.0,0.0,0.0,0.0,0.0,0.0,0.0,0.0,0.0,0.0,0.0,0.0,0.0,0.0,0.0,0.0,0.0,0.0,0.0,0.0,0.0,0.0,0.0,0.0,0.0,0.0,0.0,0.0,0.0,0.0,0.0,0.0,0.0,0.0,0.0,0.0,0.0,0.0,0.0,0.0,0.0,0.0,0.0,0.0,0.0,0.0,0.0,0.0,0.0,0.0,0.0,0.0,0.0,0.0,0.0,0.0,0.0,0.0,0.0,0.0,0.0,0.0,0.0,0.0,0.0,0.0,0.0,0.0,0.0,0.0,0.0,0.0,0.0,0.0,0.0,0.0,0.0,0.0,0.0,0.0,0.0,0.0,0.1495,0.1408,0.1383,0.0,0.0,0.0,0.0,0.0,0.0,0.0,0.0,0.0,0.0,0.0,0.0,0.0,0.0,0.0,0.0,0.0,0.0,0.0,0.0,0.0,0.0,0.0,0.0,0.0,0.0,0.0,0.0,0.0,0.0,0.0,0.0,0.0,0.0,0.0,0.0,0.0,0.0,0.0,0.0,0.0,0.0,0.0,0.0,0.0,0.0,0.0,0.0,0.0,0.0,0.0,0.0,0.0,0.0,0.0,0.0,0.0,0.0,0.0,0.0,0.0,0.0,0.0,0.0,0.0,0.0,0.0,0.0,0.0,0.0,0.0,0.0,0.0,0.0,0.0,0.0,0.0,0.0,0.0,0.0,0.0,0.0,0.0,0.0,0.0,0.0,0.0,0.0,0.0,0.0,0.0,0.0,0.0,0.0,0.0,0.0,0.0,0.0,0.0,0.0,0.0,0.0,0.0,0.0,0.0,0.0,0.0,0.0,0.0,0.0,0.1421,0.1686,0.1786,0.0,0.1616,0.0,0.0,0.0,0.0,0.0,0.0,0.0,0.0,0.0,0.0,0.0,0.0,0.0,0.0,0.0,0.0,0.0,0.0,0.0,0.0,0.0,0.0,0.0,0.0,0.0,0.0,0.0,0.0,0.0,0.0,0.0,0.0,0.0,0.0,0.0,0.0,0.0,0.0,0.0,0.0,0.0,0.0,0.0,0.0,0.0,0.0,0.0,0.0,0.0,0.0,0.0,0.0,0.0,0.0,0.0,0.0,0.0,0.0,0.0,0.0,0.0,0.0,0.0,0.0,0.0,0.0,0.0,0.0,0.0,0.0,0.0,0.0,0.0,0.0,0.0,0.0,0.0,0.0,0.0,0.0,0.0,0.0,0.0,0.0,0.0,0.0,0.0,0.0,0.0,0.0,0.0,0.0,0.0,0.0,0.0,0.0,0.0,0.0,0.0,0.0,0.0,0.0,0.0,0.0,0.0,0.0,0.0,0.0,0.0,0.0,0.0,0.1634,0.1687,0.1744,0.0,0.0,0.0,0.0,0.0,0.0,0.0,0.0,0.0,0.0,0.0,0.0,0.0,0.0,0.0,0.0,0.0,0.0,0.0,0.0,0.0,0.0,0.0,0.0,0.0,0.0,0.0,0.0,0.0,0.0,0.0,0.0,0.0,0.0,0.0,0.0,0.0,0.0,0.0,0.0,0.0,0.0,0.0,0.0,0.0,0.0,0.0,0.0,0.0,0.0,0.0,0.0,0.0,0.0,0.0,0.0,0.0,0.0,0.0,0.0,0.0,0.0,0.0,0.0,0.0,0.0,0.0,0.0,0.0,0.0,0.0,0.0,0.0,0.0,0.0,0.0,0.0,0.0,0.0,0.0,0.0,0.0,0.0,0.0,0.0,0.0,0.0,0.0,0.0,0.0,0.0,0.0,0.0,0.0,0.0,0.0,0.0,0.0,0.0,0.0,0.0,0.0,0.0,0.0,0.0,0.0,0.0,0.0,0.0,0.0,0.1495,0.0,0.1736,0.175,0.1796,0.1897,0.0,0.0,0.0,0.0,0.0,0.0,0.0,0.0,0.0,0.0,0.0,0.0,0.0,0.0,0.0,0.0,0.0,0.0,0.0,0.0,0.0,0.0,0.0,0.0,0.0,0.0,0.0,0.0,0.0,0.0,0.0,0.0,0.0,0.0,0.0,0.0,0.0,0.0,0.0,0.0,0.0,0.0,0.0,0.0,0.0,0.0,0.0,0.0,0.0,0.0,0.0,0.0,0.0,0.0,0.0,0.0,0.0,0.0,0.0,0.0,0.0,0.0,0.0,0.0,0.0,0.0,0.0,0.0,0.0,0.0,0.0,0.0,0.0,0.0,0.0,0.0,0.0,0.0,0.0,0.0,0.0,0.0,0.0,0.0,0.0,0.0,0.0,0.0,0.0,0.0,0.0,0.0,0.0,0.0,0.0,0.0,0.0,0.0,0.0,0.0,0.0,0.0,0.0,0.0,0.0,0.0,0.0,0.0,0.0,0.1707,0.1751,0.2079,0.2076,0.2022,0.0,0.0,0.0,0.0,0.0,0.0,0.0,0.0,0.0,0.0,0.0,0.0,0.0,0.0,0.0,0.0,0.0,0.0,0.0,0.0,0.0,0.0,0.0,0.0,0.0,0.0,0.0,0.0,0.0,0.0,0.0,0.0,0.0,0.0,0.0,0.0,0.0,0.0,0.0,0.0,0.0,0.0,0.0,0.0,0.0,0.0,0.0,0.0,0.0,0.0,0.0,0.0,0.0,0.0,0.0,0.0,0.0,0.0,0.0,0.0,0.0,0.0,0.0,0.0,0.0,0.0,0.0,0.0,0.0,0.0,0.0,0.0,0.0,0.0,0.0,0.0,0.0,0.0,0.0,0.0,0.0,0.0,0.0,0.0,0.0,0.0,0.0,0.0,0.0,0.0,0.0,0.0,0.0,0.0,0.0,0.0,0.0,0.0,0.0,0.0,0.0,0.0,0.0,0.0,0.0,0.0,0.0,0.0,0.0,0.1356,0.1507,0.1877,0.2445,0.2152,0.2036,0.0,0.0,0.0,0.0,0.0,0.0,0.0,0.0,0.0,0.0,0.0,0.0,0.0,0.0,0.0,0.0,0.0,0.0,0.0,0.0,0.0,0.0,0.0,0.0,0.0,0.0,0.0,0.0,0.0,0.0,0.0,0.0,0.0,0.0,0.0,0.0,0.0,0.0,0.0,0.0,0.0,0.0,0.0,0.0,0.0,0.0,0.0,0.0,0.0,0.0,0.0,0.0,0.0,0.0,0.0,0.0,0.0,0.0,0.0,0.0,0.0,0.0,0.0,0.0,0.0,0.0,0.0,0.0,0.0,0.0,0.0,0.0,0.0,0.0,0.0,0.0,0.0,0.0,0.0,0.0,0.0,0.0,0.0,0.0,0.0,0.0,0.0,0.0,0.0,0.0,0.0,0.0,0.0,0.0,0.0,0.0,0.0,0.0,0.0,0.0,0.0,0.0,0.0,0.0,0.0,0.0,0.0,0.0,0.0,0.1344,0.0,0.2107,0.0,0.2227,0.2103,0.0,0.0,0.0,0.0,0.0,0.0,0.0,0.0,0.0,0.0,0.0,0.0,0.0,0.0,0.0,0.0,0.0,0.0,0.0,0.0,0.0,0.0,0.0,0.0,0.0,0.0,0.0,0.0,0.0,0.0,0.0,0.0,0.0,0.0,0.0,0.0,0.0,0.0,0.0,0.0,0.0,0.0,0.0,0.0,0.0,0.0,0.0,0.0,0.0,0.0,0.0,0.0,0.0,0.0,0.0,0.0,0.0,0.0,0.0,0.0,0.0,0.0,0.0,0.0,0.0,0.0,0.0,0.0,0.0,0.0,0.0,0.0,0.0,0.0,0.0,0.0,0.0,0.0,0.0,0.0,0.0,0.0,0.0,0.0,0.0,0.0,0.0,0.0,0.0,0.0,0.0,0.0,0.0,0.0,0.0,0.0,0.0,0.0,0.0,0.0,0.0,0.0,0.0,0.0,0.0,0.0,0.0,0.0,0.0,0.2052,0.2384,0.2364,0.2035,0.2309,0.2196,0.0,0.0,0.0,0.0,0.0,0.0,0.0,0.0,0.0,0.0,0.0,0.0,0.0,0.0,0.0,0.0,0.0,0.0,0.0,0.0,0.0,0.0,0.0,0.0,0.0,0.0,0.0,0.0,0.0,0.0,0.0,0.0,0.0,0.0,0.0,0.0,0.0,0.0,0.0,0.0,0.0,0.0,0.0,0.0,0.0,0.0,0.0,0.0,0.0,0.0,0.0,0.0,0.0,0.0,0.0,0.0,0.0,0.0,0.0,0.0,0.0,0.0,0.0,0.0,0.0,0.0,0.0,0.0,0.0,0.0,0.0,0.0,0.0,0.0,0.0,0.0,0.0,0.0,0.0,0.0,0.0,0.0,0.0,0.0,0.0,0.0,0.0,0.0,0.0,0.0,0.0,0.0,0.0,0.0,0.0,0.0,0.0,0.0,0.0,0.0,0.0,0.0,0.0,0.0,0.0,0.0,0.0,0.0,0.0,0.1628,0.194,0.2204,0.2331,0.2099,0.2008,0.0,0.0,0.0,0.0,0.0,0.0,0.0,0.0,0.0,0.0,0.0,0.0,0.0,0.0,0.0,0.0,0.0,0.0,0.0,0.0,0.0,0.0,0.0,0.0,0.0,0.0,0.0,0.0,0.0,0.0,0.0,0.0,0.0,0.0,0.0,0.0,0.0,0.0,0.0,0.0,0.0,0.0,0.0,0.0,0.0,0.0,0.0,0.0,0.0,0.0,0.0,0.0,0.0,0.0,0.0,0.0,0.0,0.0,0.0,0.0,0.0,0.0,0.0,0.0,0.0,0.0,0.0,0.0,0.0,0.0,0.0,0.0,0.0,0.0,0.0,0.0,0.0,0.0,0.0,0.0,0.0,0.0,0.0,0.0,0.0,0.0,0.0,0.0,0.0,0.0,0.0,0.0,0.0,0.0,0.0,0.0,0.0,0.0,0.0,0.0,0.0,0.0,0.0,0.0,0.0,0.0,0.0,0.0,0.0,0.1828,0.2112,0.2348,0.2462,0.224,0.2132,0.2216,0.0,0.0,0.0,0.0,0.0,0.0,0.0,0.0,0.0,0.0,0.0,0.0,0.0,0.0,0.0,0.0,0.0,0.0,0.0,0.0,0.0,0.0,0.0,0.0,0.0,0.0,0.0,0.0,0.0,0.0,0.0,0.0,0.0,0.0,0.0,0.0,0.0,0.0,0.0,0.0,0.0,0.0,0.0,0.0,0.0,0.0,0.0,0.0,0.0,0.0,0.0,0.0,0.0,0.0,0.0,0.0,0.0,0.0,0.0,0.0,0.0,0.0,0.0,0.0,0.0,0.0,0.0,0.0,0.0,0.0,0.0,0.0,0.0,0.0,0.0,0.0,0.0,0.0,0.0,0.0,0.0,0.0,0.0,0.0,0.0,0.0,0.0,0.0,0.0,0.0,0.0,0.0,0.0,0.0,0.0,0.0,0.0,0.0,0.0,0.0,0.0,0.0,0.0,0.0,0.0,0.0,0.0,0.0,0.2509,0.2791,0.2801,0.2477,0.2652,0.2506,0.0,0.0,0.0,0.0,0.0,0.0,0.0,0.0,0.0,0.0,0.0,0.0,0.0,0.0,0.0,0.0,0.0,0.0,0.0,0.0,0.0,0.0,0.0,0.0,0.0,0.0,0.0,0.0,0.0,0.0,0.0,0.0,0.0,0.0,0.0,0.0,0.0,0.0,0.0,0.0,0.0,0.0,0.0,0.0,0.0,0.0,0.0,0.0,0.0,0.0,0.0,0.0,0.0,0.0,0.0,0.0,0.0,0.0,0.0,0.0,0.0,0.0,0.0,0.0,0.0,0.0,0.0,0.0,0.0,0.0,0.0,0.0,0.0,0.0,0.0,0.0,0.0,0.0,0.0,0.0,0.0,0.0,0.0,0.0,0.0,0.0,0.0,0.0,0.0,0.0,0.0,0.0,0.0,0.0,0.0,0.0,0.0,0.0,0.0,0.0,0.0,0.0,0.0,0.0,0.0,0.0,0.0,0.0,0.0,0.274,0.3187,0.3302,0.3061,0.2747,0.2503,0.0,0.0,0.0,0.0,0.0,0.0,0.0,0.0,0.0,0.0,0.0,0.0,0.0,0.0,0.0,0.0,0.0,0.0,0.0,0.0,0.0,0.0,0.0,0.0,0.0,0.0,0.0,0.0,0.0,0.0,0.0,0.0,0.0,0.0,0.0,0.0,0.0,0.0,0.0,0.0,0.0,0.0,0.0,0.0,0.0,0.0,0.0,0.0,0.0,0.0,0.0,0.0,0.0,0.0,0.0,0.0,0.0,0.0,0.0,0.0,0.0,0.0,0.0,0.0,0.0,0.0,0.0,0.0,0.0,0.0,0.0,0.0,0.0,0.0,0.0,0.0,0.0,0.0,0.0,0.0,0.0,0.0,0.0,0.0,0.0,0.0,0.0,0.0,0.0,0.0,0.0,0.0,0.0,0.0,0.0,0.0,0.0,0.0,0.0,0.0,0.0,0.0,0.0,0.0,0.0,0.0,0.0,0.0,0.3372,0.3159,0.3733,0.3811,0.3305,0.2939,0.2686,0.0,0.0,0.0,0.0,0.0,0.0,0.0,0.0,0.0,0.0,0.0,0.0,0.0,0.0,0.0,0.0,0.0,0.0,0.0,0.0,0.0,0.0,0.0,0.0,0.0,0.0,0.0,0.0,0.0,0.0,0.0,0.0,0.0,0.0,0.0,0.0,0.0,0.0,0.0,0.0,0.0,0.0,0.0,0.0,0.0,0.0,0.0,0.0,0.0,0.0,0.0,0.0,0.0,0.0,0.0,0.0,0.0,0.0,0.0,0.0,0.0,0.0,0.0,0.0,0.0,0.0,0.0,0.0,0.0,0.0,0.0,0.0,0.0,0.0,0.0,0.0,0.0,0.0,0.0,0.0,0.0,0.0,0.0,0.0,0.0,0.0,0.0,0.0,0.0,0.0,0.0,0.0,0.0,0.0,0.0,0.0,0.0,0.0,0.0,0.0,0.0,0.0,0.0,0.0,0.0,0.0,0.0,0.0,0.4067,0.3659,0.4313,0.4263,0.3406,0.3232,0.2951,0.0,0.0,0.0,0.0,0.0,0.0,0.0,0.0,0.0,0.0,0.0,0.0,0.0,0.0,0.0,0.0,0.0,0.0,0.0,0.0,0.0,0.0,0.0,0.0,0.0,0.0,0.0,0.0,0.0,0.0,0.0,0.0,0.0,0.0,0.0,0.0,0.0,0.0,0.0,0.0,0.0,0.0,0.0,0.0,0.0,0.0,0.0,0.0,0.0,0.0,0.0,0.0,0.0,0.0,0.0,0.0,0.0,0.0,0.0,0.0,0.0,0.0,0.0,0.0,0.0,0.0,0.0,0.0,0.0,0.0,0.0,0.0,0.0,0.0,0.0,0.0,0.0,0.0,0.0,0.0,0.0,0.0,0.0,0.0,0.0,0.0,0.0,0.0,0.0,0.0,0.0,0.0,0.0,0.0,0.0,0.0,0.0,0.0,0.0,0.0,0.0,0.0,0.0,0.0,0.0,0.0,0.0,0.0,0.4077,0.393,0.4314,0.4306,0.3784,0.3606,0.3241,0.0,0.0,0.0,0.0,0.0,0.0,0.0,0.0,0.0,0.0,0.0,0.0,0.0,0.0,0.0,0.0,0.0,0.0,0.0,0.0,0.0,0.0,0.0,0.0,0.0,0.0,0.0,0.0,0.0,0.0,0.0,0.0,0.0,0.0,0.0,0.0,0.0,0.0,0.0,0.0,0.0,0.0,0.0,0.0,0.0,0.0,0.0,0.0,0.0289,0.0,0.0,0.0,0.0,0.0,0.0,0.0,0.0,0.0,0.0,0.0,0.0,0.0,0.0,0.0,0.0,0.0,0.0,0.0,0.0,0.0,0.0,0.0,0.0,0.0,0.0,0.0,0.0,0.0,0.0,0.0,0.0,0.0,0.0,0.0,0.0,0.0,0.0,0.0,0.0,0.0,0.0,0.0,0.0,0.0,0.0,0.0,0.0,0.0,0.0,0.0,0.0,0.0,0.0,0.0,0.0,0.0,0.0,0.0,0.519,0.4832,0.5417,0.5262,0.434,0.4497,0.4227,0.0,0.0,0.0,0.0,0.0,0.0,0.0,0.0,0.0,0.0,0.0,0.0,0.0,0.0,0.0,0.0,0.0,0.0,0.0,0.0,0.0,0.0,0.0,0.0,0.0,0.0,0.0,0.0,0.0,0.0,0.0,0.0,0.0,0.0,0.0,0.0,0.0,0.0,0.0,0.0,0.0,0.0,0.0,0.0,0.0,0.0,0.0,0.0,0.0,0.0,0.0,0.0,0.0,0.0,0.0,0.0,0.0,0.0,0.0,0.0,0.0,0.0,0.0,0.0,0.0,0.0,0.0,0.0,0.0,0.0,0.0,0.0,0.0,0.0,0.0,0.0,0.0,0.0,0.0,0.0,0.0,0.0,0.0,0.0,0.0,0.0,0.0,0.0,0.0,0.0,0.0,0.0,0.0,0.0,0.0,0.0,0.0,0.0,0.0,0.0,0.0,0.0,0.0,0.0,0.0,0.0,0.0,0.5897,0.6314,0.5793,0.653,0.6302,0.4931,0.5541,0.5385,0.4266,0.0,0.0,0.0,0.0,0.0,0.0,0.0,0.0,0.0,0.0,0.0,0.0,0.0,0.0,0.0,0.0,0.0,0.0,0.0,0.0,0.0,0.0,0.0,0.0,0.0,0.0,0.0,0.0,0.0,0.0,0.0,0.0,0.0,0.0,0.0,0.0,0.0,0.0,0.0886,0.0937,0.0,0.0,0.0,0.0,0.0,0.0,0.0,0.0,0.0213,0.0,0.0,0.0,0.0,0.0,0.0,0.0,0.0,0.0,0.0,0.0,0.0,0.0,0.0,0.0,0.0,0.0,0.0,0.0,0.0,0.0,0.0,0.0,0.0,0.0,0.0,0.0,0.0,0.0,0.0,0.0,0.0,0.0,0.0,0.0,0.0,0.0,0.0,0.0,0.0,0.0,0.0,0.0,0.0,0.0,0.0,0.0,0.0,0.0,0.0,0.0,0.0,0.0,0.0,0.0,0.0,0.5067,0.5504,0.5754,0.5869,0.6176,0.6135,0.574,0.6155,0.5991,0.5196,0.0,0.0,0.0,0.0,0.0,0.0,0.0,0.0,0.0,0.0,0.0,0.0,0.0,0.0,0.0,0.0,0.0,0.0,0.0,0.0,0.0,0.0,0.0,0.0,0.0,0.0,0.0,0.0,0.0,0.0,0.0,0.0,0.0,0.0,0.0,0.0,0.0,0.0,0.0,0.1045,0.1095,0.0,0.0,0.0,0.0,0.0,0.0,0.0,0.0,0.0303,0.0,0.0,0.0,0.0,0.0,0.0,0.0,0.0,0.0,0.0,0.0,0.0,0.0,0.0,0.0,0.0,0.0,0.0,0.0,0.0,0.0,0.0,0.0,0.0,0.0,0.0,0.0,0.0,0.0,0.0,0.0,0.0,0.0,0.0,0.0,0.0,0.0,0.0,0.0,0.0,0.0,0.0,0.0,0.0,0.0,0.0,0.0,0.0,0.0,0.0,0.0,0.0,0.0,0.0,0.0,0.5208,0.5992,0.6435,0.6566,0.68,0.6742,0.6367,0.6469,0.6163,0.0,0.0,0.0,0.0,0.0,0.0,0.0,0.0,0.0,0.0,0.0,0.0,0.0,0.0,0.0,0.0,0.0,0.0,0.0,0.0,0.0,0.0,0.0,0.0,0.0,0.0,0.0,0.0,0.0,0.0,0.0,0.0,0.0,0.0,0.0,0.0,0.0,0.0,0.0,0.0,0.1133,0.1126,0.0935,0.0,0.0,0.0,0.0,0.0,0.0,0.0275,0.0301,0.0,0.0,0.0,0.0,0.0,0.0,0.0,0.0,0.0,0.0,0.0,0.0,0.0,0.0,0.0,0.0,0.0,0.0,0.0,0.0,0.0,0.0,0.0,0.0,0.0,0.0,0.0,0.0,0.0,0.0,0.0,0.0,0.0,0.0,0.0,0.0,0.0,0.0,0.0,0.0,0.0,0.0,0.0,0.0,0.0,0.0,0.0,0.0,0.0,0.0,0.0,0.0,0.0,0.0,0.0,0.531,0.6501,0.7151,0.7206,0.7455,0.737,0.6896,0.6634,0.6142,0.0,0.0,0.0,0.0,0.0,0.0,0.0,0.0,0.0,0.0,0.0,0.0,0.0,0.0,0.0,0.0,0.0,0.0,0.0,0.0,0.0,0.0,0.0,0.0,0.0,0.0,0.0,0.0,0.0,0.0,0.0,0.0,0.0,0.0,0.0,0.0,0.0,0.0,0.0,0.0,0.0,0.1211,0.1017,0.0817,0.0,0.0,0.0,0.0,0.0483,0.0421,0.0,0.0,0.0,0.0,0.0,0.0,0.0,0.0,0.0,0.0,0.0,0.0,0.0,0.0,0.0,0.0,0.0,0.0,0.0,0.0,0.0,0.0,0.0,0.0,0.0,0.0,0.0,0.0,0.0,0.0,0.0,0.0,0.0,0.0,0.0,0.0,0.0,0.0,0.0,0.0,0.0,0.0,0.0,0.0,0.0,0.0,0.0,0.0,0.0,0.0,0.0,0.0,0.0,0.0,0.0,0.0,0.5553,0.6404,0.6946,0.72,0.7455,0.7455,0.7158,0.6732,0.6162,0.0,0.0,0.0,0.0,0.0,0.0,0.0,0.0,0.0,0.0,0.0,0.0,0.0,0.0,0.0,0.0,0.0,0.0,0.0,0.0,0.0,0.0,0.0,0.0,0.0,0.0,0.0,0.0,0.0,0.0,0.0,0.0,0.0,0.0,0.0,0.0,0.0,0.0,0.0,0.0,0.0,0.149,0.128,0.1089,0.129,0.0,0.0,0.0,0.1186,0.0837,0.0,0.0,0.0,0.0,0.0,0.0,0.0,0.0,0.0,0.0,0.0,0.0,0.0,0.0,0.0,0.0,0.0,0.0,0.0,0.0,0.0,0.0,0.0,0.0,0.0,0.0,0.0,0.0,0.0,0.0,0.0,0.0,0.0,0.0,0.0,0.0,0.0,0.0,0.0,0.0,0.0,0.0,0.0,0.0,0.0,0.0,0.0,0.0,0.0,0.0,0.0,0.0,0.0,0.0,0.0,0.4941,0.5621,0.6522,0.7085,0.7194,0.7309,0.7315,0.72,0.6428,0.58,0.0,0.0,0.0,0.0,0.0,0.0,0.0,0.0,0.0,0.0,0.0,0.0,0.0,0.0,0.0,0.0,0.0,0.0,0.0,0.0,0.0,0.0,0.0,0.0,0.0,0.0,0.0,0.0,0.0,0.0,0.0,0.0,0.0,0.0,0.0,0.0,0.0,0.0,0.0,0.0,0.0,0.0,0.1624,0.1416,0.0,0.0,0.0,0.0823,0.088,0.0,0.0,0.0,0.0,0.0,0.0,0.0,0.0,0.0,0.0,0.0,0.0,0.0,0.0,0.0,0.0,0.0,0.0,0.0,0.0,0.0,0.0,0.0,0.0,0.0,0.0,0.0,0.0,0.0,0.0,0.0,0.0,0.0,0.0,0.0,0.0,0.0,0.0,0.0,0.0,0.0,0.0,0.0,0.0,0.0,0.0,0.0,0.0,0.0,0.0,0.0,0.0,0.0,0.0,0.0,0.0,0.0,0.5602,0.6653,0.717,0.7109,0.7164,0.7164,0.7108,0.6165,0.0,0.0,0.0,0.0,0.0,0.0,0.0,0.0,0.0,0.0,0.0,0.0,0.0,0.0,0.0,0.0,0.0,0.0,0.0,0.0,0.0,0.0,0.0,0.0,0.0,0.0,0.0,0.0138,0.0,0.0,0.0,0.0,0.0,0.0,0.0,0.0,0.0,0.0,0.0,0.0,0.0,0.0,0.2025,0.1913,0.1691,0.1343,0.0,0.0,0.0975,0.0828,0.0698,0.0611,0.0,0.0,0.0,0.0,0.0,0.0,0.0,0.0,0.0,0.0,0.0,0.0,0.0,0.0,0.0,0.0,0.0,0.0,0.0,0.0,0.0,0.0,0.0,0.0,0.0,0.0,0.0,0.0,0.0,0.0,0.0,0.0,0.0,0.0,0.0,0.0,0.0,0.0,0.0,0.0,0.0,0.0,0.0,0.0,0.0,0.0,0.0,0.0,0.0,0.0,0.0,0.0,0.0,0.0,0.0,0.5614,0.6659,0.7079,0.6848,0.7079,0.7126,0.6918,0.6182,0.5567,0.0,0.0,0.0,0.0,0.0,0.0,0.0,0.0,0.0,0.0,0.0,0.0,0.0,0.0,0.0,0.0,0.0,0.0,0.0,0.0,0.0,0.0,0.0,0.0,0.0,0.0,0.0,0.0,0.0,0.0,0.0,0.0,0.0,0.0,0.0,0.0,0.0,0.0,0.0,0.0,0.0,0.2046,0.215,0.1848,0.158,0.0,0.0,0.0797,0.1496,0.1042,0.061,0.0617,0.0,0.0,0.0,0.0,0.0,0.0,0.0,0.0,0.0,0.0,0.0,0.0,0.0,0.0,0.0,0.0,0.0,0.0,0.0,0.0,0.0,0.0,0.0,0.0,0.0,0.0,0.0,0.0,0.0,0.0,0.0,0.0,0.0,0.0,0.0,0.0,0.0,0.0,0.0,0.0,0.0,0.0,0.0,0.0,0.0,0.0,0.0,0.0,0.0,0.0,0.0,0.0,0.0,0.505,0.5596,0.6495,0.6908,0.6817,0.6902,0.6908,0.6844,0.6122,0.5588,0.0,0.0,0.0,0.0,0.0,0.0,0.0,0.0,0.0,0.0,0.0,0.0,0.0,0.0,0.0,0.0,0.0,0.0,0.0,0.0,0.0,0.0,0.0,0.0,0.0,0.0,0.0,0.0,0.1048,0.1092,0.0913,0.0,0.0,0.0,0.0,0.0,0.0,0.0,0.0,0.0,0.0,0.2055,0.1856,0.1971,0.0,0.0,0.1258,0.0856,0.1161,0.0836,0.055,0.0529,0.0549,0.0,0.0,0.0,0.0,0.0,0.0,0.0,0.0,0.0,0.0,0.0,0.0,0.0,0.0,0.0,0.0,0.0,0.0,0.0,0.0,0.0,0.0,0.0,0.0,0.0,0.0,0.0,0.0,0.0,0.0,0.0,0.0,0.0,0.0,0.0,0.0,0.0,0.0,0.0,0.0,0.0,0.0,0.0,0.0,0.0,0.0,0.0,0.0,0.0,0.0,0.0,0.0,0.505,0.5596,0.6398,0.6746,0.669,0.674,0.6769,0.6694,0.6179,0.5744,0.0,0.0,0.0,0.0,0.0,0.0,0.0,0.0,0.0,0.0,0.0,0.0,0.0,0.0,0.0,0.0,0.0,0.0,0.0,0.0,0.0,0.0,0.0,0.0,0.0,0.0,0.0,0.0,0.1133,0.1105,0.0917,0.0,0.0,0.0,0.0,0.0,0.0,0.0,0.0,0.0,0.0,0.2049,0.1819,0.2054,0.2234,0.2196,0.1531,0.1031,0.1094,0.0752,0.0491,0.0487,0.0,0.0,0.0,0.0,0.0,0.0,0.0,0.0,0.0,0.0,0.0,0.0,0.0,0.0,0.0,0.0,0.0,0.0,0.0,0.0,0.0,0.0,0.0,0.0,0.0,0.0,0.0,0.0,0.0,0.0,0.5094,0.0,0.0,0.0,0.0,0.0,0.0,0.0,0.0,0.0,0.0,0.0,0.0,0.0,0.0,0.0,0.0,0.0,0.0,0.0,0.0,0.0,0.0,0.0,0.5596,0.6386,0.6684,0.6447,0.6671,0.6722,0.6523,0.6349,0.6047,0.5508,0.0,0.0,0.0,0.0,0.0,0.0,0.0,0.0,0.0,0.0,0.0,0.0,0.0,0.0,0.0,0.0,0.0,0.0,0.0,0.0,0.0,0.0,0.0,0.0,0.0,0.0,0.1481,0.1147,0.0907,0.0,0.0,0.0,0.0,0.0,0.0,0.0,0.0,0.0,0.0,0.2083,0.2059,0.2163,0.2038,0.2004,0.215,0.1671,0.1361,0.153,0.0964,0.0493,0.0,0.0,0.0,0.0,0.0,0.0,0.0,0.0,0.0,0.0,0.0,0.0,0.0,0.0,0.0,0.0,0.0,0.0,0.0,0.0,0.0,0.0,0.0,0.0,0.0,0.0,0.0,0.9237,0.8242,0.0,0.0,0.0,0.0,0.0,0.0,0.0,0.0,0.0,0.0,0.0,0.9078,0.9334,0.0,0.0,0.0,0.0,0.0,0.0,0.0,0.0,0.0,0.0,0.0,0.0,0.5129,0.5658,0.6373,0.6681,0.6608,0.6696,0.6696,0.6623,0.6449,0.6039,0.5386,0.0,0.0,0.0,0.0,0.0,0.0,0.0,0.0,0.0,0.0,0.0,0.0,0.0,0.0,0.0,0.0,0.0,0.0,0.0,0.0,0.0,0.0,0.0,0.0,0.0,0.1532,0.0,0.0,0.0,0.0,0.0,0.0,0.0,0.0,0.0,0.0,0.0,0.2204,0.2201,0.2235,0.2255,0.2197,0.2219,0.2145,0.0,0.0,0.0,0.0,0.0,0.0,0.0,0.0,0.0,0.0,0.0,0.0,0.0,0.0,0.0567,0.0704,0.0355,-0.0022,-0.0226,0.0,0.0,0.0,0.0,0.0,0.0,0.0,0.0,0.0,0.0,0.0,0.0,0.0,0.0,0.0,0.0,1.0273,0.0,0.0,0.0,0.0,0.0,0.0,0.0,0.0,0.9897,1.0272,1.053,1.0658,1.0467,0.0,0.9506,0.8701,0.0,0.0,0.0,0.0,0.0,0.0,0.0,0.0,0.5349,0.5977,0.6413,0.6645,0.6645,0.663,0.6687,0.6859,0.6613,0.6284,0.5873,0.5326,0.4811,0.0,0.0,0.0,0.0,0.0,0.0,0.0,0.0,0.0,0.0,0.0,0.0,0.0,0.0,0.0,0.0,0.0,0.0,0.0,0.0,0.0,0.0,0.0,0.1625,0.0,0.0,0.0,0.0,0.0,0.0,0.0,0.0,0.0,0.174,0.2081,0.2334,0.237,0.2323,0.2293,0.2272,0.0,0.0,0.0,0.0,0.0,0.0,0.0,0.0745,0.0839,0.0787,0.0662,0.056,0.0533,0.0485,0.047,0.0,0.0,0.0656,0.0408,0.0076,-0.0228,-0.0706,-0.1081,-0.1217,-0.1351,-0.1456,0.0,0.0,0.0,0.0,0.0,0.0,0.0,0.0,1.2788,1.2962,0.0,1.1829,0.0,0.0,0.0,0.0,0.0,0.0,0.0,0.0,1.1715,1.2094,1.2101,1.1728,1.1544,1.1568,1.1489,1.109,1.0224,0.7852,0.0,0.0,0.0,0.0,0.0,0.0,0.5768,0.6537,0.6627,0.6623,0.67,0.656,0.6717,0.7189,0.6857,0.6745,0.6858,0.5907,0.5228,0.4928,0.4521,0.0,0.0,0.0,0.0,0.0,0.0,0.0,0.0,0.0,0.0,0.0,0.0,0.0,0.0,0.0,0.0,0.0,0.0,0.0,0.0,0.1967,0.0,0.0,0.0,0.0,0.0,0.0,0.0,0.0,0.0,0.0,0.2043,0.2052,0.2184,0.2638,0.0,0.0,0.0,0.0,0.2559,0.2927,0.2281,0.1776,0.1903,0.16,0.117,0.0763,0.0,0.0,0.0874,0.0639,0.0538,0.0595,0.0561,0.0505,0.0522,0.0401,0.0169,-0.023,-0.0571,-0.0938,-0.1369,-0.1498,-0.1526,1.5748,0.0,0.0,0.0,0.0,1.5043,1.5606,1.5605,1.6487,1.5658,1.3702,1.3766,0.0,0.0,0.0,0.0,0.0,0.0,1.1522,1.219,1.2413,1.268,1.2964,1.2837,1.2773,1.2755,1.2211,1.1816,1.154,1.0273,0.8772,0.7137,0.0,0.0,0.0,0.0,0.7437,0.7842,0.8133,0.8293,0.8301,0.7969,0.7814,0.7972,0.7636,0.7367,0.7185,0.6657,0.6104,0.5551,0.4977,0.0,0.0,0.0,0.0,0.0,0.0,0.0,0.0,0.0,0.0,0.0,0.0,0.0,0.0,0.0,0.0,0.0,0.0,0.0,0.2269,0.2652,0.2686,0.0,0.0,0.0,0.0,0.0,0.0,0.0,0.0,0.0,0.2469,0.2588,0.2675,0.0,0.0,0.2785,0.2634,0.2774,0.2951,0.3044,0.0,0.0,0.0,0.209,0.1915,0.2015,0.1634,0.1267,0.1177,0.0914,0.0735,0.0784,0.0761,0.074,0.0756,0.0597,0.0246,-0.0295,-0.0517,-0.0803,-0.1401,-0.1572,-0.1595,1.8874,1.7054,1.6618,1.6589,1.6908,1.7882,1.8227,1.8162,1.8557,1.7722,1.6083,1.5936,1.476,1.2834,1.1841,0.0,0.0,0.0,1.2404,1.3176,1.3176,1.3396,1.3754,1.3607,1.3525,1.3506,1.2891,1.2505,1.2321,1.1844,1.071,0.8994,0.0,0.0,0.7787,0.818,0.8737,0.9306,0.9215,0.9159,0.9142,0.8723,0.8513,0.8496,0.8104,0.7842,0.778,0.7149,0.6659,0.6364,0.5818,0.5286,0.0,0.0,0.0,0.0,0.0,0.0,0.0,0.0,0.0,0.0,0.0,0.1985,0.0,0.0,0.0,0.0,0.2283,0.254,0.2698,0.3048,0.0,0.0,0.0,0.0,0.0,0.0,0.0,0.3413,0.2893,0.2676,0.3073,0.308,0.303,0.2976,0.3046,0.3073,0.2937,0.0,0.3263,0.3137,0.2817,0.2691,0.2926,0.2498,0.2186,0.2355,0.1857,0.1419,0.1384,0.0987,0.0731,0.0775,0.0734,0.069,0.0723,0.0606,0.0303,-0.0319,-0.0471,-0.0738,-0.1457,-0.159,-0.159,2.1929,2.208,2.0767,2.0271,2.0369,2.0808,2.0653,2.0098,1.9532,1.9316,1.9188,1.8124,1.6921,1.5536,1.3376,0.0,0.0,1.29,1.3295,1.3974,1.3947,1.4139,1.4488,1.4112,1.3957,1.3948,1.3525,1.3167,1.2825,1.2726,1.2128,1.1044,1.0197,0.9805,0.9726,0.9373,0.9748,1.081,1.0014,0.9538,0.9468,0.9081,0.8861,0.8852,0.8336,0.8175,0.8453,0.7429,0.6933,0.7172,0.678,0.6189,0.5384,0.0,0.0,0.0,0.0,0.0,0.0,0.0,0.0,0.0,0.0,0.0,0.0,0.0,0.0,0.0,0.2954,0.0,0.3269,0.3269,0.0,0.0,0.0,0.4072,0.2239,0.3692,0.4745,0.46,0.0,0.0,0.0,0.0,0.3375,0.3409,0.3246,0.3191,0.331,0.3449,0.3498,0.3192,0.289,0.2904,0.3415,0.286,0.2326,0.2343,0.1901,0.1651,0.155,0.0963,0.0616,0.0685,0.0594,0.0522,0.0522,0.0538,0.0336,-0.0235,-0.0437,-0.0688,-0.1323,-0.1507,-0.1525,2.351,2.3519,2.287,2.2193,2.1604,2.176,2.1607,2.1216,2.1219,2.0457,1.9141,1.8903,1.7874,1.6234,1.5268,1.4922,1.4955,1.4683,1.4625,1.479,1.4506,1.4414,1.4506,1.4375,1.4359,1.4341,1.3947,1.3718,1.3589,1.2992,1.2551,1.2248,1.1765,1.104,1.0197,1.066,1.1037,1.134,1.1104,1.07,1.0121,0.9681,0.9486,0.9496,0.8776,0.8429,0.8462,0.7594,0.7127,0.7192,0.6538,0.6057,0.5832,0.4742,0.0,0.0,0.0,0.0,0.0,0.0,0.0,0.0,0.0,0.2558,0.344,0.0,0.2791,0.0,0.3459,0.3716,0.3867,0.3879,0.0,0.0,0.4411,0.4621,0.4141,0.4508,0.4946,0.5313,0.4908,0.4425,0.4007,0.3869,0.3765,0.359,0.3515,0.3501,0.3532,0.3566,0.358,0.3483,0.3407,0.3428,0.3524,0.3423,0.3243,0.3319,0.2577,0.2026,0.2094,0.1271,0.0603,0.0677,0.0593,0.0574,0.069,0.0673,0.0488,0.0084,-0.0202,-0.0454,-0.084,-0.1076,-0.1227,2.4802,2.487,2.4581,2.4172,2.366,2.2928,2.257,2.2439,2.2583,2.1756,2.027,1.9287,1.8078,1.6748,1.602,1.5689,1.567,1.546,1.5359,1.534,1.4955,1.4772,1.4763,1.4598,1.4485,1.4506,1.4277,1.4066,1.3892,1.3461,1.3047,1.2698,1.2468,1.1945,1.1154,1.155,1.177,1.177,1.1412,1.103,1.0579,1.0006,0.9611,0.9418,0.8829,0.8389,0.8181,0.7565,0.7114,0.6917,0.6507,0.6197,0.5993,0.516,0.4481,0.0,0.0,0.0,0.0,0.0,0.0,0.0,0.0,0.0,0.0,0.0,0.3153,0.0,0.3842,0.0,0.4216,0.4333,0.4392,0.4356,0.4608,0.4796,0.4796,0.5237,0.562,0.5924,0.5797,0.5436,0.4824,0.4371,0.4094,0.3917,0.3729,0.36,0.36,0.36,0.36,0.36,0.36,0.3508,0.3328,0.3464,0.3534,0.3382,0.315,0.2906,0.2732,0.2003,0.1357,0.1171,0.0873,0.0663,0.0746,0.0773,0.0693,0.0474,0.0202,-0.0202,-0.0757,-0.0977,-0.1127,2.5852,2.6049,2.5869,2.5817,2.5756,2.4091,2.3523,2.3686,2.3453,2.2742,2.1618,1.9435,1.8039,1.7192,1.629,1.5845,1.5845,1.5799,1.5771,1.5744,1.5304,1.5111,1.5084,1.4698,1.4485,1.4485,1.4485,1.4323,1.3994,1.391,1.3534,1.2799,1.2733,1.2496,1.2119,1.2076,1.2082,1.2018,1.1297,1.0873,1.0818,1.0079,0.9519,0.9189,0.8737,0.8315,0.7892,0.7442,0.7031,0.6698,0.6616,0.6443,0.6097,0.5698,0.5262,0.0,0.4762,0.0,0.0,0.0,0.0,0.0,0.0,0.0,0.0,0.3455,0.3586,0.3743,0.4196,0.4466,0.4466,0.4672,0.4796,0.4796,0.4796,0.4845,0.5031,0.5832,0.641,0.641,0.641,0.6233,0.5712,0.4988,0.4491,0.4381,0.4034,0.3799,0.3711,0.3667,0.36,0.36,0.36,0.3464,0.3192,0.335,0.3486,0.3258,0.3407,0.3704,0.3205,0.2709,0.2243,0.1724,0.1223,0.0863,0.0734,0.0808,0.0874,0.0782,0.0572,0.0185,-0.0572,-0.0875,-0.1093,2.6928,2.6853,2.6019,2.5898,2.624,2.4551,2.4209,2.4602,2.3151,2.1928,2.0842,1.9603,1.8681,1.8027,1.7085,1.667,1.6652,1.6349,1.6169,1.6166,1.5441,1.5111,1.5084,1.4668,1.4485,1.4485,1.4485,1.4469,1.4396,1.4038,1.3672,1.3176,1.2863,1.2496,1.2119,0.0,0.0,0.0,1.1127,1.0723,1.0431,0.9951,0.9666,0.9565,0.8867,0.0,0.8343,0.7629,0.7168,0.7086,0.6776,0.0,0.0,0.0,0.0,0.0,0.0,0.0,0.0,0.0,0.0,0.0,0.4664,0.409,0.2935,0.3923,0.465,0.459,0.4765,0.4884,0.4891,0.4823,0.4796,0.4796,0.4802,0.5146,0.5959,0.628,0.641,0.641,0.641,0.6233,0.5836,0.5593,0.5356,0.4988,0.4622,0.4381,0.4236,0.3862,0.3622,0.36,0.36,0.3578,0.3486,0.3556,0.3597,0.3546,0.3252,0.3145,0.3073,0.2778,0.228,0.1694,0.1368,0.1093,0.0843,0.0862,0.0898,0.0833,0.0757,0.0623,0.0269,-0.0168,-0.0471,2.7174,0.0,2.6603,2.6685,0.0,2.5522,2.5253,2.5822,2.4039,2.2548,2.1378,2.0583,1.969,1.8709,1.798,1.7502,1.726,1.68,1.6581,1.6569,1.5771,1.5395,1.5368,1.479,1.4485,1.4485,1.4485,1.4485,1.4458,1.4084,1.3709,1.3296,1.2891,1.2496,1.211,1.2076,1.2,1.1783,1.12,1.0809,1.0588,1.0026,0.9602,0.94,0.0,0.0,0.0,0.0,0.0,0.0,0.0,0.0,0.0,0.0,0.0,0.5977,0.614,0.5995,0.5497,0.5433,0.5461,0.5532,0.5258,0.4678,0.3695,0.457,0.5076,0.4918,0.4972,0.5007,0.4992,0.4886,0.4935,0.5245,0.5474,0.582,0.628,0.641,0.641,0.641,0.641,0.6325,0.6126,0.5879,0.568,0.5421,0.5048,0.4683,0.4381,0.4012,0.3755,0.3751,0.3685,0.366,0.3641,0.3663,0.366,0.3653,0.3473,0.3363,0.3432,0.3322,0.3005,0.2329,0.1681,0.1154,0.1041,0.1029,0.1005,0.0888,0.0841,0.0824,0.0707,0.0319,-0.0118,2.7429,2.7429,2.7429,2.7597,2.7761,2.6368,2.6022,2.6326,0.0,0.0,0.0,2.1557,2.0646,1.945,1.8797,1.8323,1.7924,1.7342,1.7028,1.701,1.6171,1.5762,1.5652,1.4955,1.4579,1.4485,1.4485,1.4485,1.4467,1.4157,1.3754,1.3305,1.2974,1.2569,1.2104,1.2076,1.2076,1.2064,1.1325,1.0864,1.0781,1.0079,0.9557,0.9226,0.9124,0.8756,0.8063,0.7883,0.75,0.6853,0.6734,0.6712,0.6698,0.6712,0.6698,0.6707,0.7013,0.6898,0.627,0.622,0.6256,0.636,0.5823,0.5325,0.4931,0.5137,0.5236,0.5078,0.5055,0.5049,0.5039,0.4918,0.5109,0.5817,0.6191,0.6404,0.6489,0.6511,0.6517,0.6459,0.6453,0.6459,0.6453,0.612,0.5846,0.583,0.555,0.5031,0.4535,0.41,0.3818,0.3836,0.3814,0.3766,0.3722,0.3744,0.3722,0.3744,0.3722,0.3766,0.3858,0.388,0.3644,0.3034,0.2103,0.1574,0.1355,0.1312,0.1216,0.1055,0.0974,0.0926,0.0908,0.069,0.0269,2.8299,2.8299,2.8299,2.8088,2.7621,2.6641,2.5587,2.459,2.4294,2.3412,2.2087,2.1649,2.1079,2.0353,1.949,1.9083,1.8924,1.8017,1.7613,0.0,1.6633,1.6037,1.567,1.5221,1.4836,1.4504,1.4485,1.4485,1.4476,1.4451,1.4047,1.3369,1.3231,1.2836,1.2165,1.2076,1.2076,1.2058,1.1301,1.0745,1.0383,0.9942,0.9675,0.9592,0.9281,0.905,0.8922,0.8208,0.7755,0.7627,0.729,0.7114,0.7114,0.7104,0.7114,0.7114,0.7168,0.7141,0.7031,0.703,0.7042,0.7025,0.6495,0.6006,0.5668,0.5439,0.5277,0.5246,0.5192,0.5176,0.5153,0.5062,0.5324,0.6079,0.6342,0.6538,0.6844,0.688,0.6823,0.6666,0.6602,0.6645,0.6723,0.6526,0.6377,0.6447,0.612,0.5771,0.5123,0.4258,0.3774,0.3814,0.3906,0.3928,0.3858,0.388,0.388,0.3858,0.3858,0.3858,0.388,0.3774,0.354,0.3096,0.2843,0.2524,0.1901,0.1663,0.1568,0.1458,0.1276,0.1093,0.1078,0.0994,0.0808,2.851,2.851,2.851,2.8366,2.805,2.7031,2.5841,2.4561,2.4526,2.4055,2.3239,2.2798,2.2338,2.1746,2.0588,1.9906,1.9569,1.8574,1.8138,1.8065,1.7449,1.6795,1.6151,1.5704,1.5156,1.4533,1.4485,1.4485,1.4467,1.4286,1.3864,1.3296,1.2865,1.2443,1.2128,1.2076,1.2076,1.2082,1.1315,1.0818,1.0612,1.0015,0.9703,0.9703,0.951,0.9317,0.9106,0.8508,0.8071,0.781,0.7415,0.7196,0.7196,0.7196,0.7196,0.7196,0.7196,0.7196,0.7196,0.7196,0.7196,0.7196,0.6957,0.6665,0.6382,0.5695,0.5309,0.5309,0.5261,0.5255,0.5252,0.5399,0.5646,0.6077,0.647,0.6753,0.6802,0.6886,0.6865,0.6844,0.6745,0.6687,0.6793,0.6681,0.6623,0.6666,0.6355,0.6007,0.5841,0.5019,0.425,0.399,0.3972,0.3972,0.3928,0.3972,0.3972,0.3928,0.3906,0.3906,0.3906,0.3821,0.3616,0.3266,0.3184,0.2924,0.2275,0.2047,0.1863,0.161,0.1509,0.1326,0.116,0.1094,0.1027,2.851,2.851,2.851,2.8366,2.8077,2.7102,2.6018,2.4956,2.4921,2.4742,2.4406,2.3959,2.3469,2.2902,2.1743,2.0952,2.0322,1.9285,1.88,1.8736,1.8256,1.7553,1.6689,1.6214,1.5544,1.4731,1.4565,1.4485,1.4478,1.4176,1.3772,1.3295,1.2588,1.2193,1.2076,1.2076,1.2076,1.2055,1.1325,1.0892,1.0873,1.0107,0.9703,0.9703,0.9693,0.9546,0.9235,0.8848,0.8426,0.7972,0.7485,0.7196,0.7196,0.7196,0.7196,0.7196,0.7196,0.7266,0.74,0.7522,0.7586,0.7577,0.7333,0.7128,0.6913,0.6395,0.5814,0.5494,0.5435,0.5415,0.5423,0.5574,0.5854,0.6107,0.6653,0.6909,0.6787,0.6802,0.688,0.6958,0.6844,0.6772,0.6772,0.673,0.6715,0.6687,0.6371,0.6243,0.6383,0.5814,0.5145,0.4748,0.432,0.4016,0.3994,0.406,0.4104,0.3987,0.399,0.4012,0.4012,0.399,0.3816,0.3479,0.3257,0.3079,0.2726,0.2427,0.2178,0.1956,0.1759,0.1475,0.1177,0.1094,0.1061,2.851,2.851,2.851,2.7906,2.7042,2.6466,2.5829,2.5289,2.5241,2.5241,2.5099,2.4442,2.3841,2.3302,2.2742,2.215,2.1563,2.0292,1.9671,1.9606,1.8836,1.7996,1.72,1.6684,1.5977,1.5165,1.4734,1.4545,1.4536,1.4471,1.4047,1.3332,1.2854,1.2475,1.2147,1.2101,1.2101,1.2082,1.1315,1.0892,1.0855,1.0128,0.9703,0.9703,0.9703,0.9684,0.9602,0.9262,0.8866,0.8407,0.7632,0.7205,0.7205,0.7196,0.7196,0.7214,0.7214,0.7436,0.7973,0.8462,0.8692,0.8656,0.7769,0.7296,0.7381,0.7856,0.7483,0.6243,0.5786,0.5796,0.5668,0.5558,0.5793,0.6414,0.68,0.6979,0.6958,0.6979,0.6985,0.6972,0.6958,0.6985,0.6922,0.6823,0.6757,0.6857,0.6696,0.6605,0.6774,0.6526,0.6291,0.6209,0.5238,0.4206,0.4206,0.4276,0.4254,0.4228,0.4254,0.4232,0.421,0.4208,0.4101,0.3627,0.3336,0.3154,0.306,0.2878,0.263,0.2391,0.2026,0.1509,0.1211,0.1128,0.1076,2.851,2.851,2.851,2.7858,2.6922,2.6633,2.6105,2.5336,2.5312,2.5312,2.5276,2.4969,2.4437,2.3712,2.3006,2.2398,2.1827,2.1021,2.0635,2.057,1.9951,1.9122,1.8272,1.755,1.6715,1.5865,1.5206,1.4893,1.4845,1.4686,1.427,1.3766,1.3494,1.2969,1.2203,1.2323,1.2332,1.2107,1.1301,1.0892,1.0809,1.0116,0.9703,0.9703,0.9703,0.9703,0.9657,0.9317,0.9014,0.8811,0.7819,0.7299,0.7536,0.7333,0.7305,0.7552,0.7831,0.8067,0.8305,0.8553,0.8673,0.8664,0.8242,0.7992,0.8054,0.8346,0.8076,0.729,0.693,0.6704,0.6406,0.6442,0.6521,0.6645,0.6847,0.6993,0.6993,0.6993,0.6993,0.6993,0.6993,0.6993,0.6979,0.6943,0.6907,0.6943,0.688,0.688,0.6958,0.6865,0.6844,0.6859,0.6204,0.5281,0.4447,0.4232,0.4298,0.4298,0.4298,0.4298,0.432,0.4298,0.4159,0.3736,0.3402,0.3208,0.3196,0.3109,0.2961,0.2709,0.2341,0.1807,0.1477,0.141,0.1274,2.851,2.851,2.851,2.787,2.6922,2.6885,2.6285,2.5372,2.5312,2.5312,2.5312,2.5312,2.48,2.395,2.3277,2.2641,2.1992,2.1522,2.1348,2.1282,2.0841,2.0091,1.9138,1.8426,1.7506,1.6527,1.5825,1.5488,1.5371,1.5117,1.4705,1.4223,1.4095,1.3515,1.2533,1.2715,1.2715,1.2361,1.1582,1.1145,1.0954,1.0231,0.9773,0.9703,0.9703,0.9703,0.9703,0.9409,0.9198,0.9069,0.8298,0.7899,0.7963,0.7705,0.7686,0.7981,0.8399,0.8655,0.86,0.8747,0.8821,0.8839,0.8821,0.8774,0.871,0.8765,0.8657,0.8326,0.818,0.7885,0.7237,0.7095,0.7005,0.6894,0.699,0.7,0.6993,0.6993,0.6993,0.6993,0.6993,0.6993,0.6993,0.6979,0.6979,0.6979,0.7,0.6993,0.6993,0.7,0.6979,0.6993,0.6979,0.6167,0.4556,0.436,0.4447,0.4443,0.4447,0.4364,0.4381,0.4425,0.4175,0.3753,0.3426,0.3273,0.3301,0.3272,0.3133,0.2789,0.2485,0.2186,0.1811,0.1709,0.1458,2.851,2.851,2.851,2.7885,2.6898,2.6861,2.6261,2.5312,2.5312,2.5312,2.5312,2.5312,2.4747,2.3811,2.3718,2.3163,2.2224,2.1855,2.1694,2.1651,2.131,2.0603,1.9595,1.9112,1.8269,1.7136,1.6521,1.6112,1.5892,1.5833,1.5439,1.4612,1.4584,1.4124,1.3242,1.3146,1.317,1.2984,1.2248,1.1693,1.1325,1.054,0.9979,0.9762,0.9703,0.9703,0.9693,0.9675,0.9511,0.9106,0.9335,0.9225,0.8554,0.8434,0.8443,0.8507,0.8866,0.9023,0.8968,0.9317,0.9583,0.9602,0.9566,0.9455,0.9133,0.9363,0.9381,0.9068,0.9268,0.9004,0.8013,0.7317,0.7063,0.7477,0.7224,0.7014,0.6993,0.6993,0.6993,0.6993,0.6993,0.6993,0.6993,0.6993,0.6993,0.6993,0.6993,0.6993,0.6993,0.6993,0.6993,0.6993,0.6867,0.638,0.4787,0.4596,0.4853,0.4874,0.4683,0.4451,0.4578,0.46,0.4185,0.3781,0.3448,0.3301,0.3404,0.3348,0.3153,0.2962,0.2919,0.2638,0.2245,0.1854,0.1565,2.851,2.8474,2.815,2.7546,2.6885,2.6525,2.5985,2.5336,2.5312,2.5312,2.5312,2.5312,2.4735,2.3806,2.3806,2.3216,2.2246,2.2061,2.2018,2.1951,2.1519,2.1133,2.0724,1.9738,1.9063,1.8464,1.7478,1.6849,1.6606,1.6428,1.5877,1.5174,1.5237,1.4673,1.35,1.3467,1.3467,1.3158,1.2614,1.2148,1.1707,1.0945,1.0366,0.997,0.9793,0.9703,0.9703,0.9703,0.9629,0.9482,0.9629,0.9445,0.8958,0.8894,0.8875,0.894,0.9262,0.9455,0.9436,0.9592,0.9703,0.9703,0.9703,0.9648,0.9537,0.9602,0.9629,0.9557,0.9612,0.9444,0.9079,0.8385,0.7906,0.7659,0.7287,0.6993,0.6993,0.6993,0.6993,0.6993,0.6993,0.6993,0.6993,0.6993,0.6993,0.6993,0.6993,0.6993,0.6993,0.6993,0.6993,0.6993,0.6979,0.6789,0.6267,0.5308,0.5005,0.5096,0.5009,0.4775,0.477,0.4556,0.4193,0.3915,0.3535,0.3358,0.3468,0.3634,0.3402,0.3342,0.3294,0.3097,0.2703,0.2414,0.1923,2.851,2.8426,2.7906,2.739,2.6849,2.6334,2.5793,2.5336,2.5312,2.5312,2.5312,2.5312,2.4735,2.3914,2.3806,2.3228,2.2258,2.2197,2.2197,2.2161,2.1825,2.1572,2.1242,2.0277,1.9637,1.9256,1.8202,1.7529,1.7346,1.7078,1.6546,1.5853,1.5836,1.5146,1.4052,1.3942,1.3858,1.3541,1.2998,1.249,1.2042,1.1296,1.0676,1.0293,0.9971,0.9793,0.9713,0.9703,0.9703,0.9703,0.9703,0.9574,0.9327,0.9299,0.9299,0.9327,0.9557,0.9703,0.9703,0.9703,0.9703,0.9703,0.9703,0.9703,0.9703,0.9703,0.9703,0.9703,0.9703,0.9703,0.9643,0.9306,0.8805,0.8103,0.7433,0.6993,0.7035,0.7565,0.7558,0.7119,0.6993,0.6993,0.6993,0.6993,0.6993,0.6993,0.6993,0.6993,0.6993,0.6993,0.6993,0.6993,0.6993,0.6979,0.6677,0.6017,0.561,0.5631,0.5373,0.514,0.4988,0.4683,0.4342,0.4045,0.3761,0.3573,0.3598,0.3801,0.3806,0.3734,0.3679,0.3509,0.3253,0.3063,0.254,2.851,2.8426,2.7933,2.7354,2.6837,2.6274,2.5769,2.536,2.5312,2.5312,2.5312,2.5312,2.4747,2.395,2.3806,2.3216,2.233,2.2197,2.2197,2.2185,2.2149,2.1885,2.144,2.0815,2.0048,1.9344,1.8517,1.8084,1.8018,1.776,1.7366,1.6897,1.6162,1.5527,1.5023,1.4542,1.4361,1.414,1.3444,1.2861,1.2425,1.1609,1.0975,1.0662,1.0332,1.0019,0.9773,0.9713,0.9723,0.9723,0.9723,0.9703,0.9657,0.9648,0.9675,0.9648,0.9703,0.9703,0.9703,0.9703,0.9703,0.9703,0.9703,0.9703,0.9703,0.9703,0.9703,0.9703,0.9703,0.9712,0.9739,0.9698,0.941,0.8793,0.7876,0.7349,0.7328,0.8553,0.8975,0.7461,0.7069,0.7027,0.7013,0.71,0.7133,0.7126,0.7113,0.7066,0.704,0.7046,0.7033,0.71,0.7086,0.702,0.6859,0.6641,0.6444,0.6231,0.5846,0.5545,0.5588,0.5384,0.4855,0.4482,0.3822,0.3631,0.3911,0.4073,0.4008,0.3963,0.3931,0.3886,0.366,0.3414,0.3134,2.851,2.8402,2.7498,2.7066,2.6777,2.5949,2.5444,2.5312,2.5312,2.5312,2.5312,2.5312,2.4747,2.3974,2.3794,2.3228,2.2234,2.2197,2.2197,2.2197,2.2197,2.2113,2.1801,2.1031,2.0073,1.9197,1.8681,1.8437,1.8371,1.8111,1.7671,1.7014,1.6453,1.5775,1.5151,1.4635,1.4407,1.4363,1.4112,1.3749,1.3303,1.2488,1.1828,1.1434,1.0929,1.0534,1.0303,0.9921,0.9793,0.9941,0.9793,0.9703,0.9703,0.9703,0.9703,0.9703,0.9703,0.9703,0.9703,0.9703,0.9703,0.9703,0.9703,0.9703,0.9703,0.9703,0.9712,0.9712,0.9712,0.9795,1.0054,1.0128,0.9759,0.8879,0.8834,0.8283,0.753,0.8647,0.8675,0.7468,0.7438,0.7599,0.7478,0.7484,0.7589,0.7618,0.7602,0.7486,0.7153,0.7268,0.7709,0.8059,0.7662,0.716,0.7126,0.7015,0.6798,0.6575,0.6231,0.606,0.6081,0.5903,0.5376,0.4714,0.4069,0.388,0.4189,0.4261,0.418,0.4109,0.4069,0.3995,0.3931,0.3739,0.3488,2.839,2.8126,2.7246,2.6753,2.6513,2.5673,2.5312,2.5312,2.5312,2.5312,2.5312,2.5312,2.4747,2.3962,2.3806,2.3216,2.227,2.2197,2.2197,2.2197,2.2197,2.2197,2.2041,2.1115,2.0045,1.9167,1.8827,1.8747,1.8721,1.8425,1.8047,1.7569,1.6985,1.6331,1.5579,1.5065,1.4698,1.4452,1.421,1.3991,1.363,1.3012,1.2509,1.219,1.1752,1.1485,1.1395,1.0874,1.0404,1.0116,0.9852,0.9723,0.9703,0.9703,0.9703,0.9703,0.9703,0.9703,0.9703,0.9703,0.9703,0.9703,0.9703,0.9703,0.9703,0.9703,0.9749,0.996,0.996,1.0089,1.0441,1.0533,1.0212,0.9689,0.9792,0.9406,0.8445,0.9252,0.9679,0.8832,0.8431,0.8311,0.8323,0.7902,0.8041,0.8112,0.8017,0.7815,0.7466,0.7479,0.8032,0.839,0.8052,0.7712,0.7569,0.7366,0.7146,0.689,0.6598,0.6535,0.655,0.6252,0.5815,0.4869,0.4115,0.407,0.4312,0.4298,0.4249,0.4224,0.4174,0.415,0.4109,0.4109,0.3912,2.8158,2.763,2.7114,2.6622,2.6105,2.5528,2.5312,2.5312,2.5312,2.5312,2.5312,2.5312,2.4735,2.3974,2.3806,2.3228,2.2342,2.2197,2.2197,2.2197,2.2185,2.2137,2.1801,2.0995,2.0045,1.9119,1.8987,1.8987,1.8934,1.8721,1.8614,1.8401,1.7711,1.7028,1.6269,1.5766,1.5131,1.4477,1.4047,1.3861,1.3773,1.3238,1.2955,1.2912,1.2615,1.2509,1.2561,1.2131,1.1304,1.0233,0.9909,0.9827,0.9732,0.9703,0.9703,0.9703,0.9703,0.9703,0.9703,0.9703,0.9749,0.9813,0.9749,0.9703,0.9703,0.9841,1.007,1.0419,1.0383,1.0484,1.0814,1.0916,1.0893,1.0947,1.0783,1.0358,0.993,1.0462,1.07,1.0588,0.9768,0.8981,0.9422,0.8696,0.8556,0.8556,0.8441,0.8246,0.7979,0.7999,0.813,0.8223,0.8278,0.815,0.7936,0.7652,0.7448,0.7198,0.694,0.6909,0.6851,0.655,0.6352,0.5396,0.4461,0.4422,0.4377,0.4425,0.4364,0.4273,0.4269,0.4294,0.4282,0.4253,0.4216,2.8198,2.763,2.7114,2.661,2.6057,2.5528,2.5312,2.5312,2.5312,2.5312,2.5312,2.5312,2.4735,2.3866,2.3794,2.3228,2.2402,2.2197,2.2197,2.2197,2.2197,2.1704,2.1151,2.0742,2.0073,1.917,1.9037,1.9013,1.9013,1.8919,1.8801,1.8563,1.8052,1.732,1.6585,1.608,1.5389,1.4717,1.4528,1.4347,1.4156,1.3751,1.3499,1.3434,1.3054,1.287,1.2879,1.2552,1.155,1.0024,1.0293,1.0252,0.9875,0.9779,0.975,0.979,0.9732,0.9703,0.9703,0.9703,0.9857,1.0199,0.996,0.9703,0.9721,1.0245,1.0576,1.0791,1.0741,1.0897,1.1246,1.1324,1.1458,1.1715,1.1623,1.132,1.091,1.1274,1.1779,1.1655,1.0766,1.021,0.9955,0.9775,0.9535,0.9432,0.9281,0.9004,0.8582,0.862,0.8758,0.8642,0.8631,0.8464,0.8257,0.7965,0.7706,0.7484,0.7306,0.7169,0.707,0.6846,0.674,0.6404,0.5256,0.4887,0.4748,0.4714,0.4561,0.4408,0.4386,0.4429,0.4342,0.4282,0.4295,2.8077,2.733,2.703,2.6478,2.5769,2.5432,2.5312,2.5312,2.5312,2.5312,2.5312,2.5312,2.4735,2.3866,2.3794,2.3216,2.2282,2.2197,2.2197,2.2197,2.2197,2.174,2.1079,2.0742,2.0141,1.9399,1.911,1.9025,1.9013,1.9013,1.8907,1.8765,1.8477,1.7894,1.7171,1.6648,1.6018,1.5324,1.5016,1.4766,1.4513,1.427,1.4103,1.3981,1.3674,1.3521,1.351,1.3378,1.2613,1.1548,1.1175,1.0997,1.0964,1.0285,1.0093,1.0296,0.9984,0.9703,0.9703,0.9703,1.0006,1.0456,1.0349,1.0257,1.0364,1.0916,1.1417,1.1412,1.1255,1.1366,1.1651,1.1737,1.1871,1.2009,1.2076,1.1908,1.1421,1.1788,1.2055,1.1913,1.1458,1.0974,1.0819,1.0631,1.0416,1.0261,0.9967,0.9467,0.8934,0.9185,0.9263,0.9087,0.904,0.8906,0.8552,0.8216,0.7979,0.7772,0.7517,0.7424,0.7241,0.706,0.6951,0.6698,0.5883,0.5346,0.527,0.5079,0.4797,0.4688,0.46,0.4513,0.4447,0.4578,0.4552,2.7822,2.6825,2.6873,2.6273,2.5385,2.5312,2.5312,2.5312,2.5312,2.5312,2.5312,2.5312,2.4711,2.3818,2.3782,2.3216,2.2209,2.2197,2.2197,2.2197,2.2161,2.1927,2.1488,2.0851,2.0298,1.9724,1.9254,1.9062,1.9013,1.9013,1.9013,1.8948,1.8936,1.8556,1.7804,1.7318,1.6725,1.5927,1.5372,1.4983,1.4731,1.4595,1.4504,1.439,1.4356,1.4266,1.4276,1.4264,1.3944,1.3499,1.2285,1.2007,1.2372,1.1132,1.0847,1.1021,1.0462,0.9932,0.9892,0.9956,1.0135,1.0781,1.0919,1.0975,1.1081,1.1614,1.1954,1.1945,1.1752,1.1761,1.1929,1.2073,1.2064,1.2076,1.2076,1.2076,1.2076,1.2076,1.2076,1.2076,1.1635,1.1694,1.166,1.1342,1.0754,1.0846,1.0574,1.0061,0.9777,0.995,0.9769,0.9342,0.9351,0.9416,0.8948,0.8462,0.8243,0.8029,0.7736,0.7548,0.7368,0.7193,0.7053,0.6719,0.6289,0.6033,0.591,0.5631,0.52,0.5075,0.5075,0.4857,0.4683,0.4944,0.5048,2.7645,2.631,2.6705,2.6273,2.5408,2.5312,2.5312,2.5312,2.5312,2.5312,2.5312,2.5312,2.4699,2.3806,2.3734,2.3228,2.2282,2.2197,2.2197,2.2197,2.2197,2.2149,2.1801,2.1091,2.0334,1.9832,1.9263,1.9037,1.9013,1.9013,1.9013,1.9013,1.8989,1.8708,1.8153,1.7588,1.6967,1.6244,1.5693,1.5187,1.4834,1.4754,1.4731,1.4651,1.4628,1.4569,1.4419,1.4407,1.4331,1.3998,1.3337,1.2677,1.2352,1.1912,1.1717,1.1638,1.1107,1.07,1.0858,1.0524,1.052,1.1219,1.1122,1.1186,1.1798,1.1935,1.2076,1.2067,1.2018,1.1991,1.2049,1.2076,1.2076,1.2076,1.2076,1.2076,1.2076,1.2076,1.2076,1.2051,1.2002,1.1977,1.2076,1.1943,1.156,1.1418,1.1082,1.0643,1.0643,1.0762,1.0507,1.0105,0.9729,0.9728,0.9184,0.8752,0.8579,0.8364,0.8095,0.7822,0.7635,0.7359,0.7233,0.7106,0.6909,0.6677,0.638,0.5996,0.5545,0.5545,0.555,0.5373,0.5286,0.5454,0.5416,2.7344,2.6166,2.6418,2.6057,2.5384,2.5312,2.5312,2.5312,2.5312,2.5312,2.5252,2.5036,2.4494,2.3794,2.3517,2.2931,2.2354,2.2197,2.2197,2.2197,2.2197,2.2197,2.2065,2.1434,2.0711,2.0117,1.9348,1.9035,1.9013,1.9013,1.9013,1.9013,1.9013,1.8905,1.8458,1.782,1.7243,1.6741,1.6039,1.5446,1.5131,1.5085,1.4971,1.4857,1.4766,1.4639,1.4558,1.4419,1.4407,1.4284,1.3984,1.3588,1.3077,1.2612,1.2465,1.259,1.1885,1.1315,1.1194,1.1037,1.1116,1.172,1.1269,1.1472,1.1853,1.2076,1.2076,1.2076,1.2067,1.2076,1.2076,1.2076,1.2076,1.2076,1.2076,1.2076,1.2076,1.2076,1.2076,1.2076,1.2076,1.2051,1.2076,1.2076,1.2051,1.1744,1.1744,1.136,1.141,1.151,1.1501,1.1124,1.0456,0.9961,0.9406,0.9058,0.8938,0.8735,0.8516,0.8281,0.8063,0.7756,0.7426,0.7306,0.7186,0.6964,0.6656,0.6252,0.6013,0.598,0.5959,0.5867,0.5846,0.5873,0.5739,2.7043,2.5985,2.6057,2.5793,2.536,2.5312,2.5312,2.5312,2.5312,2.5312,2.5216,2.4724,2.429,2.3782,2.3264,2.2734,2.2318,2.2197,2.2197,2.2197,2.2197,2.2197,2.2029,2.1488,2.0935,2.0514,1.9648,1.9206,1.9049,1.9013,1.9013,1.9013,1.9013,1.8977,1.8746,1.8085,1.7471,1.7195,1.6417,1.5776,1.548,1.5446,1.5311,1.5062,1.4903,1.4754,1.4651,1.4512,1.4407,1.4407,1.4407,1.4407,1.4159,1.36,1.3097,1.3705,1.2738,1.2172,1.1902,1.1702,1.1797,1.2196,1.1569,1.143,1.1926,1.2076,1.2076,1.2076,1.2076,1.2076,1.2076,1.2076,1.2076,1.2076,1.2076,1.2076,1.2128,1.2174,1.2305,1.2076,1.2076,1.2076,1.2076,1.2076,1.2076,1.2076,1.2076,1.2076,1.2076,1.2076,1.1968,1.1794,1.1074,1.02,0.9595,0.9588,0.9429,0.9087,0.888,0.8705,0.8511,0.825,0.7925,0.7595,0.7399,0.7209,0.706,0.6808,0.6616,0.6499,0.6425,0.6389,0.6346,0.627,0.611,2.6801,2.548,2.5913,2.5793,2.5348,2.5312,2.5312,2.5312,2.5312,2.5312,2.5228,2.4747,2.4206,2.377,2.3252,2.2722,2.227,2.2197,2.2197,2.2197,2.2197,2.2197,2.2041,2.144,2.0851,2.049,1.9937,1.9483,1.9071,1.9013,1.9013,1.9013,1.9013,1.9013,1.8857,1.8362,1.7748,1.7363,1.6715,1.6121,1.5663,1.5513,1.5446,1.5198,1.5085,1.4949,1.4731,1.4535,1.4407,1.4407,1.4407,1.4407,1.4362,1.4125,1.4105,1.3997,1.347,1.2988,1.2993,1.2686,1.2686,1.2738,1.2316,1.1892,1.2055,1.2126,1.2224,1.2184,1.2169,1.2128,1.2076,1.2119,1.2076,1.2076,1.2076,1.2076,1.2211,1.2634,1.2828,1.2525,1.2324,1.2113,1.2183,1.2165,1.2076,1.2076,1.2076,1.2076,1.2076,1.2076,1.2051,1.1843,1.1544,1.0617,0.9769,0.9969,0.9979,0.9484,0.9235,0.9125,0.8916,0.8756,0.849,0.8083,0.7802,0.7632,0.7458,0.7288,0.7211,0.71,0.7021,0.6935,0.6937,0.6916,0.6684,2.6538,2.536,2.5588,2.5552,2.5336,2.5312,2.5312,2.5312,2.5312,2.5312,2.5071,2.4506,2.4035,2.3637,2.2895,2.2426,2.2258,2.2197,2.2197,2.2197,2.2197,2.2197,2.2185,2.1584,2.1103,2.0706,2.0286,1.9736,1.9071,1.9025,1.9013,1.9013,1.9013,1.9013,1.8905,1.8458,1.7953,1.7399,1.6883,1.6309,1.5695,1.5659,1.5558,1.5468,1.5356,1.5244,1.5085,1.4731,1.4569,1.4546,1.4454,1.443,1.4407,1.4407,1.4407,1.4318,1.4029,1.3768,1.3805,1.3393,1.3249,1.311,1.2842,1.2476,1.2338,1.2412,1.2657,1.2622,1.2466,1.2515,1.2726,1.2382,1.2119,1.2076,1.2122,1.2149,1.2369,1.325,1.3369,1.314,1.2845,1.2615,1.2395,1.2321,1.2156,1.2076,1.2076,1.2076,1.2076,1.2076,1.2076,1.1952,1.1703,1.1167,1.0387,1.0431,1.0448,0.9976,0.9681,0.9569,0.9387,0.9249,0.8926,0.8523,0.827,0.8029,0.7826,0.7633,0.7679,0.7695,0.754,0.7465,0.757,0.754,0.726,2.6321,2.5456,2.5348,2.5312,2.5312,2.5312,2.5312,2.5312,2.5312,2.5312,2.5168,2.4324,2.383,2.3529,2.2787,2.2197,2.2197,2.2197,2.2197,2.2197,2.2197,2.2197,2.2161,2.1879,2.1332,2.0629,2.0129,1.9856,1.9182,1.9013,1.9013,1.9013,1.9013,1.9013,1.8905,1.8626,1.8061,1.7555,1.7051,1.6487,1.597,1.5814,1.5814,1.5792,1.5591,1.5491,1.5401,1.4926,1.4731,1.4628,1.4512,1.4407,1.4407,1.4407,1.4407,1.4407,1.4407,1.4221,1.4046,1.3918,1.3747,1.361,1.3481,1.3122,1.2939,1.319,1.3402,1.3306,1.3138,1.3089,1.3246,1.2791,1.2448,1.2468,1.2553,1.2672,1.303,1.3607,1.4185,1.391,1.3451,1.3029,1.2744,1.2496,1.234,1.2085,1.2076,1.2076,1.2076,1.2076,1.2076,1.2002,1.1828,1.1553,1.1141,1.0973,1.0838,1.0456,1.0285,1.019,0.9976,0.9769,0.9419,0.9104,0.8603,0.8337,0.8156,0.8016,0.8016,0.8003,0.7939,0.7932,0.7969,0.7889,0.7649,2.6574,2.5961,2.5504,2.5312,2.5312,2.5312,2.5312,2.5312,2.5312,2.5312,2.524,2.4312,2.3794,2.3457,2.2686,2.2221,2.2197,2.2197,2.2197,2.2197,2.2197,2.2197,2.2041,2.1169,2.1007,2.0521,1.9768,1.9218,1.9025,1.9013,1.9013,1.9013,1.9013,1.9013,1.9001,1.8855,1.8652,1.8072,1.7531,1.6799,1.6018,1.5862,1.5862,1.5748,1.5625,1.5583,1.5573,1.5188,1.489,1.482,1.4589,1.4452,1.4407,1.4407,1.4407,1.4407,1.4396,1.4373,1.428,1.4257,1.4298,1.417,1.4185,1.4186,1.4113,1.4084,1.4176,1.3851,1.3805,1.3876,1.3924,1.3482,1.322,1.3332,1.3571,1.3864,1.4167,1.3846,1.4403,1.4458,1.3947,1.3415,1.2992,1.2753,1.2523,1.2285,1.2085,1.2122,1.2183,1.2248,1.2229,1.2207,1.2029,1.1753,1.1628,1.151,1.1343,1.0981,1.0804,1.0727,1.0515,1.0285,1.0123,0.9746,0.927,0.8873,0.8755,0.8626,0.8441,0.8315,0.8218,0.8257,0.8308,0.817,0.8056,2.6142,2.5636,2.5408,2.5312,2.5312,2.5312,2.5312,2.5312,2.5312,2.5312,2.5107,2.4263,2.3505,2.2931,2.233,2.2209,2.2197,2.2197,2.2197,2.2197,2.2197,2.2197,2.2113,2.1704,2.132,2.0574,2.0117,1.96,1.9263,1.9037,1.9013,1.9013,1.9013,1.9013,1.9013,1.9013,1.87,1.8193,1.7639,1.7015,1.6451,1.6235,1.6114,1.5816,1.5715,1.5824,1.5947,1.5834,1.5681,1.5698,1.5583,1.5364,1.5175,1.4985,1.4788,1.4777,1.4538,1.4418,1.4407,1.4407,1.4538,1.4646,1.4624,1.459,1.4996,1.52,1.5159,1.5023,1.4804,1.478,1.4802,1.4373,1.4089,1.4121,1.4326,1.4339,1.4485,1.4485,1.4485,1.4485,1.443,1.3901,1.3442,1.324,1.3038,1.2808,1.2643,1.2615,1.2625,1.2634,1.2579,1.2487,1.2269,1.1986,1.1927,1.1877,1.1863,1.1579,1.1234,1.1133,1.0981,1.0795,1.0685,1.0754,1.0654,1.0187,0.9622,0.9064,0.8718,0.8595,0.8498,0.8575,0.8607,0.8622,0.8489,2.5793,2.5324,2.5312,2.5312,2.5312,2.5312,2.5312,2.5312,2.5312,2.5312,2.5035,2.423,2.3276,2.2554,2.2306,2.2197,2.2197,2.2197,2.2197,2.2197,2.2197,2.2197,2.2101,2.1969,2.1512,2.0803,2.0545,2.0045,1.9468,1.9218,1.9206,1.9037,1.9013,1.9013,1.9013,1.8977,1.8734,1.8217,1.7857,1.7376,1.6871,1.6631,1.6356,1.6092,1.5958,1.6054,1.6488,1.6361,1.6325,1.6574,1.6409,1.6115,1.5878,1.5607,1.5452,1.5353,1.5054,1.48,1.4687,1.4642,1.4724,1.4875,1.5072,1.517,1.576,1.6007,1.6036,1.5903,1.5744,1.5744,1.579,1.5425,1.5225,1.4925,1.4647,1.4556,1.4545,1.4664,1.4634,1.4485,1.4449,1.4396,1.3983,1.3772,1.3552,1.3314,1.3213,1.3121,1.3093,1.3084,1.2983,1.2891,1.2718,1.25,1.2472,1.2434,1.2351,1.2191,1.1845,1.1605,1.1487,1.1377,1.1301,1.1451,1.1635,1.1216,1.0496,0.9725,0.9008,0.8971,0.8923,0.8914,0.8928,0.8962,0.8837,2.5793,2.5312,2.5312,2.5312,2.5312,2.5312,2.5312,2.5312,2.5312,2.5264,2.5023,2.4242,2.3469,2.2891,2.2366,2.2197,2.2197,2.2197,2.2197,2.2197,2.2197,2.2197,2.2089,2.1825,2.15,2.1235,2.0947,2.0382,1.9868,1.964,1.9384,1.9071,1.9062,1.9025,1.9013,1.8989,1.877,1.8398,1.8181,1.7881,1.7363,1.6991,1.6656,1.6499,1.6163,1.6066,1.6583,1.6574,1.6727,1.7158,1.7029,1.6754,1.6533,1.6292,1.6202,1.609,1.5706,1.5495,1.5381,1.4935,1.4801,1.517,1.5596,1.5865,1.6317,1.6874,1.6896,1.652,1.6391,1.6421,1.6601,1.6701,1.6324,1.5951,1.54,1.4882,1.4882,1.5,1.4921,1.4604,1.4558,1.469,1.4505,1.4246,1.3984,1.3755,1.3717,1.3654,1.3608,1.358,1.3442,1.3341,1.3222,1.314,1.3158,1.3075,1.2863,1.2716,1.248,1.2253,1.207,1.1975,1.1719,1.1819,1.1868,1.1619,1.1318,1.0498,0.9829,0.9517,0.9335,0.9237,0.9263,0.9316,0.9113,2.5504,2.5312,2.5312,2.5312,2.5312,2.5312,2.5312,2.5312,2.5312,2.4915,2.4398,2.395,2.3292,2.2642,2.2354,2.2197,2.2197,2.2197,2.2197,2.2197,2.2197,2.2197,2.2077,2.1957,2.174,2.1452,2.1151,2.0844,2.0338,2.0037,1.976,1.9483,1.9143,1.9037,1.9013,1.9013,1.8843,1.877,1.8652,1.841,1.7977,1.7724,1.7411,1.7063,1.6979,1.7063,1.7495,1.7518,1.7691,1.7847,1.7838,1.7618,1.7329,1.7131,1.7003,1.6923,1.6475,1.6236,1.6073,1.5551,1.5264,1.564,1.6225,1.6732,1.683,1.7186,1.7191,1.7038,1.6961,1.6932,1.7041,1.7145,1.7015,1.6751,1.6257,1.5575,1.5196,1.5323,1.5439,1.5235,1.5284,1.5391,1.507,1.4737,1.4471,1.4206,1.4196,1.4187,1.4095,1.4003,1.3818,1.369,1.3607,1.3479,1.347,1.3369,1.3286,1.3176,1.3066,1.2817,1.2542,1.2165,1.1977,1.2076,1.2085,1.1902,1.1569,1.1082,1.0617,1.0182,0.9769,0.9439,0.9517,0.9666,0.9368,2.5312,2.5312,2.5312,2.5312,2.5312,2.5312,2.5312,2.5312,2.5312,2.4939,2.4227,2.3962,2.3433,2.2782,2.2282,2.2197,2.2197,2.2197,2.2197,2.2197,2.2197,2.2197,2.2197,2.2137,2.1969,2.168,2.1596,2.1386,2.0844,2.0273,1.9977,1.9676,1.9275,1.9074,1.9013,1.9013,1.9013,1.9013,1.8977,1.8855,1.8446,1.8217,1.8049,1.7616,1.7423,1.7567,1.7917,1.8036,1.8273,1.8503,1.8599,1.8486,1.8258,1.8027,1.7804,1.7569,1.7277,1.6968,1.6656,1.6364,1.5884,1.5906,1.6677,1.712,1.7306,1.7306,1.7262,1.7273,1.7284,1.7317,1.7328,1.7306,1.7278,1.7015,1.7043,1.6467,1.5749,1.5575,1.5817,1.5904,1.5941,1.5835,1.5497,1.5128,1.4718,1.4478,1.4379,1.435,1.4332,1.424,1.4148,1.4038,1.3947,1.3818,1.369,1.3763,1.3791,1.3571,1.3442,1.3222,1.2929,1.256,1.2321,1.2422,1.2376,1.2183,1.1868,1.1544,1.1183,1.0795,1.0464,1.0182,0.9994,1.0097,0.9621,2.5312,2.5312,2.5312,2.5312,2.5312,2.5312,2.5312,2.5312,2.5312,2.5216,2.4927,2.4218,2.377,2.3396,2.2606,2.2306,2.2197,2.2197,2.2197,2.2197,2.2197,2.2197,2.2197,2.2161,2.2137,2.2173,2.2053,2.1777,2.1368,2.0827,2.0386,1.9916,1.9504,1.9086,1.9037,1.9013,1.9013,1.9013,1.9013,1.8939,1.8819,1.8494,1.8289,1.8145,1.7856,1.8001,1.8241,1.835,1.8576,1.8838,1.8934,1.8801,1.8566,1.8727,1.8522,1.8113,1.7915,1.7534,1.7037,1.6995,1.6685,1.6216,1.6929,1.7262,1.7306,1.7306,1.7306,1.7306,1.7383,1.7344,1.735,1.7317,1.7317,1.7306,1.7306,1.7138,1.6381,1.6124,1.6392,1.6506,1.6361,1.6169,1.5864,1.5468,1.501,1.4706,1.4556,1.4506,1.4497,1.4451,1.4341,1.4295,1.4212,1.4185,1.4121,1.4284,1.4304,1.4029,1.3828,1.3635,1.3378,1.3011,1.2882,1.2817,1.2487,1.2122,1.2101,1.2051,1.1694,1.1385,1.136,1.1133,1.0863,1.0584,1.0259,2.5312,2.5312,2.5312,2.5312,2.5312,2.5312,2.5312,2.5312,2.5288,2.5119,2.4783,2.435,2.3809,2.3292,2.2963,2.2522,2.2246,2.2197,2.2197,2.2197,2.2197,2.2197,2.2197,2.2197,2.2197,2.2197,2.2173,2.2137,2.1909,2.132,2.1091,2.0718,1.9889,1.9348,1.9122,1.9013,1.9013,1.9013,1.9013,1.9013,1.9001,1.8806,1.8698,1.8686,1.8458,1.8482,1.8638,1.865,1.8782,1.8989,1.9013,1.8934,1.8854,1.8999,1.8893,1.8667,1.8577,1.8539,1.8272,1.8122,1.7645,1.7256,1.7033,1.7306,1.7306,1.7306,1.7306,1.7426,1.7628,1.7693,1.777,1.747,1.7372,1.7317,1.7278,1.725,1.6902,1.6959,1.711,1.7082,1.6976,1.6645,1.6332,1.5845,1.5352,1.4951,1.4764,1.4565,1.4506,1.4506,1.4421,1.443,1.4403,1.444,1.4485,1.4485,1.4485,1.4295,1.4176,1.4102,1.3809,1.3488,1.3111,1.2908,1.2478,1.2076,1.2126,1.216,1.216,1.2026,1.1952,1.1769,1.141,1.1284,1.1259,2.5312,2.5312,2.5312,2.5312,2.5312,2.5312,2.5312,2.5312,2.53,2.5107,2.4819,2.4614,2.4184,2.358,2.3144,2.2903,2.245,2.2258,2.2197,2.2197,2.2197,2.2197,2.2197,2.2197,2.2197,2.2197,2.2197,2.2173,2.2101,2.1632,2.1247,2.0863,2.0442,2.0009,1.96,1.9375,1.9119,1.9182,1.9218,1.9013,1.9013,1.8977,1.8989,1.8989,1.8953,1.8989,1.9013,1.9013,1.9013,1.9013,1.9013,1.9013,1.9013,1.9013,1.8934,1.8881,1.8789,1.8842,1.8818,1.878,1.8332,1.8004,1.7601,1.7334,1.7426,1.7678,1.766,1.7781,1.801,1.8163,1.8174,1.7791,1.7831,1.7809,1.7529,1.7512,1.7337,1.7366,1.7459,1.7448,1.7344,1.7058,1.6722,1.6218,1.57,1.5323,1.499,1.4764,1.4536,1.4515,1.4485,1.4485,1.4485,1.4485,1.4485,1.4485,1.4485,1.4485,1.4442,1.4359,1.4313,1.4002,1.3488,1.2936,1.2521,1.2199,1.2169,1.2184,1.2283,1.2406,1.2455,1.2234,1.1902,1.1852,1.1893,2.5312,2.5312,2.5312,2.5312,2.5312,2.5312,2.5312,2.5312,2.5312,2.5288,2.5264,2.4759,2.4388,2.423,2.3472,2.2991,2.2799,2.2414,2.2294,2.2209,2.2197,2.2197,2.2197,2.2197,2.2197,2.2197,2.2197,2.2185,2.2137,2.1813,2.132,2.0887,2.073,2.055,2.0261,1.9817,1.9516,1.9519,1.9375,1.9158,1.9062,1.9013,1.9013,1.9013,1.9013,1.9013,1.9013,1.9013,1.9013,1.9013,1.9013,1.9013,1.9013,1.9013,1.8827,1.8682,1.8563,1.8735,1.8827,1.8854,1.8774,1.8371,1.7947,1.7545,1.7553,1.8009,1.8108,1.8174,1.8348,1.8567,1.8665,1.8687,1.8709,1.8414,1.8032,1.7824,1.7562,1.7569,1.7656,1.7634,1.7525,1.7279,1.6896,1.6428,1.6144,1.5584,1.5216,1.4872,1.4684,1.4515,1.4485,1.4485,1.4485,1.4485,1.4485,1.4485,1.4485,1.4485,1.4506,1.4451,1.4469,1.4416,1.3931,1.334,1.2665,1.2298,1.2196,1.2283,1.248,1.2588,1.2661,1.2612,1.2283,1.2308,1.2323,2.5312,2.5312,2.5312,2.5312,2.5312,2.5312,2.5312,2.5312,2.5312,2.5312,2.5288,2.5155,2.4711,2.3989,2.4025,2.3388,2.2907,2.2602,2.2493,2.2366,2.2282,2.2221,2.2197,2.2197,2.2197,2.2197,2.2197,2.2197,2.2173,2.1945,2.1668,2.1284,2.1175,2.1175,2.0935,2.0466,2.0153,1.9865,1.9684,1.9432,1.9179,1.9158,1.9134,1.9098,1.9122,1.9098,1.9025,1.9025,1.9013,1.9013,1.9013,1.9013,1.9013,1.9013,1.8934,1.8907,1.8842,1.8827,1.8682,1.8854,1.8863,1.8619,1.8352,1.8193,1.8109,1.8224,1.8539,1.8545,1.8788,1.9113,1.9277,1.9342,1.9352,1.912,1.8929,1.8972,1.8688,1.8316,1.8403,1.8578,1.8436,1.7707,1.7287,1.6977,1.6628,1.5972,1.5468,1.5157,1.4793,1.4625,1.4485,1.4485,1.4485,1.4485,1.4485,1.4485,1.4485,1.4485,1.4506,1.4536,1.4567,1.4497,1.4229,1.3662,1.2854,1.2389,1.2153,1.2308,1.2578,1.2603,1.2676,1.271,1.271,1.2652,1.2603,2.5312,2.5312,2.5312,2.5312,2.5312,2.5312,2.5312,2.5312,2.5312,2.5312,2.5312,2.53,2.4963,2.453,2.4434,2.4025,2.3304,2.3232,2.3083,2.2674,2.2505,2.2354,2.2294,2.2197,2.2197,2.2197,2.2197,2.2197,2.2197,2.2173,2.1957,2.1753,2.1704,2.1704,2.1596,2.1356,2.0971,2.0574,2.0225,1.9937,1.9732,1.9564,1.9516,1.9363,1.9348,1.9302,1.9062,1.9037,1.9013,1.9013,1.9013,1.9013,1.9013,1.9013,1.9013,1.8987,1.896,1.8881,1.8762,1.8747,1.874,1.8764,1.8856,1.8865,1.8793,1.8825,1.8802,1.8785,1.9278,1.9704,1.9802,1.9878,1.9876,1.9873,2.0107,2.0353,1.9887,1.9341,1.9462,1.9725,1.9251,1.8427,1.7917,1.7599,1.7222,1.6687,1.614,1.569,1.5245,1.4793,1.4604,1.4485,1.4485,1.4485,1.4545,1.4625,1.4565,1.4545,1.4485,1.4536,1.4636,1.4569,1.4327,1.3692,1.2931,1.2588,1.2326,1.248,1.2676,1.2676,1.27,1.2783,1.2808,1.2808,1.2725,2.5312,2.5312,2.5312,2.5312,2.5312,2.5312,2.5312,2.5312,2.5312,2.5312,2.5312,2.5312,2.5216,2.4891,2.4759,2.4506,2.4013,2.3833,2.3436,2.3023,2.2903,2.2686,2.2294,2.2197,2.2197,2.2197,2.2197,2.2197,2.2197,2.2185,2.2173,2.2185,2.2137,2.2089,2.2029,2.1993,2.1668,2.1344,2.0995,2.0706,2.0526,2.0466,2.0382,1.9977,1.988,1.9768,1.9251,1.9047,1.9013,1.9013,1.9013,1.9013,1.9013,1.9013,1.9013,1.9013,1.9013,1.8881,1.8848,1.8893,1.9034,1.9179,1.9437,1.965,1.9674,1.9621,1.9577,1.9446,1.9889,2.0081,2.0181,2.0074,2.0019,2.0371,2.0776,2.0799,2.0464,1.999,1.9802,1.9943,1.9536,1.878,1.8491,1.8158,1.7825,1.7353,1.7073,1.6567,1.5864,1.5274,1.5108,1.4911,1.4961,1.5079,1.502,1.501,1.4704,1.4625,1.4595,1.4565,1.4656,1.4581,1.441,1.3679,1.2957,1.2811,1.265,1.2754,1.2759,1.27,1.2749,1.2856,1.2905,1.2881,1.2856,2.5312,2.5312,2.5312,2.5312,2.5312,2.5312,2.5312,2.5312,2.5312,2.5312,2.5312,2.5288,2.5107,2.4843,2.5035,2.4783,2.4169,2.4302,2.3761,2.3336,2.3107,2.2843,2.2294,2.2221,2.2197,2.2197,2.2197,2.2197,2.2197,2.2197,2.2197,2.2185,2.2197,2.2197,2.2197,2.2197,2.2065,2.1885,2.174,2.1242,2.081,2.0646,2.0494,2.035,2.0273,2.0069,1.9612,1.9266,1.9122,1.9013,1.9013,1.9013,1.9013,1.9013,1.9025,1.9025,1.9074,1.8928,1.8893,1.9053,1.9285,1.9053,1.9265,2.0189,2.0653,2.0615,2.0515,2.0375,2.0317,2.0437,2.0388,2.0237,2.0237,2.0775,2.1316,2.1126,2.0935,2.0561,2.0183,1.9878,1.9602,1.9329,1.9041,1.8771,1.8371,1.8171,1.8105,1.7667,1.6782,1.6169,1.6208,1.6065,1.5911,1.5911,1.5738,1.5459,1.5216,1.4961,1.4872,1.4813,1.4745,1.4601,1.4406,1.3646,1.3027,1.3081,1.3051,1.2861,1.2866,1.2856,1.2798,1.2881,1.2915,1.2905,1.2915,2.5312,2.5312,2.5312,2.5312,2.5312,2.5312,2.5312,2.5312,2.5312,2.5312,2.5312,2.5288,2.5131,2.4879,2.5192,2.5119,2.4494,2.4735,2.4398,2.3869,2.3372,2.3059,2.269,2.2318,2.2209,2.2197,2.2197,2.2197,2.2197,2.2197,2.2197,2.2197,2.2197,2.2197,2.2197,2.2197,2.2197,2.2185,2.2197,2.1825,2.1218,2.1247,2.1115,2.0995,2.0923,2.0658,2.0189,1.9868,1.9808,1.96,1.954,1.9206,1.9122,1.9013,1.9158,1.9314,1.9348,1.9159,1.9083,1.9294,1.9722,1.9662,1.8944,1.9851,2.1482,2.1444,2.1163,2.1003,2.0814,2.0871,2.0518,2.0324,2.0367,2.0754,2.119,2.1285,2.1063,2.0754,2.0378,2.0031,1.9886,1.9887,1.9752,1.9918,1.9515,1.9178,1.909,1.8677,1.7833,1.709,1.7157,1.7045,1.681,1.6613,1.6386,1.6083,1.5777,1.5526,1.5245,1.501,1.4875,1.4687,1.435,1.4152,1.3912,1.3681,1.3601,1.3333,1.3207,1.323,1.3061,1.2915,1.2915,1.2915,1.2915,2.5312,2.5312,2.5312,2.5312,2.5312,2.5312,2.5312,2.5312,2.5312,2.5312,2.5312,2.5312,2.5312,2.5312,2.5312,2.5312,2.5264,2.5143,2.4855,2.4434,2.4025,2.3469,2.2931,2.2558,2.2378,2.2234,2.2197,2.2197,2.2197,2.2197,2.2197,2.2197,2.2197,2.2197,2.2197,2.2197,2.2197,2.2197,2.2197,2.2197,2.2161,2.2185,2.1849,2.1789,2.1825,2.1632,2.1019,2.0779,2.0767,2.0406,2.0093,1.9793,1.954,1.9456,1.96,1.9793,1.9889,1.9669,1.9581,2.0003,2.0616,2.076,1.9637,1.9977,2.1658,2.1947,2.1667,2.1557,2.138,2.1115,2.0764,2.0518,2.0614,2.0625,2.101,2.1443,2.1233,2.1074,2.0754,2.0378,2.0342,2.0387,2.0554,2.0737,2.0551,2.0217,1.9838,1.942,1.891,1.8282,1.7968,1.7738,1.7451,1.723,1.7202,1.6838,1.6539,1.6065,1.5806,1.5381,1.507,1.4945,1.5058,1.5378,1.5127,1.4627,1.4134,1.3806,1.3703,1.3625,1.3182,1.2905,1.2915,1.2915,1.2915,2.5312,2.5312,2.5312,2.5312,2.5312,2.5312,2.5312,2.5312,2.5312,2.5312,2.5312,2.5312,2.5312,2.5312,2.5312,2.5312,2.5312,2.5312,2.4952,2.4484,2.4362,2.3761,2.3256,2.2979,2.2594,2.2402,2.2282,2.2209,2.2197,2.2197,2.2197,2.2197,2.2197,2.2197,2.2197,2.2197,2.2197,2.2197,2.2197,2.2197,2.2197,2.2185,2.2161,2.2113,2.2113,2.1777,2.15,2.1692,2.1308,2.0863,2.0521,2.0406,2.031,2.0189,2.0237,2.0346,2.0442,2.0442,2.0481,2.0823,2.1398,2.0313,1.9692,2.0681,2.1686,2.1841,2.1747,2.1944,2.1769,2.16,2.1273,2.0903,2.085,2.0625,2.0786,2.136,2.158,2.1624,2.1561,2.1201,2.0933,2.1043,2.1186,2.119,2.103,2.0712,2.0366,1.9969,1.9621,1.9185,1.8765,1.8398,1.8061,1.8348,1.8483,1.782,1.7368,1.6849,1.6425,1.6169,1.5825,1.5332,1.5499,1.6216,1.5962,1.5392,1.4897,1.4744,1.4124,1.3959,1.3266,1.2905,1.2929,1.2915,1.2915]}]]